<?xml version="1.0" encoding="UTF-8" standalone="no" ?>
<gpx xmlns="http://www.topografix.com/GPX/1/1" xmlns:xsi="http://www.w3.org/2001/XMLSchema-instance" xsi:schemaLocation="http://www.topografix.com/GPX/1/1 http://www.topografix.com/GPX/1/1/gpx.xsd" version="1.1" creator="VisuGPX - https://www.visugpx.com">
  <metadata>
    <name>Revel-froges-col des mouilles-revel</name>
    <desc><![CDATA[File with points/tracks from Locus Map/4.1.1]]></desc>
  </metadata>
  <trk>
    <name><![CDATA[2021-05-13 15:34:33]]></name>
    <desc><![CDATA[Prabert]]></desc>
    <extensions>
      <line xmlns="http://www.topografix.com/GPX/gpx_style/0/2">
        <color>0000FF</color>
        <opacity>0.59</opacity>
        <width>6.0</width>
      </line>
    </extensions>
    <trkseg>
      <trkpt lat="45.18384" lon="5.87375">
        <ele>682.27</ele>
        <time>2021-05-13T13:34:33.000Z</time>
      </trkpt>
      <trkpt lat="45.18388" lon="5.87362">
        <ele>684.85</ele>
        <time>2021-05-13T13:35:08.000Z</time>
      </trkpt>
      <trkpt lat="45.18391" lon="5.87328">
        <ele>685.95</ele>
        <time>2021-05-13T13:35:13.000Z</time>
      </trkpt>
      <trkpt lat="45.18391" lon="5.87292">
        <ele>686.23</ele>
        <time>2021-05-13T13:35:18.000Z</time>
      </trkpt>
      <trkpt lat="45.18404" lon="5.8725">
        <ele>681.86</ele>
        <time>2021-05-13T13:35:23.000Z</time>
      </trkpt>
      <trkpt lat="45.18427" lon="5.87225">
        <ele>679.14</ele>
        <time>2021-05-13T13:35:28.000Z</time>
      </trkpt>
      <trkpt lat="45.18442" lon="5.87198">
        <ele>678.94</ele>
        <time>2021-05-13T13:35:33.000Z</time>
      </trkpt>
      <trkpt lat="45.18435" lon="5.8719">
        <ele>678.86</ele>
        <time>2021-05-13T13:35:40.000Z</time>
      </trkpt>
      <trkpt lat="45.18408" lon="5.87149">
        <ele>678.19</ele>
        <time>2021-05-13T13:35:45.000Z</time>
      </trkpt>
      <trkpt lat="45.18423" lon="5.87109">
        <ele>673.62</ele>
        <time>2021-05-13T13:35:50.000Z</time>
      </trkpt>
      <trkpt lat="45.1848" lon="5.87093">
        <ele>674.83</ele>
        <time>2021-05-13T13:35:55.000Z</time>
      </trkpt>
      <trkpt lat="45.18514" lon="5.87059">
        <ele>677.03</ele>
        <time>2021-05-13T13:36:00.000Z</time>
      </trkpt>
      <trkpt lat="45.18555" lon="5.87039">
        <ele>678.45</ele>
        <time>2021-05-13T13:36:05.000Z</time>
      </trkpt>
      <trkpt lat="45.18575" lon="5.87011">
        <ele>676.22</ele>
        <time>2021-05-13T13:36:10.000Z</time>
      </trkpt>
      <trkpt lat="45.18595" lon="5.8695">
        <ele>674.79</ele>
        <time>2021-05-13T13:36:15.000Z</time>
      </trkpt>
      <trkpt lat="45.18588" lon="5.86887">
        <ele>673.02</ele>
        <time>2021-05-13T13:36:20.000Z</time>
      </trkpt>
      <trkpt lat="45.18587" lon="5.86848">
        <ele>673.13</ele>
        <time>2021-05-13T13:36:25.000Z</time>
      </trkpt>
      <trkpt lat="45.18629" lon="5.86889">
        <ele>671.27</ele>
        <time>2021-05-13T13:36:30.000Z</time>
      </trkpt>
      <trkpt lat="45.18654" lon="5.86914">
        <ele>670.57</ele>
        <time>2021-05-13T13:36:35.000Z</time>
      </trkpt>
      <trkpt lat="45.18683" lon="5.86877">
        <ele>669.64</ele>
        <time>2021-05-13T13:36:40.000Z</time>
      </trkpt>
      <trkpt lat="45.18674" lon="5.86832">
        <ele>660.72</ele>
        <time>2021-05-13T13:36:45.000Z</time>
      </trkpt>
      <trkpt lat="45.18695" lon="5.86767">
        <ele>657.38</ele>
        <time>2021-05-13T13:36:50.000Z</time>
      </trkpt>
      <trkpt lat="45.18734" lon="5.8671">
        <ele>647.46</ele>
        <time>2021-05-13T13:36:55.000Z</time>
      </trkpt>
      <trkpt lat="45.18775" lon="5.86649">
        <ele>645.15</ele>
        <time>2021-05-13T13:37:00.000Z</time>
      </trkpt>
      <trkpt lat="45.18789" lon="5.86576">
        <ele>641.16</ele>
        <time>2021-05-13T13:37:05.000Z</time>
      </trkpt>
      <trkpt lat="45.18769" lon="5.86503">
        <ele>637.91</ele>
        <time>2021-05-13T13:37:10.000Z</time>
      </trkpt>
      <trkpt lat="45.18786" lon="5.86437">
        <ele>631.12</ele>
        <time>2021-05-13T13:37:15.000Z</time>
      </trkpt>
      <trkpt lat="45.18827" lon="5.86424">
        <ele>629.37</ele>
        <time>2021-05-13T13:37:20.000Z</time>
      </trkpt>
      <trkpt lat="45.18867" lon="5.86356">
        <ele>618.12</ele>
        <time>2021-05-13T13:37:25.000Z</time>
      </trkpt>
      <trkpt lat="45.18899" lon="5.86277">
        <ele>612.85</ele>
        <time>2021-05-13T13:37:30.000Z</time>
      </trkpt>
      <trkpt lat="45.18922" lon="5.86189">
        <ele>609.7</ele>
        <time>2021-05-13T13:37:35.000Z</time>
      </trkpt>
      <trkpt lat="45.1893" lon="5.86093">
        <ele>603.7</ele>
        <time>2021-05-13T13:37:40.000Z</time>
      </trkpt>
      <trkpt lat="45.18954" lon="5.86005">
        <ele>599.31</ele>
        <time>2021-05-13T13:37:45.000Z</time>
      </trkpt>
      <trkpt lat="45.18958" lon="5.85902">
        <ele>596.97</ele>
        <time>2021-05-13T13:37:50.000Z</time>
      </trkpt>
      <trkpt lat="45.18947" lon="5.85807">
        <ele>594.53</ele>
        <time>2021-05-13T13:37:55.000Z</time>
      </trkpt>
      <trkpt lat="45.18951" lon="5.85718">
        <ele>590.51</ele>
        <time>2021-05-13T13:38:00.000Z</time>
      </trkpt>
      <trkpt lat="45.18941" lon="5.8564">
        <ele>588.92</ele>
        <time>2021-05-13T13:38:05.000Z</time>
      </trkpt>
      <trkpt lat="45.18954" lon="5.85546">
        <ele>574.2</ele>
        <time>2021-05-13T13:38:10.000Z</time>
      </trkpt>
      <trkpt lat="45.18994" lon="5.85482">
        <ele>570.92</ele>
        <time>2021-05-13T13:38:15.000Z</time>
      </trkpt>
      <trkpt lat="45.19051" lon="5.85453">
        <ele>568.35</ele>
        <time>2021-05-13T13:38:20.000Z</time>
      </trkpt>
      <trkpt lat="45.19098" lon="5.8539">
        <ele>567.22</ele>
        <time>2021-05-13T13:38:25.000Z</time>
      </trkpt>
      <trkpt lat="45.19177" lon="5.85369">
        <ele>542.89</ele>
        <time>2021-05-13T13:38:30.000Z</time>
      </trkpt>
      <trkpt lat="45.19239" lon="5.85347">
        <ele>535.41</ele>
        <time>2021-05-13T13:38:35.000Z</time>
      </trkpt>
      <trkpt lat="45.19302" lon="5.85323">
        <ele>526.52</ele>
        <time>2021-05-13T13:38:40.000Z</time>
      </trkpt>
      <trkpt lat="45.19351" lon="5.85343">
        <ele>519.29</ele>
        <time>2021-05-13T13:38:45.000Z</time>
      </trkpt>
      <trkpt lat="45.19382" lon="5.85364">
        <ele>516.22</ele>
        <time>2021-05-13T13:38:50.000Z</time>
      </trkpt>
      <trkpt lat="45.19381" lon="5.85311">
        <ele>507.96</ele>
        <time>2021-05-13T13:38:55.000Z</time>
      </trkpt>
      <trkpt lat="45.1938" lon="5.85254">
        <ele>498.09</ele>
        <time>2021-05-13T13:39:00.000Z</time>
      </trkpt>
      <trkpt lat="45.19404" lon="5.85187">
        <ele>493.49</ele>
        <time>2021-05-13T13:39:05.000Z</time>
      </trkpt>
      <trkpt lat="45.19452" lon="5.85176">
        <ele>487.48</ele>
        <time>2021-05-13T13:39:10.000Z</time>
      </trkpt>
      <trkpt lat="45.19481" lon="5.85134">
        <ele>486.5</ele>
        <time>2021-05-13T13:39:15.000Z</time>
      </trkpt>
      <trkpt lat="45.19492" lon="5.85051">
        <ele>484.5</ele>
        <time>2021-05-13T13:39:20.000Z</time>
      </trkpt>
      <trkpt lat="45.1955" lon="5.85004">
        <ele>476.09</ele>
        <time>2021-05-13T13:39:25.000Z</time>
      </trkpt>
      <trkpt lat="45.1961" lon="5.84955">
        <ele>473.65</ele>
        <time>2021-05-13T13:39:30.000Z</time>
      </trkpt>
      <trkpt lat="45.19656" lon="5.84889">
        <ele>472.32</ele>
        <time>2021-05-13T13:39:35.000Z</time>
      </trkpt>
      <trkpt lat="45.19713" lon="5.84832">
        <ele>466.57</ele>
        <time>2021-05-13T13:39:40.000Z</time>
      </trkpt>
      <trkpt lat="45.19773" lon="5.84786">
        <ele>464.3</ele>
        <time>2021-05-13T13:39:45.000Z</time>
      </trkpt>
      <trkpt lat="45.19833" lon="5.84739">
        <ele>463.61</ele>
        <time>2021-05-13T13:39:50.000Z</time>
      </trkpt>
      <trkpt lat="45.19888" lon="5.84753">
        <ele>457.2</ele>
        <time>2021-05-13T13:39:55.000Z</time>
      </trkpt>
      <trkpt lat="45.19868" lon="5.847">
        <ele>451.24</ele>
        <time>2021-05-13T13:40:00.000Z</time>
      </trkpt>
      <trkpt lat="45.19899" lon="5.84626">
        <ele>446.39</ele>
        <time>2021-05-13T13:40:05.000Z</time>
      </trkpt>
      <trkpt lat="45.19948" lon="5.84561">
        <ele>437.5</ele>
        <time>2021-05-13T13:40:10.000Z</time>
      </trkpt>
      <trkpt lat="45.19976" lon="5.84495">
        <ele>425.96</ele>
        <time>2021-05-13T13:40:15.000Z</time>
      </trkpt>
      <trkpt lat="45.20021" lon="5.84452">
        <ele>422.4</ele>
        <time>2021-05-13T13:40:20.000Z</time>
      </trkpt>
      <trkpt lat="45.20077" lon="5.84439">
        <ele>417.23</ele>
        <time>2021-05-13T13:40:25.000Z</time>
      </trkpt>
      <trkpt lat="45.20133" lon="5.84525">
        <ele>404.6</ele>
        <time>2021-05-13T13:40:30.000Z</time>
      </trkpt>
      <trkpt lat="45.20176" lon="5.84605">
        <ele>403.03</ele>
        <time>2021-05-13T13:40:35.000Z</time>
      </trkpt>
      <trkpt lat="45.20218" lon="5.84689">
        <ele>399.55</ele>
        <time>2021-05-13T13:40:40.000Z</time>
      </trkpt>
      <trkpt lat="45.20285" lon="5.84761">
        <ele>393.03</ele>
        <time>2021-05-13T13:40:45.000Z</time>
      </trkpt>
      <trkpt lat="45.20321" lon="5.84858">
        <ele>389.27</ele>
        <time>2021-05-13T13:40:50.000Z</time>
      </trkpt>
      <trkpt lat="45.20371" lon="5.84945">
        <ele>383.28</ele>
        <time>2021-05-13T13:40:55.000Z</time>
      </trkpt>
      <trkpt lat="45.20433" lon="5.85021">
        <ele>381.42</ele>
        <time>2021-05-13T13:41:00.000Z</time>
      </trkpt>
      <trkpt lat="45.20436" lon="5.85091">
        <ele>377.04</ele>
        <time>2021-05-13T13:41:05.000Z</time>
      </trkpt>
      <trkpt lat="45.2043" lon="5.85081">
        <ele>362.49</ele>
        <time>2021-05-13T13:41:13.000Z</time>
      </trkpt>
      <trkpt lat="45.20414" lon="5.85036">
        <ele>359.21</ele>
        <time>2021-05-13T13:41:18.000Z</time>
      </trkpt>
      <trkpt lat="45.20386" lon="5.84979">
        <ele>348.66</ele>
        <time>2021-05-13T13:41:23.000Z</time>
      </trkpt>
      <trkpt lat="45.20364" lon="5.84897">
        <ele>342.04</ele>
        <time>2021-05-13T13:41:28.000Z</time>
      </trkpt>
      <trkpt lat="45.20338" lon="5.84814">
        <ele>326.61</ele>
        <time>2021-05-13T13:41:33.000Z</time>
      </trkpt>
      <trkpt lat="45.20321" lon="5.84723">
        <ele>318.82</ele>
        <time>2021-05-13T13:41:38.000Z</time>
      </trkpt>
      <trkpt lat="45.20299" lon="5.84641">
        <ele>316.12</ele>
        <time>2021-05-13T13:41:43.000Z</time>
      </trkpt>
      <trkpt lat="45.20266" lon="5.84556">
        <ele>311.86</ele>
        <time>2021-05-13T13:41:48.000Z</time>
      </trkpt>
      <trkpt lat="45.20246" lon="5.84446">
        <ele>298.57</ele>
        <time>2021-05-13T13:41:53.000Z</time>
      </trkpt>
      <trkpt lat="45.20224" lon="5.84349">
        <ele>293.17</ele>
        <time>2021-05-13T13:41:58.000Z</time>
      </trkpt>
      <trkpt lat="45.20193" lon="5.84259">
        <ele>286.5</ele>
        <time>2021-05-13T13:42:03.000Z</time>
      </trkpt>
      <trkpt lat="45.20173" lon="5.84181">
        <ele>287.85</ele>
        <time>2021-05-13T13:42:08.000Z</time>
      </trkpt>
      <trkpt lat="45.20127" lon="5.84197">
        <ele>289.06</ele>
        <time>2021-05-13T13:42:13.000Z</time>
      </trkpt>
      <trkpt lat="45.20051" lon="5.84249">
        <ele>283.11</ele>
        <time>2021-05-13T13:42:18.000Z</time>
      </trkpt>
      <trkpt lat="45.19998" lon="5.84253">
        <ele>281.52</ele>
        <time>2021-05-13T13:42:23.000Z</time>
      </trkpt>
      <trkpt lat="45.20031" lon="5.84223">
        <ele>276.76</ele>
        <time>2021-05-13T13:42:28.000Z</time>
      </trkpt>
      <trkpt lat="45.20068" lon="5.84177">
        <ele>268.22</ele>
        <time>2021-05-13T13:42:33.000Z</time>
      </trkpt>
      <trkpt lat="45.20098" lon="5.84128">
        <ele>261.88</ele>
        <time>2021-05-13T13:42:38.000Z</time>
      </trkpt>
      <trkpt lat="45.20113" lon="5.84083">
        <ele>255.16</ele>
        <time>2021-05-13T13:42:43.000Z</time>
      </trkpt>
      <trkpt lat="45.20139" lon="5.84046">
        <ele>252.17</ele>
        <time>2021-05-13T13:42:48.000Z</time>
      </trkpt>
      <trkpt lat="45.2015" lon="5.84016">
        <ele>255.4</ele>
        <time>2021-05-13T13:42:53.000Z</time>
      </trkpt>
      <trkpt lat="45.20148" lon="5.83999">
        <ele>254.35</ele>
        <time>2021-05-13T13:42:58.000Z</time>
      </trkpt>
      <trkpt lat="45.20139" lon="5.83997">
        <ele>250.56</ele>
        <time>2021-05-13T13:43:12.000Z</time>
      </trkpt>
      <trkpt lat="45.20147" lon="5.8399">
        <ele>245.65</ele>
        <time>2021-05-13T13:43:24.000Z</time>
      </trkpt>
      <trkpt lat="45.20153" lon="5.83976">
        <ele>246.89</ele>
        <time>2021-05-13T13:43:29.000Z</time>
      </trkpt>
      <trkpt lat="45.20154" lon="5.83949">
        <ele>247.22</ele>
        <time>2021-05-13T13:43:34.000Z</time>
      </trkpt>
      <trkpt lat="45.2015" lon="5.83921">
        <ele>244.24</ele>
        <time>2021-05-13T13:43:39.000Z</time>
      </trkpt>
      <trkpt lat="45.2015" lon="5.83885">
        <ele>240.98</ele>
        <time>2021-05-13T13:43:44.000Z</time>
      </trkpt>
      <trkpt lat="45.20151" lon="5.83868">
        <ele>244.48</ele>
        <time>2021-05-13T13:43:49.000Z</time>
      </trkpt>
      <trkpt lat="45.20162" lon="5.83844">
        <ele>243.69</ele>
        <time>2021-05-13T13:43:54.000Z</time>
      </trkpt>
      <trkpt lat="45.20183" lon="5.83837">
        <ele>242.89</ele>
        <time>2021-05-13T13:43:59.000Z</time>
      </trkpt>
      <trkpt lat="45.2021" lon="5.83825">
        <ele>242.2</ele>
        <time>2021-05-13T13:44:04.000Z</time>
      </trkpt>
      <trkpt lat="45.20248" lon="5.83811">
        <ele>239.21</ele>
        <time>2021-05-13T13:44:09.000Z</time>
      </trkpt>
      <trkpt lat="45.20278" lon="5.83783">
        <ele>240.39</ele>
        <time>2021-05-13T13:44:14.000Z</time>
      </trkpt>
      <trkpt lat="45.20308" lon="5.83756">
        <ele>241.25</ele>
        <time>2021-05-13T13:44:19.000Z</time>
      </trkpt>
      <trkpt lat="45.20338" lon="5.83732">
        <ele>241.07</ele>
        <time>2021-05-13T13:44:24.000Z</time>
      </trkpt>
      <trkpt lat="45.20371" lon="5.83696">
        <ele>243.23</ele>
        <time>2021-05-13T13:44:29.000Z</time>
      </trkpt>
      <trkpt lat="45.20399" lon="5.83669">
        <ele>243.09</ele>
        <time>2021-05-13T13:44:34.000Z</time>
      </trkpt>
      <trkpt lat="45.2043" lon="5.83639">
        <ele>240.67</ele>
        <time>2021-05-13T13:44:39.000Z</time>
      </trkpt>
      <trkpt lat="45.20461" lon="5.83612">
        <ele>239.4</ele>
        <time>2021-05-13T13:44:44.000Z</time>
      </trkpt>
      <trkpt lat="45.20481" lon="5.83587">
        <ele>231.78</ele>
        <time>2021-05-13T13:44:49.000Z</time>
      </trkpt>
      <trkpt lat="45.20499" lon="5.83576">
        <ele>233.72</ele>
        <time>2021-05-13T13:44:54.000Z</time>
      </trkpt>
      <trkpt lat="45.20509" lon="5.83565">
        <ele>236.37</ele>
        <time>2021-05-13T13:45:12.000Z</time>
      </trkpt>
      <trkpt lat="45.20533" lon="5.83544">
        <ele>230.48</ele>
        <time>2021-05-13T13:45:17.000Z</time>
      </trkpt>
      <trkpt lat="45.20561" lon="5.83523">
        <ele>231.2</ele>
        <time>2021-05-13T13:45:22.000Z</time>
      </trkpt>
      <trkpt lat="45.20589" lon="5.83505">
        <ele>228.13</ele>
        <time>2021-05-13T13:45:27.000Z</time>
      </trkpt>
      <trkpt lat="45.20614" lon="5.8348">
        <ele>225.42</ele>
        <time>2021-05-13T13:45:32.000Z</time>
      </trkpt>
      <trkpt lat="45.2064" lon="5.83458">
        <ele>226.46</ele>
        <time>2021-05-13T13:45:37.000Z</time>
      </trkpt>
      <trkpt lat="45.20681" lon="5.83431">
        <ele>225.75</ele>
        <time>2021-05-13T13:45:42.000Z</time>
      </trkpt>
      <trkpt lat="45.20713" lon="5.83406">
        <ele>225.5</ele>
        <time>2021-05-13T13:45:47.000Z</time>
      </trkpt>
      <trkpt lat="45.20746" lon="5.83376">
        <ele>223.09</ele>
        <time>2021-05-13T13:45:52.000Z</time>
      </trkpt>
      <trkpt lat="45.20779" lon="5.8335">
        <ele>224.4</ele>
        <time>2021-05-13T13:45:57.000Z</time>
      </trkpt>
      <trkpt lat="45.20814" lon="5.83322">
        <ele>227.22</ele>
        <time>2021-05-13T13:46:02.000Z</time>
      </trkpt>
      <trkpt lat="45.20842" lon="5.83298">
        <ele>225.72</ele>
        <time>2021-05-13T13:46:07.000Z</time>
      </trkpt>
      <trkpt lat="45.20877" lon="5.83275">
        <ele>226.7</ele>
        <time>2021-05-13T13:46:12.000Z</time>
      </trkpt>
      <trkpt lat="45.20907" lon="5.83254">
        <ele>226.7</ele>
        <time>2021-05-13T13:46:17.000Z</time>
      </trkpt>
      <trkpt lat="45.20942" lon="5.83238">
        <ele>225.81</ele>
        <time>2021-05-13T13:46:22.000Z</time>
      </trkpt>
      <trkpt lat="45.20972" lon="5.8323">
        <ele>220.98</ele>
        <time>2021-05-13T13:46:27.000Z</time>
      </trkpt>
      <trkpt lat="45.20995" lon="5.83229">
        <ele>220.2</ele>
        <time>2021-05-13T13:46:32.000Z</time>
      </trkpt>
      <trkpt lat="45.21017" lon="5.8324">
        <ele>219.92</ele>
        <time>2021-05-13T13:46:37.000Z</time>
      </trkpt>
      <trkpt lat="45.21042" lon="5.83256">
        <ele>219.77</ele>
        <time>2021-05-13T13:46:42.000Z</time>
      </trkpt>
      <trkpt lat="45.21066" lon="5.83241">
        <ele>220</ele>
        <time>2021-05-13T13:46:47.000Z</time>
      </trkpt>
      <trkpt lat="45.21077" lon="5.83213">
        <ele>219.73</ele>
        <time>2021-05-13T13:46:52.000Z</time>
      </trkpt>
      <trkpt lat="45.21087" lon="5.83183">
        <ele>220.3</ele>
        <time>2021-05-13T13:46:57.000Z</time>
      </trkpt>
      <trkpt lat="45.21098" lon="5.83152">
        <ele>219.74</ele>
        <time>2021-05-13T13:47:02.000Z</time>
      </trkpt>
      <trkpt lat="45.21115" lon="5.83126">
        <ele>220.3</ele>
        <time>2021-05-13T13:47:07.000Z</time>
      </trkpt>
      <trkpt lat="45.21126" lon="5.83105">
        <ele>220.13</ele>
        <time>2021-05-13T13:47:12.000Z</time>
      </trkpt>
      <trkpt lat="45.2114" lon="5.83081">
        <ele>220.14</ele>
        <time>2021-05-13T13:47:17.000Z</time>
      </trkpt>
      <trkpt lat="45.21152" lon="5.83052">
        <ele>221.92</ele>
        <time>2021-05-13T13:47:22.000Z</time>
      </trkpt>
      <trkpt lat="45.21165" lon="5.83027">
        <ele>220.75</ele>
        <time>2021-05-13T13:47:27.000Z</time>
      </trkpt>
      <trkpt lat="45.21179" lon="5.82998">
        <ele>221.16</ele>
        <time>2021-05-13T13:47:32.000Z</time>
      </trkpt>
      <trkpt lat="45.21192" lon="5.82977">
        <ele>222.14</ele>
        <time>2021-05-13T13:47:37.000Z</time>
      </trkpt>
      <trkpt lat="45.21205" lon="5.82951">
        <ele>222.34</ele>
        <time>2021-05-13T13:47:42.000Z</time>
      </trkpt>
      <trkpt lat="45.2122" lon="5.82925">
        <ele>221.58</ele>
        <time>2021-05-13T13:47:47.000Z</time>
      </trkpt>
      <trkpt lat="45.21234" lon="5.82901">
        <ele>223.42</ele>
        <time>2021-05-13T13:47:52.000Z</time>
      </trkpt>
      <trkpt lat="45.21246" lon="5.82874">
        <ele>224.81</ele>
        <time>2021-05-13T13:47:57.000Z</time>
      </trkpt>
      <trkpt lat="45.21257" lon="5.82849">
        <ele>223.49</ele>
        <time>2021-05-13T13:48:02.000Z</time>
      </trkpt>
      <trkpt lat="45.21268" lon="5.82821">
        <ele>222.03</ele>
        <time>2021-05-13T13:48:07.000Z</time>
      </trkpt>
      <trkpt lat="45.21286" lon="5.82802">
        <ele>222.25</ele>
        <time>2021-05-13T13:48:12.000Z</time>
      </trkpt>
      <trkpt lat="45.21278" lon="5.82826">
        <ele>220.89</ele>
        <time>2021-05-13T13:48:17.000Z</time>
      </trkpt>
      <trkpt lat="45.21264" lon="5.82857">
        <ele>222.03</ele>
        <time>2021-05-13T13:48:22.000Z</time>
      </trkpt>
      <trkpt lat="45.21248" lon="5.82895">
        <ele>227.3</ele>
        <time>2021-05-13T13:48:27.000Z</time>
      </trkpt>
      <trkpt lat="45.21229" lon="5.82932">
        <ele>227.92</ele>
        <time>2021-05-13T13:48:32.000Z</time>
      </trkpt>
      <trkpt lat="45.21234" lon="5.82956">
        <ele>225.27</ele>
        <time>2021-05-13T13:48:37.000Z</time>
      </trkpt>
      <trkpt lat="45.21242" lon="5.8297">
        <ele>224.42</ele>
        <time>2021-05-13T13:48:42.000Z</time>
      </trkpt>
      <trkpt lat="45.21252" lon="5.82985">
        <ele>219.07</ele>
        <time>2021-05-13T13:50:55.000Z</time>
      </trkpt>
      <trkpt lat="45.21271" lon="5.83004">
        <ele>218.48</ele>
        <time>2021-05-13T13:51:00.000Z</time>
      </trkpt>
      <trkpt lat="45.21291" lon="5.83028">
        <ele>221.75</ele>
        <time>2021-05-13T13:51:05.000Z</time>
      </trkpt>
      <trkpt lat="45.21314" lon="5.83054">
        <ele>222.14</ele>
        <time>2021-05-13T13:51:10.000Z</time>
      </trkpt>
      <trkpt lat="45.21338" lon="5.83079">
        <ele>222.71</ele>
        <time>2021-05-13T13:51:15.000Z</time>
      </trkpt>
      <trkpt lat="45.21363" lon="5.83102">
        <ele>219.11</ele>
        <time>2021-05-13T13:51:20.000Z</time>
      </trkpt>
      <trkpt lat="45.21392" lon="5.83126">
        <ele>220.65</ele>
        <time>2021-05-13T13:51:25.000Z</time>
      </trkpt>
      <trkpt lat="45.21419" lon="5.83154">
        <ele>218.41</ele>
        <time>2021-05-13T13:51:30.000Z</time>
      </trkpt>
      <trkpt lat="45.21442" lon="5.83183">
        <ele>219.09</ele>
        <time>2021-05-13T13:51:35.000Z</time>
      </trkpt>
      <trkpt lat="45.21465" lon="5.83212">
        <ele>221.44</ele>
        <time>2021-05-13T13:51:40.000Z</time>
      </trkpt>
      <trkpt lat="45.21485" lon="5.83245">
        <ele>220.88</ele>
        <time>2021-05-13T13:51:45.000Z</time>
      </trkpt>
      <trkpt lat="45.21501" lon="5.83267">
        <ele>217.98</ele>
        <time>2021-05-13T13:51:50.000Z</time>
      </trkpt>
      <trkpt lat="45.21522" lon="5.83289">
        <ele>217.85</ele>
        <time>2021-05-13T13:51:55.000Z</time>
      </trkpt>
      <trkpt lat="45.21535" lon="5.83308">
        <ele>218.2</ele>
        <time>2021-05-13T13:52:00.000Z</time>
      </trkpt>
      <trkpt lat="45.2155" lon="5.8333">
        <ele>217.52</ele>
        <time>2021-05-13T13:52:05.000Z</time>
      </trkpt>
      <trkpt lat="45.21561" lon="5.83351">
        <ele>218.2</ele>
        <time>2021-05-13T13:52:10.000Z</time>
      </trkpt>
      <trkpt lat="45.21579" lon="5.83379">
        <ele>218.06</ele>
        <time>2021-05-13T13:52:15.000Z</time>
      </trkpt>
      <trkpt lat="45.21596" lon="5.83406">
        <ele>216.75</ele>
        <time>2021-05-13T13:52:20.000Z</time>
      </trkpt>
      <trkpt lat="45.21618" lon="5.83433">
        <ele>218.87</ele>
        <time>2021-05-13T13:52:25.000Z</time>
      </trkpt>
      <trkpt lat="45.21634" lon="5.83463">
        <ele>219.03</ele>
        <time>2021-05-13T13:52:30.000Z</time>
      </trkpt>
      <trkpt lat="45.21652" lon="5.83495">
        <ele>220.01</ele>
        <time>2021-05-13T13:52:35.000Z</time>
      </trkpt>
      <trkpt lat="45.21667" lon="5.83524">
        <ele>218.83</ele>
        <time>2021-05-13T13:52:40.000Z</time>
      </trkpt>
      <trkpt lat="45.21685" lon="5.8355">
        <ele>216.35</ele>
        <time>2021-05-13T13:52:45.000Z</time>
      </trkpt>
      <trkpt lat="45.21701" lon="5.83582">
        <ele>213.36</ele>
        <time>2021-05-13T13:52:50.000Z</time>
      </trkpt>
      <trkpt lat="45.21719" lon="5.83614">
        <ele>213.36</ele>
        <time>2021-05-13T13:52:55.000Z</time>
      </trkpt>
      <trkpt lat="45.21734" lon="5.83647">
        <ele>213.75</ele>
        <time>2021-05-13T13:53:00.000Z</time>
      </trkpt>
      <trkpt lat="45.21755" lon="5.83674">
        <ele>214.79</ele>
        <time>2021-05-13T13:53:05.000Z</time>
      </trkpt>
      <trkpt lat="45.21775" lon="5.83708">
        <ele>216.74</ele>
        <time>2021-05-13T13:53:10.000Z</time>
      </trkpt>
      <trkpt lat="45.2179" lon="5.83746">
        <ele>216.56</ele>
        <time>2021-05-13T13:53:15.000Z</time>
      </trkpt>
      <trkpt lat="45.2181" lon="5.83776">
        <ele>219.27</ele>
        <time>2021-05-13T13:53:20.000Z</time>
      </trkpt>
      <trkpt lat="45.21828" lon="5.83811">
        <ele>220.44</ele>
        <time>2021-05-13T13:53:25.000Z</time>
      </trkpt>
      <trkpt lat="45.21854" lon="5.83835">
        <ele>219.77</ele>
        <time>2021-05-13T13:53:30.000Z</time>
      </trkpt>
      <trkpt lat="45.21875" lon="5.83872">
        <ele>223.4</ele>
        <time>2021-05-13T13:53:35.000Z</time>
      </trkpt>
      <trkpt lat="45.21891" lon="5.83907">
        <ele>224.01</ele>
        <time>2021-05-13T13:53:40.000Z</time>
      </trkpt>
      <trkpt lat="45.21914" lon="5.83937">
        <ele>225.46</ele>
        <time>2021-05-13T13:53:45.000Z</time>
      </trkpt>
      <trkpt lat="45.21937" lon="5.83976">
        <ele>223.19</ele>
        <time>2021-05-13T13:53:50.000Z</time>
      </trkpt>
      <trkpt lat="45.2196" lon="5.84006">
        <ele>221.72</ele>
        <time>2021-05-13T13:53:55.000Z</time>
      </trkpt>
      <trkpt lat="45.21987" lon="5.84036">
        <ele>220.23</ele>
        <time>2021-05-13T13:54:00.000Z</time>
      </trkpt>
      <trkpt lat="45.22" lon="5.8407">
        <ele>222.65</ele>
        <time>2021-05-13T13:54:05.000Z</time>
      </trkpt>
      <trkpt lat="45.22023" lon="5.841">
        <ele>223.09</ele>
        <time>2021-05-13T13:54:10.000Z</time>
      </trkpt>
      <trkpt lat="45.22053" lon="5.84121">
        <ele>224.7</ele>
        <time>2021-05-13T13:54:15.000Z</time>
      </trkpt>
      <trkpt lat="45.22076" lon="5.84142">
        <ele>222.43</ele>
        <time>2021-05-13T13:54:20.000Z</time>
      </trkpt>
      <trkpt lat="45.22102" lon="5.84163">
        <ele>222.73</ele>
        <time>2021-05-13T13:54:25.000Z</time>
      </trkpt>
      <trkpt lat="45.22129" lon="5.84186">
        <ele>219.01</ele>
        <time>2021-05-13T13:54:30.000Z</time>
      </trkpt>
      <trkpt lat="45.22149" lon="5.84212">
        <ele>219.89</ele>
        <time>2021-05-13T13:54:35.000Z</time>
      </trkpt>
      <trkpt lat="45.22167" lon="5.84249">
        <ele>220.72</ele>
        <time>2021-05-13T13:54:40.000Z</time>
      </trkpt>
      <trkpt lat="45.22187" lon="5.84281">
        <ele>216.84</ele>
        <time>2021-05-13T13:54:45.000Z</time>
      </trkpt>
      <trkpt lat="45.22208" lon="5.84314">
        <ele>219.78</ele>
        <time>2021-05-13T13:54:50.000Z</time>
      </trkpt>
      <trkpt lat="45.22232" lon="5.8433">
        <ele>218.42</ele>
        <time>2021-05-13T13:54:55.000Z</time>
      </trkpt>
      <trkpt lat="45.22255" lon="5.84352">
        <ele>219.46</ele>
        <time>2021-05-13T13:55:00.000Z</time>
      </trkpt>
      <trkpt lat="45.22283" lon="5.84383">
        <ele>221.08</ele>
        <time>2021-05-13T13:55:05.000Z</time>
      </trkpt>
      <trkpt lat="45.2231" lon="5.84413">
        <ele>220.73</ele>
        <time>2021-05-13T13:55:10.000Z</time>
      </trkpt>
      <trkpt lat="45.22326" lon="5.84444">
        <ele>223.45</ele>
        <time>2021-05-13T13:55:15.000Z</time>
      </trkpt>
      <trkpt lat="45.22349" lon="5.8448">
        <ele>224.63</ele>
        <time>2021-05-13T13:55:20.000Z</time>
      </trkpt>
      <trkpt lat="45.22373" lon="5.84509">
        <ele>221.97</ele>
        <time>2021-05-13T13:55:25.000Z</time>
      </trkpt>
      <trkpt lat="45.22397" lon="5.84538">
        <ele>223.52</ele>
        <time>2021-05-13T13:55:30.000Z</time>
      </trkpt>
      <trkpt lat="45.2242" lon="5.84563">
        <ele>221.78</ele>
        <time>2021-05-13T13:55:35.000Z</time>
      </trkpt>
      <trkpt lat="45.22437" lon="5.8459">
        <ele>220.38</ele>
        <time>2021-05-13T13:55:40.000Z</time>
      </trkpt>
      <trkpt lat="45.22458" lon="5.84614">
        <ele>221.14</ele>
        <time>2021-05-13T13:55:45.000Z</time>
      </trkpt>
      <trkpt lat="45.22485" lon="5.84641">
        <ele>218.68</ele>
        <time>2021-05-13T13:55:50.000Z</time>
      </trkpt>
      <trkpt lat="45.22508" lon="5.84667">
        <ele>216.68</ele>
        <time>2021-05-13T13:55:55.000Z</time>
      </trkpt>
      <trkpt lat="45.22531" lon="5.84698">
        <ele>216.77</ele>
        <time>2021-05-13T13:56:00.000Z</time>
      </trkpt>
      <trkpt lat="45.2255" lon="5.8473">
        <ele>216.47</ele>
        <time>2021-05-13T13:56:05.000Z</time>
      </trkpt>
      <trkpt lat="45.22577" lon="5.84756">
        <ele>214.4</ele>
        <time>2021-05-13T13:56:10.000Z</time>
      </trkpt>
      <trkpt lat="45.22599" lon="5.8479">
        <ele>216.29</ele>
        <time>2021-05-13T13:56:15.000Z</time>
      </trkpt>
      <trkpt lat="45.22625" lon="5.84817">
        <ele>219.37</ele>
        <time>2021-05-13T13:56:20.000Z</time>
      </trkpt>
      <trkpt lat="45.22646" lon="5.84845">
        <ele>220.57</ele>
        <time>2021-05-13T13:56:25.000Z</time>
      </trkpt>
      <trkpt lat="45.22671" lon="5.84873">
        <ele>222.69</ele>
        <time>2021-05-13T13:56:30.000Z</time>
      </trkpt>
      <trkpt lat="45.22687" lon="5.84902">
        <ele>220.54</ele>
        <time>2021-05-13T13:56:35.000Z</time>
      </trkpt>
      <trkpt lat="45.22705" lon="5.84924">
        <ele>218.83</ele>
        <time>2021-05-13T13:56:40.000Z</time>
      </trkpt>
      <trkpt lat="45.22724" lon="5.84945">
        <ele>216.27</ele>
        <time>2021-05-13T13:56:45.000Z</time>
      </trkpt>
      <trkpt lat="45.22743" lon="5.84969">
        <ele>214.77</ele>
        <time>2021-05-13T13:56:50.000Z</time>
      </trkpt>
      <trkpt lat="45.22766" lon="5.84991">
        <ele>214.18</ele>
        <time>2021-05-13T13:56:55.000Z</time>
      </trkpt>
      <trkpt lat="45.22789" lon="5.85014">
        <ele>215.88</ele>
        <time>2021-05-13T13:57:00.000Z</time>
      </trkpt>
      <trkpt lat="45.22811" lon="5.85043">
        <ele>216.01</ele>
        <time>2021-05-13T13:57:05.000Z</time>
      </trkpt>
      <trkpt lat="45.22824" lon="5.85073">
        <ele>216.26</ele>
        <time>2021-05-13T13:57:10.000Z</time>
      </trkpt>
      <trkpt lat="45.22849" lon="5.85104">
        <ele>217.36</ele>
        <time>2021-05-13T13:57:15.000Z</time>
      </trkpt>
      <trkpt lat="45.22869" lon="5.85131">
        <ele>219.19</ele>
        <time>2021-05-13T13:57:20.000Z</time>
      </trkpt>
      <trkpt lat="45.22894" lon="5.85162">
        <ele>219.46</ele>
        <time>2021-05-13T13:57:25.000Z</time>
      </trkpt>
      <trkpt lat="45.22918" lon="5.8519">
        <ele>221.86</ele>
        <time>2021-05-13T13:57:30.000Z</time>
      </trkpt>
      <trkpt lat="45.22939" lon="5.8522">
        <ele>220.82</ele>
        <time>2021-05-13T13:57:35.000Z</time>
      </trkpt>
      <trkpt lat="45.22966" lon="5.85246">
        <ele>219.15</ele>
        <time>2021-05-13T13:57:40.000Z</time>
      </trkpt>
      <trkpt lat="45.22984" lon="5.85276">
        <ele>221.09</ele>
        <time>2021-05-13T13:57:45.000Z</time>
      </trkpt>
      <trkpt lat="45.2301" lon="5.85298">
        <ele>225.1</ele>
        <time>2021-05-13T13:57:50.000Z</time>
      </trkpt>
      <trkpt lat="45.23021" lon="5.85312">
        <ele>223.9</ele>
        <time>2021-05-13T13:57:55.000Z</time>
      </trkpt>
      <trkpt lat="45.23034" lon="5.85335">
        <ele>225.01</ele>
        <time>2021-05-13T13:58:00.000Z</time>
      </trkpt>
      <trkpt lat="45.23045" lon="5.85356">
        <ele>226.54</ele>
        <time>2021-05-13T13:58:05.000Z</time>
      </trkpt>
      <trkpt lat="45.23062" lon="5.85387">
        <ele>229.52</ele>
        <time>2021-05-13T13:58:10.000Z</time>
      </trkpt>
      <trkpt lat="45.23088" lon="5.85405">
        <ele>229.25</ele>
        <time>2021-05-13T13:58:15.000Z</time>
      </trkpt>
      <trkpt lat="45.23107" lon="5.85431">
        <ele>227.46</ele>
        <time>2021-05-13T13:58:20.000Z</time>
      </trkpt>
      <trkpt lat="45.23126" lon="5.85445">
        <ele>225.02</ele>
        <time>2021-05-13T13:58:25.000Z</time>
      </trkpt>
      <trkpt lat="45.23143" lon="5.85457">
        <ele>225.9</ele>
        <time>2021-05-13T13:58:30.000Z</time>
      </trkpt>
      <trkpt lat="45.23158" lon="5.8547">
        <ele>220.34</ele>
        <time>2021-05-13T13:58:35.000Z</time>
      </trkpt>
      <trkpt lat="45.23167" lon="5.85473">
        <ele>218.06</ele>
        <time>2021-05-13T14:00:15.000Z</time>
      </trkpt>
      <trkpt lat="45.23183" lon="5.85481">
        <ele>216.2</ele>
        <time>2021-05-13T14:00:20.000Z</time>
      </trkpt>
      <trkpt lat="45.23203" lon="5.85489">
        <ele>214.91</ele>
        <time>2021-05-13T14:00:25.000Z</time>
      </trkpt>
      <trkpt lat="45.23231" lon="5.85493">
        <ele>214.04</ele>
        <time>2021-05-13T14:00:30.000Z</time>
      </trkpt>
      <trkpt lat="45.23257" lon="5.85493">
        <ele>215.6</ele>
        <time>2021-05-13T14:00:35.000Z</time>
      </trkpt>
      <trkpt lat="45.23279" lon="5.85496">
        <ele>215.52</ele>
        <time>2021-05-13T14:00:40.000Z</time>
      </trkpt>
      <trkpt lat="45.23306" lon="5.85499">
        <ele>215.05</ele>
        <time>2021-05-13T14:00:45.000Z</time>
      </trkpt>
      <trkpt lat="45.23329" lon="5.85499">
        <ele>214.01</ele>
        <time>2021-05-13T14:00:50.000Z</time>
      </trkpt>
      <trkpt lat="45.23359" lon="5.85499">
        <ele>215.27</ele>
        <time>2021-05-13T14:00:55.000Z</time>
      </trkpt>
      <trkpt lat="45.23388" lon="5.85503">
        <ele>218.03</ele>
        <time>2021-05-13T14:01:00.000Z</time>
      </trkpt>
      <trkpt lat="45.23422" lon="5.85503">
        <ele>218.7</ele>
        <time>2021-05-13T14:01:05.000Z</time>
      </trkpt>
      <trkpt lat="45.23455" lon="5.85501">
        <ele>218.21</ele>
        <time>2021-05-13T14:01:10.000Z</time>
      </trkpt>
      <trkpt lat="45.23481" lon="5.85505">
        <ele>219.83</ele>
        <time>2021-05-13T14:01:15.000Z</time>
      </trkpt>
      <trkpt lat="45.23514" lon="5.85516">
        <ele>218.04</ele>
        <time>2021-05-13T14:01:20.000Z</time>
      </trkpt>
      <trkpt lat="45.23542" lon="5.85519">
        <ele>218.05</ele>
        <time>2021-05-13T14:01:25.000Z</time>
      </trkpt>
      <trkpt lat="45.2356" lon="5.85496">
        <ele>217.84</ele>
        <time>2021-05-13T14:01:30.000Z</time>
      </trkpt>
      <trkpt lat="45.23572" lon="5.85469">
        <ele>217.49</ele>
        <time>2021-05-13T14:01:35.000Z</time>
      </trkpt>
      <trkpt lat="45.23588" lon="5.85447">
        <ele>215.4</ele>
        <time>2021-05-13T14:01:40.000Z</time>
      </trkpt>
      <trkpt lat="45.2361" lon="5.85446">
        <ele>212.46</ele>
        <time>2021-05-13T14:01:45.000Z</time>
      </trkpt>
      <trkpt lat="45.23636" lon="5.8544">
        <ele>215.2</ele>
        <time>2021-05-13T14:01:50.000Z</time>
      </trkpt>
      <trkpt lat="45.2366" lon="5.85437">
        <ele>215.5</ele>
        <time>2021-05-13T14:01:55.000Z</time>
      </trkpt>
      <trkpt lat="45.23685" lon="5.85433">
        <ele>214.74</ele>
        <time>2021-05-13T14:02:00.000Z</time>
      </trkpt>
      <trkpt lat="45.23713" lon="5.85428">
        <ele>215.84</ele>
        <time>2021-05-13T14:02:05.000Z</time>
      </trkpt>
      <trkpt lat="45.23742" lon="5.85424">
        <ele>216.04</ele>
        <time>2021-05-13T14:02:10.000Z</time>
      </trkpt>
      <trkpt lat="45.2377" lon="5.8542">
        <ele>215.07</ele>
        <time>2021-05-13T14:02:15.000Z</time>
      </trkpt>
      <trkpt lat="45.23799" lon="5.85417">
        <ele>215.41</ele>
        <time>2021-05-13T14:02:20.000Z</time>
      </trkpt>
      <trkpt lat="45.23829" lon="5.85413">
        <ele>216.61</ele>
        <time>2021-05-13T14:02:25.000Z</time>
      </trkpt>
      <trkpt lat="45.23864" lon="5.85407">
        <ele>217.72</ele>
        <time>2021-05-13T14:02:30.000Z</time>
      </trkpt>
      <trkpt lat="45.23892" lon="5.85403">
        <ele>220.06</ele>
        <time>2021-05-13T14:02:35.000Z</time>
      </trkpt>
      <trkpt lat="45.23902" lon="5.85411">
        <ele>220.93</ele>
        <time>2021-05-13T14:02:40.000Z</time>
      </trkpt>
      <trkpt lat="45.23906" lon="5.85427">
        <ele>220.26</ele>
        <time>2021-05-13T14:02:45.000Z</time>
      </trkpt>
      <trkpt lat="45.23912" lon="5.85452">
        <ele>219.35</ele>
        <time>2021-05-13T14:02:50.000Z</time>
      </trkpt>
      <trkpt lat="45.23918" lon="5.85478">
        <ele>220.89</ele>
        <time>2021-05-13T14:02:55.000Z</time>
      </trkpt>
      <trkpt lat="45.23927" lon="5.855">
        <ele>220.47</ele>
        <time>2021-05-13T14:03:00.000Z</time>
      </trkpt>
      <trkpt lat="45.23933" lon="5.85523">
        <ele>219.74</ele>
        <time>2021-05-13T14:03:05.000Z</time>
      </trkpt>
      <trkpt lat="45.23941" lon="5.85549">
        <ele>218.35</ele>
        <time>2021-05-13T14:03:10.000Z</time>
      </trkpt>
      <trkpt lat="45.23949" lon="5.8557">
        <ele>217.47</ele>
        <time>2021-05-13T14:03:15.000Z</time>
      </trkpt>
      <trkpt lat="45.23955" lon="5.85591">
        <ele>216.54</ele>
        <time>2021-05-13T14:03:20.000Z</time>
      </trkpt>
      <trkpt lat="45.23962" lon="5.85604">
        <ele>218.07</ele>
        <time>2021-05-13T14:03:26.000Z</time>
      </trkpt>
      <trkpt lat="45.23968" lon="5.85627">
        <ele>219.87</ele>
        <time>2021-05-13T14:03:31.000Z</time>
      </trkpt>
      <trkpt lat="45.23968" lon="5.8565">
        <ele>219.08</ele>
        <time>2021-05-13T14:03:36.000Z</time>
      </trkpt>
      <trkpt lat="45.23967" lon="5.85671">
        <ele>219.41</ele>
        <time>2021-05-13T14:03:41.000Z</time>
      </trkpt>
      <trkpt lat="45.23962" lon="5.85702">
        <ele>218.84</ele>
        <time>2021-05-13T14:03:46.000Z</time>
      </trkpt>
      <trkpt lat="45.23956" lon="5.85731">
        <ele>215.61</ele>
        <time>2021-05-13T14:03:51.000Z</time>
      </trkpt>
      <trkpt lat="45.23953" lon="5.85765">
        <ele>217.25</ele>
        <time>2021-05-13T14:03:56.000Z</time>
      </trkpt>
      <trkpt lat="45.23947" lon="5.85796">
        <ele>213.65</ele>
        <time>2021-05-13T14:04:01.000Z</time>
      </trkpt>
      <trkpt lat="45.23946" lon="5.85834">
        <ele>214.49</ele>
        <time>2021-05-13T14:04:06.000Z</time>
      </trkpt>
      <trkpt lat="45.23947" lon="5.85871">
        <ele>217.61</ele>
        <time>2021-05-13T14:04:11.000Z</time>
      </trkpt>
      <trkpt lat="45.23948" lon="5.85902">
        <ele>219.5</ele>
        <time>2021-05-13T14:04:16.000Z</time>
      </trkpt>
      <trkpt lat="45.23942" lon="5.85925">
        <ele>217.58</ele>
        <time>2021-05-13T14:04:21.000Z</time>
      </trkpt>
      <trkpt lat="45.23939" lon="5.85951">
        <ele>216.87</ele>
        <time>2021-05-13T14:04:26.000Z</time>
      </trkpt>
      <trkpt lat="45.23934" lon="5.85982">
        <ele>218.72</ele>
        <time>2021-05-13T14:04:31.000Z</time>
      </trkpt>
      <trkpt lat="45.2392" lon="5.86007">
        <ele>217.42</ele>
        <time>2021-05-13T14:04:36.000Z</time>
      </trkpt>
      <trkpt lat="45.23913" lon="5.86036">
        <ele>219.76</ele>
        <time>2021-05-13T14:04:41.000Z</time>
      </trkpt>
      <trkpt lat="45.23901" lon="5.86064">
        <ele>221.25</ele>
        <time>2021-05-13T14:04:46.000Z</time>
      </trkpt>
      <trkpt lat="45.2389" lon="5.86093">
        <ele>220.9</ele>
        <time>2021-05-13T14:04:51.000Z</time>
      </trkpt>
      <trkpt lat="45.2388" lon="5.86124">
        <ele>218.64</ele>
        <time>2021-05-13T14:04:56.000Z</time>
      </trkpt>
      <trkpt lat="45.23861" lon="5.86146">
        <ele>214.77</ele>
        <time>2021-05-13T14:05:01.000Z</time>
      </trkpt>
      <trkpt lat="45.23848" lon="5.86179">
        <ele>214.67</ele>
        <time>2021-05-13T14:05:06.000Z</time>
      </trkpt>
      <trkpt lat="45.23836" lon="5.86209">
        <ele>212.9</ele>
        <time>2021-05-13T14:05:11.000Z</time>
      </trkpt>
      <trkpt lat="45.23829" lon="5.86229">
        <ele>211.31</ele>
        <time>2021-05-13T14:05:16.000Z</time>
      </trkpt>
      <trkpt lat="45.23846" lon="5.86228">
        <ele>208.99</ele>
        <time>2021-05-13T14:05:21.000Z</time>
      </trkpt>
      <trkpt lat="45.23867" lon="5.86211">
        <ele>207.41</ele>
        <time>2021-05-13T14:05:26.000Z</time>
      </trkpt>
      <trkpt lat="45.2388" lon="5.86184">
        <ele>208.17</ele>
        <time>2021-05-13T14:05:31.000Z</time>
      </trkpt>
      <trkpt lat="45.23888" lon="5.8616">
        <ele>208.32</ele>
        <time>2021-05-13T14:05:36.000Z</time>
      </trkpt>
      <trkpt lat="45.23899" lon="5.8613">
        <ele>202.63</ele>
        <time>2021-05-13T14:05:41.000Z</time>
      </trkpt>
      <trkpt lat="45.23913" lon="5.86102">
        <ele>203.27</ele>
        <time>2021-05-13T14:05:46.000Z</time>
      </trkpt>
      <trkpt lat="45.23928" lon="5.86075">
        <ele>208.38</ele>
        <time>2021-05-13T14:05:51.000Z</time>
      </trkpt>
      <trkpt lat="45.23947" lon="5.86047">
        <ele>211.56</ele>
        <time>2021-05-13T14:05:56.000Z</time>
      </trkpt>
      <trkpt lat="45.23963" lon="5.8602">
        <ele>211.86</ele>
        <time>2021-05-13T14:06:01.000Z</time>
      </trkpt>
      <trkpt lat="45.23983" lon="5.85993">
        <ele>212.27</ele>
        <time>2021-05-13T14:06:06.000Z</time>
      </trkpt>
      <trkpt lat="45.23995" lon="5.85969">
        <ele>213.69</ele>
        <time>2021-05-13T14:06:11.000Z</time>
      </trkpt>
      <trkpt lat="45.2401" lon="5.85942">
        <ele>212.16</ele>
        <time>2021-05-13T14:06:16.000Z</time>
      </trkpt>
      <trkpt lat="45.24023" lon="5.85913">
        <ele>211.77</ele>
        <time>2021-05-13T14:06:21.000Z</time>
      </trkpt>
      <trkpt lat="45.2404" lon="5.8589">
        <ele>210.54</ele>
        <time>2021-05-13T14:06:26.000Z</time>
      </trkpt>
      <trkpt lat="45.24052" lon="5.85863">
        <ele>209.71</ele>
        <time>2021-05-13T14:06:31.000Z</time>
      </trkpt>
      <trkpt lat="45.24066" lon="5.85833">
        <ele>211.17</ele>
        <time>2021-05-13T14:06:36.000Z</time>
      </trkpt>
      <trkpt lat="45.24082" lon="5.85799">
        <ele>212.65</ele>
        <time>2021-05-13T14:06:41.000Z</time>
      </trkpt>
      <trkpt lat="45.24096" lon="5.85766">
        <ele>214.16</ele>
        <time>2021-05-13T14:06:46.000Z</time>
      </trkpt>
      <trkpt lat="45.2411" lon="5.85741">
        <ele>215.44</ele>
        <time>2021-05-13T14:06:51.000Z</time>
      </trkpt>
      <trkpt lat="45.24122" lon="5.85758">
        <ele>215.7</ele>
        <time>2021-05-13T14:06:56.000Z</time>
      </trkpt>
      <trkpt lat="45.24132" lon="5.85785">
        <ele>214.4</ele>
        <time>2021-05-13T14:07:01.000Z</time>
      </trkpt>
      <trkpt lat="45.24144" lon="5.85812">
        <ele>216.58</ele>
        <time>2021-05-13T14:07:06.000Z</time>
      </trkpt>
      <trkpt lat="45.24154" lon="5.85841">
        <ele>216.78</ele>
        <time>2021-05-13T14:07:11.000Z</time>
      </trkpt>
      <trkpt lat="45.24171" lon="5.85864">
        <ele>214.86</ele>
        <time>2021-05-13T14:07:16.000Z</time>
      </trkpt>
      <trkpt lat="45.24191" lon="5.85891">
        <ele>214.35</ele>
        <time>2021-05-13T14:07:21.000Z</time>
      </trkpt>
      <trkpt lat="45.2419" lon="5.85933">
        <ele>214.44</ele>
        <time>2021-05-13T14:07:26.000Z</time>
      </trkpt>
      <trkpt lat="45.24208" lon="5.85959">
        <ele>217.22</ele>
        <time>2021-05-13T14:07:31.000Z</time>
      </trkpt>
      <trkpt lat="45.24224" lon="5.8599">
        <ele>218.53</ele>
        <time>2021-05-13T14:07:36.000Z</time>
      </trkpt>
      <trkpt lat="45.24242" lon="5.86025">
        <ele>215.04</ele>
        <time>2021-05-13T14:07:41.000Z</time>
      </trkpt>
      <trkpt lat="45.24252" lon="5.86059">
        <ele>214.64</ele>
        <time>2021-05-13T14:07:46.000Z</time>
      </trkpt>
      <trkpt lat="45.24261" lon="5.86085">
        <ele>211.27</ele>
        <time>2021-05-13T14:07:51.000Z</time>
      </trkpt>
      <trkpt lat="45.24276" lon="5.86117">
        <ele>210.42</ele>
        <time>2021-05-13T14:07:56.000Z</time>
      </trkpt>
      <trkpt lat="45.24299" lon="5.8614">
        <ele>208.31</ele>
        <time>2021-05-13T14:08:01.000Z</time>
      </trkpt>
      <trkpt lat="45.2432" lon="5.86174">
        <ele>214.83</ele>
        <time>2021-05-13T14:08:06.000Z</time>
      </trkpt>
      <trkpt lat="45.24341" lon="5.86206">
        <ele>213.79</ele>
        <time>2021-05-13T14:08:11.000Z</time>
      </trkpt>
      <trkpt lat="45.24356" lon="5.86244">
        <ele>215.54</ele>
        <time>2021-05-13T14:08:16.000Z</time>
      </trkpt>
      <trkpt lat="45.24369" lon="5.86278">
        <ele>213.39</ele>
        <time>2021-05-13T14:08:21.000Z</time>
      </trkpt>
      <trkpt lat="45.24386" lon="5.8631">
        <ele>214.88</ele>
        <time>2021-05-13T14:08:26.000Z</time>
      </trkpt>
      <trkpt lat="45.24406" lon="5.86341">
        <ele>216.75</ele>
        <time>2021-05-13T14:08:31.000Z</time>
      </trkpt>
      <trkpt lat="45.24423" lon="5.86374">
        <ele>216.48</ele>
        <time>2021-05-13T14:08:36.000Z</time>
      </trkpt>
      <trkpt lat="45.24445" lon="5.86403">
        <ele>215.72</ele>
        <time>2021-05-13T14:08:41.000Z</time>
      </trkpt>
      <trkpt lat="45.24468" lon="5.86429">
        <ele>218.72</ele>
        <time>2021-05-13T14:08:46.000Z</time>
      </trkpt>
      <trkpt lat="45.24491" lon="5.86459">
        <ele>218.04</ele>
        <time>2021-05-13T14:08:51.000Z</time>
      </trkpt>
      <trkpt lat="45.24517" lon="5.8648">
        <ele>215.98</ele>
        <time>2021-05-13T14:08:56.000Z</time>
      </trkpt>
      <trkpt lat="45.24539" lon="5.86501">
        <ele>216.05</ele>
        <time>2021-05-13T14:09:01.000Z</time>
      </trkpt>
      <trkpt lat="45.24561" lon="5.86534">
        <ele>216.51</ele>
        <time>2021-05-13T14:09:06.000Z</time>
      </trkpt>
      <trkpt lat="45.24572" lon="5.86566">
        <ele>216.94</ele>
        <time>2021-05-13T14:09:11.000Z</time>
      </trkpt>
      <trkpt lat="45.2458" lon="5.86597">
        <ele>217.19</ele>
        <time>2021-05-13T14:09:16.000Z</time>
      </trkpt>
      <trkpt lat="45.24591" lon="5.86624">
        <ele>221.29</ele>
        <time>2021-05-13T14:09:21.000Z</time>
      </trkpt>
      <trkpt lat="45.24602" lon="5.8665">
        <ele>222.9</ele>
        <time>2021-05-13T14:09:26.000Z</time>
      </trkpt>
      <trkpt lat="45.24618" lon="5.86672">
        <ele>223.23</ele>
        <time>2021-05-13T14:09:31.000Z</time>
      </trkpt>
      <trkpt lat="45.2463" lon="5.86707">
        <ele>220.29</ele>
        <time>2021-05-13T14:09:36.000Z</time>
      </trkpt>
      <trkpt lat="45.24641" lon="5.86739">
        <ele>222.6</ele>
        <time>2021-05-13T14:09:41.000Z</time>
      </trkpt>
      <trkpt lat="45.24662" lon="5.86773">
        <ele>218.76</ele>
        <time>2021-05-13T14:09:46.000Z</time>
      </trkpt>
      <trkpt lat="45.24675" lon="5.86805">
        <ele>219.47</ele>
        <time>2021-05-13T14:09:51.000Z</time>
      </trkpt>
      <trkpt lat="45.24687" lon="5.86833">
        <ele>221.07</ele>
        <time>2021-05-13T14:09:56.000Z</time>
      </trkpt>
      <trkpt lat="45.24702" lon="5.86863">
        <ele>220.54</ele>
        <time>2021-05-13T14:10:01.000Z</time>
      </trkpt>
      <trkpt lat="45.24717" lon="5.86896">
        <ele>222.14</ele>
        <time>2021-05-13T14:10:06.000Z</time>
      </trkpt>
      <trkpt lat="45.24731" lon="5.8693">
        <ele>220.69</ele>
        <time>2021-05-13T14:10:11.000Z</time>
      </trkpt>
      <trkpt lat="45.24746" lon="5.86966">
        <ele>220.28</ele>
        <time>2021-05-13T14:10:16.000Z</time>
      </trkpt>
      <trkpt lat="45.24758" lon="5.86995">
        <ele>221.34</ele>
        <time>2021-05-13T14:10:21.000Z</time>
      </trkpt>
      <trkpt lat="45.24772" lon="5.87025">
        <ele>219.46</ele>
        <time>2021-05-13T14:10:26.000Z</time>
      </trkpt>
      <trkpt lat="45.2479" lon="5.87054">
        <ele>222.4</ele>
        <time>2021-05-13T14:10:31.000Z</time>
      </trkpt>
      <trkpt lat="45.24802" lon="5.8708">
        <ele>221.38</ele>
        <time>2021-05-13T14:10:36.000Z</time>
      </trkpt>
      <trkpt lat="45.24821" lon="5.87109">
        <ele>218.78</ele>
        <time>2021-05-13T14:10:41.000Z</time>
      </trkpt>
      <trkpt lat="45.24834" lon="5.87139">
        <ele>217.41</ele>
        <time>2021-05-13T14:10:46.000Z</time>
      </trkpt>
      <trkpt lat="45.2485" lon="5.87173">
        <ele>217.12</ele>
        <time>2021-05-13T14:10:51.000Z</time>
      </trkpt>
      <trkpt lat="45.24866" lon="5.87206">
        <ele>215.54</ele>
        <time>2021-05-13T14:10:56.000Z</time>
      </trkpt>
      <trkpt lat="45.24883" lon="5.87233">
        <ele>217.51</ele>
        <time>2021-05-13T14:11:01.000Z</time>
      </trkpt>
      <trkpt lat="45.24896" lon="5.8726">
        <ele>218.44</ele>
        <time>2021-05-13T14:11:06.000Z</time>
      </trkpt>
      <trkpt lat="45.24913" lon="5.87287">
        <ele>220.82</ele>
        <time>2021-05-13T14:11:11.000Z</time>
      </trkpt>
      <trkpt lat="45.24926" lon="5.87315">
        <ele>220.94</ele>
        <time>2021-05-13T14:11:16.000Z</time>
      </trkpt>
      <trkpt lat="45.2491" lon="5.87346">
        <ele>220.87</ele>
        <time>2021-05-13T14:11:21.000Z</time>
      </trkpt>
      <trkpt lat="45.24889" lon="5.87376">
        <ele>220.46</ele>
        <time>2021-05-13T14:11:26.000Z</time>
      </trkpt>
      <trkpt lat="45.24869" lon="5.87408">
        <ele>221.44</ele>
        <time>2021-05-13T14:11:31.000Z</time>
      </trkpt>
      <trkpt lat="45.24851" lon="5.87438">
        <ele>219.62</ele>
        <time>2021-05-13T14:11:36.000Z</time>
      </trkpt>
      <trkpt lat="45.2483" lon="5.87466">
        <ele>222.26</ele>
        <time>2021-05-13T14:11:41.000Z</time>
      </trkpt>
      <trkpt lat="45.24813" lon="5.87494">
        <ele>223.59</ele>
        <time>2021-05-13T14:11:46.000Z</time>
      </trkpt>
      <trkpt lat="45.24815" lon="5.8752">
        <ele>219.47</ele>
        <time>2021-05-13T14:11:51.000Z</time>
      </trkpt>
      <trkpt lat="45.24831" lon="5.87522">
        <ele>217.35</ele>
        <time>2021-05-13T14:11:56.000Z</time>
      </trkpt>
      <trkpt lat="45.24852" lon="5.87523">
        <ele>218.26</ele>
        <time>2021-05-13T14:12:01.000Z</time>
      </trkpt>
      <trkpt lat="45.24873" lon="5.87527">
        <ele>222.36</ele>
        <time>2021-05-13T14:12:06.000Z</time>
      </trkpt>
      <trkpt lat="45.24893" lon="5.87527">
        <ele>223.9</ele>
        <time>2021-05-13T14:12:11.000Z</time>
      </trkpt>
      <trkpt lat="45.24916" lon="5.87531">
        <ele>223.64</ele>
        <time>2021-05-13T14:12:16.000Z</time>
      </trkpt>
      <trkpt lat="45.24939" lon="5.87535">
        <ele>223.25</ele>
        <time>2021-05-13T14:12:21.000Z</time>
      </trkpt>
      <trkpt lat="45.2496" lon="5.87529">
        <ele>222.7</ele>
        <time>2021-05-13T14:12:26.000Z</time>
      </trkpt>
      <trkpt lat="45.24975" lon="5.87524">
        <ele>219.34</ele>
        <time>2021-05-13T14:12:31.000Z</time>
      </trkpt>
      <trkpt lat="45.24992" lon="5.87516">
        <ele>223.03</ele>
        <time>2021-05-13T14:12:36.000Z</time>
      </trkpt>
      <trkpt lat="45.25012" lon="5.87504">
        <ele>219.53</ele>
        <time>2021-05-13T14:12:41.000Z</time>
      </trkpt>
      <trkpt lat="45.25031" lon="5.87499">
        <ele>216.23</ele>
        <time>2021-05-13T14:12:46.000Z</time>
      </trkpt>
      <trkpt lat="45.25047" lon="5.87518">
        <ele>216.37</ele>
        <time>2021-05-13T14:12:51.000Z</time>
      </trkpt>
      <trkpt lat="45.25059" lon="5.87542">
        <ele>215.87</ele>
        <time>2021-05-13T14:12:56.000Z</time>
      </trkpt>
      <trkpt lat="45.25074" lon="5.87567">
        <ele>215.02</ele>
        <time>2021-05-13T14:13:01.000Z</time>
      </trkpt>
      <trkpt lat="45.25088" lon="5.87591">
        <ele>218.65</ele>
        <time>2021-05-13T14:13:06.000Z</time>
      </trkpt>
      <trkpt lat="45.25104" lon="5.87614">
        <ele>221.44</ele>
        <time>2021-05-13T14:13:11.000Z</time>
      </trkpt>
      <trkpt lat="45.25119" lon="5.87636">
        <ele>221.26</ele>
        <time>2021-05-13T14:13:16.000Z</time>
      </trkpt>
      <trkpt lat="45.25132" lon="5.8766">
        <ele>222.98</ele>
        <time>2021-05-13T14:13:21.000Z</time>
      </trkpt>
      <trkpt lat="45.25148" lon="5.87683">
        <ele>224.57</ele>
        <time>2021-05-13T14:13:26.000Z</time>
      </trkpt>
      <trkpt lat="45.25164" lon="5.87707">
        <ele>225.06</ele>
        <time>2021-05-13T14:13:31.000Z</time>
      </trkpt>
      <trkpt lat="45.25181" lon="5.87728">
        <ele>228.09</ele>
        <time>2021-05-13T14:13:36.000Z</time>
      </trkpt>
      <trkpt lat="45.252" lon="5.87755">
        <ele>228.09</ele>
        <time>2021-05-13T14:13:41.000Z</time>
      </trkpt>
      <trkpt lat="45.25218" lon="5.87776">
        <ele>227.77</ele>
        <time>2021-05-13T14:13:46.000Z</time>
      </trkpt>
      <trkpt lat="45.25237" lon="5.87798">
        <ele>224.2</ele>
        <time>2021-05-13T14:13:51.000Z</time>
      </trkpt>
      <trkpt lat="45.25257" lon="5.87821">
        <ele>225.46</ele>
        <time>2021-05-13T14:13:56.000Z</time>
      </trkpt>
      <trkpt lat="45.25272" lon="5.87845">
        <ele>227.44</ele>
        <time>2021-05-13T14:14:01.000Z</time>
      </trkpt>
      <trkpt lat="45.25289" lon="5.87867">
        <ele>224.58</ele>
        <time>2021-05-13T14:14:06.000Z</time>
      </trkpt>
      <trkpt lat="45.25305" lon="5.87889">
        <ele>221.61</ele>
        <time>2021-05-13T14:14:11.000Z</time>
      </trkpt>
      <trkpt lat="45.25321" lon="5.87911">
        <ele>223.17</ele>
        <time>2021-05-13T14:14:16.000Z</time>
      </trkpt>
      <trkpt lat="45.25336" lon="5.87934">
        <ele>223.65</ele>
        <time>2021-05-13T14:14:21.000Z</time>
      </trkpt>
      <trkpt lat="45.25354" lon="5.87958">
        <ele>221.59</ele>
        <time>2021-05-13T14:14:26.000Z</time>
      </trkpt>
      <trkpt lat="45.25372" lon="5.87984">
        <ele>222.89</ele>
        <time>2021-05-13T14:14:31.000Z</time>
      </trkpt>
      <trkpt lat="45.25389" lon="5.88008">
        <ele>222.37</ele>
        <time>2021-05-13T14:14:36.000Z</time>
      </trkpt>
      <trkpt lat="45.25404" lon="5.88035">
        <ele>221.12</ele>
        <time>2021-05-13T14:14:41.000Z</time>
      </trkpt>
      <trkpt lat="45.25421" lon="5.88061">
        <ele>222.54</ele>
        <time>2021-05-13T14:14:46.000Z</time>
      </trkpt>
      <trkpt lat="45.25437" lon="5.88085">
        <ele>223.29</ele>
        <time>2021-05-13T14:14:51.000Z</time>
      </trkpt>
      <trkpt lat="45.25455" lon="5.88113">
        <ele>225.48</ele>
        <time>2021-05-13T14:14:56.000Z</time>
      </trkpt>
      <trkpt lat="45.25472" lon="5.88137">
        <ele>225.63</ele>
        <time>2021-05-13T14:15:01.000Z</time>
      </trkpt>
      <trkpt lat="45.25489" lon="5.88163">
        <ele>227.97</ele>
        <time>2021-05-13T14:15:06.000Z</time>
      </trkpt>
      <trkpt lat="45.25504" lon="5.88189">
        <ele>225.85</ele>
        <time>2021-05-13T14:15:11.000Z</time>
      </trkpt>
      <trkpt lat="45.25519" lon="5.88205">
        <ele>223.32</ele>
        <time>2021-05-13T14:15:16.000Z</time>
      </trkpt>
      <trkpt lat="45.25533" lon="5.88223">
        <ele>224.51</ele>
        <time>2021-05-13T14:15:21.000Z</time>
      </trkpt>
      <trkpt lat="45.2555" lon="5.88249">
        <ele>225.92</ele>
        <time>2021-05-13T14:15:26.000Z</time>
      </trkpt>
      <trkpt lat="45.25567" lon="5.88273">
        <ele>225.99</ele>
        <time>2021-05-13T14:15:31.000Z</time>
      </trkpt>
      <trkpt lat="45.2558" lon="5.88298">
        <ele>224.52</ele>
        <time>2021-05-13T14:15:36.000Z</time>
      </trkpt>
      <trkpt lat="45.25589" lon="5.88327">
        <ele>220.95</ele>
        <time>2021-05-13T14:15:41.000Z</time>
      </trkpt>
      <trkpt lat="45.25595" lon="5.88359">
        <ele>221.87</ele>
        <time>2021-05-13T14:15:46.000Z</time>
      </trkpt>
      <trkpt lat="45.25596" lon="5.88387">
        <ele>220.13</ele>
        <time>2021-05-13T14:15:51.000Z</time>
      </trkpt>
      <trkpt lat="45.25595" lon="5.88412">
        <ele>219.61</ele>
        <time>2021-05-13T14:15:56.000Z</time>
      </trkpt>
      <trkpt lat="45.25589" lon="5.88431">
        <ele>217.83</ele>
        <time>2021-05-13T14:16:01.000Z</time>
      </trkpt>
      <trkpt lat="45.25573" lon="5.88427">
        <ele>217.72</ele>
        <time>2021-05-13T14:16:06.000Z</time>
      </trkpt>
      <trkpt lat="45.25559" lon="5.88408">
        <ele>219.1</ele>
        <time>2021-05-13T14:16:11.000Z</time>
      </trkpt>
      <trkpt lat="45.25542" lon="5.88384">
        <ele>221.79</ele>
        <time>2021-05-13T14:16:16.000Z</time>
      </trkpt>
      <trkpt lat="45.25525" lon="5.88363">
        <ele>223.04</ele>
        <time>2021-05-13T14:16:21.000Z</time>
      </trkpt>
      <trkpt lat="45.255" lon="5.88373">
        <ele>224.48</ele>
        <time>2021-05-13T14:16:26.000Z</time>
      </trkpt>
      <trkpt lat="45.25481" lon="5.88394">
        <ele>225.54</ele>
        <time>2021-05-13T14:16:31.000Z</time>
      </trkpt>
      <trkpt lat="45.25464" lon="5.88417">
        <ele>228.49</ele>
        <time>2021-05-13T14:16:36.000Z</time>
      </trkpt>
      <trkpt lat="45.25445" lon="5.88439">
        <ele>229.3</ele>
        <time>2021-05-13T14:16:41.000Z</time>
      </trkpt>
      <trkpt lat="45.25425" lon="5.88462">
        <ele>229.28</ele>
        <time>2021-05-13T14:16:46.000Z</time>
      </trkpt>
      <trkpt lat="45.25406" lon="5.88487">
        <ele>230.55</ele>
        <time>2021-05-13T14:16:51.000Z</time>
      </trkpt>
      <trkpt lat="45.25384" lon="5.88511">
        <ele>226.57</ele>
        <time>2021-05-13T14:16:56.000Z</time>
      </trkpt>
      <trkpt lat="45.25363" lon="5.88531">
        <ele>226.84</ele>
        <time>2021-05-13T14:17:01.000Z</time>
      </trkpt>
      <trkpt lat="45.25348" lon="5.88546">
        <ele>226.54</ele>
        <time>2021-05-13T14:17:06.000Z</time>
      </trkpt>
      <trkpt lat="45.25337" lon="5.88568">
        <ele>224.25</ele>
        <time>2021-05-13T14:17:11.000Z</time>
      </trkpt>
      <trkpt lat="45.25331" lon="5.88578">
        <ele>222</ele>
        <time>2021-05-13T14:17:16.000Z</time>
      </trkpt>
      <trkpt lat="45.25326" lon="5.88592">
        <ele>221.32</ele>
        <time>2021-05-13T14:17:21.000Z</time>
      </trkpt>
      <trkpt lat="45.25313" lon="5.8861">
        <ele>217.83</ele>
        <time>2021-05-13T14:17:26.000Z</time>
      </trkpt>
      <trkpt lat="45.25315" lon="5.88626">
        <ele>216.07</ele>
        <time>2021-05-13T14:17:31.000Z</time>
      </trkpt>
      <trkpt lat="45.25323" lon="5.88634">
        <ele>216.05</ele>
        <time>2021-05-13T14:17:37.000Z</time>
      </trkpt>
      <trkpt lat="45.25334" lon="5.88642">
        <ele>215.66</ele>
        <time>2021-05-13T14:17:42.000Z</time>
      </trkpt>
      <trkpt lat="45.25348" lon="5.88648">
        <ele>212.3</ele>
        <time>2021-05-13T14:17:47.000Z</time>
      </trkpt>
      <trkpt lat="45.25365" lon="5.88659">
        <ele>211.22</ele>
        <time>2021-05-13T14:17:52.000Z</time>
      </trkpt>
      <trkpt lat="45.25384" lon="5.88669">
        <ele>208.3</ele>
        <time>2021-05-13T14:17:57.000Z</time>
      </trkpt>
      <trkpt lat="45.25402" lon="5.88679">
        <ele>207.63</ele>
        <time>2021-05-13T14:18:02.000Z</time>
      </trkpt>
      <trkpt lat="45.25416" lon="5.88689">
        <ele>206.57</ele>
        <time>2021-05-13T14:18:07.000Z</time>
      </trkpt>
      <trkpt lat="45.25433" lon="5.88698">
        <ele>208.44</ele>
        <time>2021-05-13T14:18:12.000Z</time>
      </trkpt>
      <trkpt lat="45.2545" lon="5.88709">
        <ele>209.78</ele>
        <time>2021-05-13T14:18:17.000Z</time>
      </trkpt>
      <trkpt lat="45.25468" lon="5.88715">
        <ele>208.98</ele>
        <time>2021-05-13T14:18:22.000Z</time>
      </trkpt>
      <trkpt lat="45.25488" lon="5.88722">
        <ele>209.21</ele>
        <time>2021-05-13T14:18:27.000Z</time>
      </trkpt>
      <trkpt lat="45.25507" lon="5.88731">
        <ele>209.52</ele>
        <time>2021-05-13T14:18:32.000Z</time>
      </trkpt>
      <trkpt lat="45.25525" lon="5.88743">
        <ele>207.42</ele>
        <time>2021-05-13T14:18:37.000Z</time>
      </trkpt>
      <trkpt lat="45.25548" lon="5.88755">
        <ele>208.13</ele>
        <time>2021-05-13T14:18:42.000Z</time>
      </trkpt>
      <trkpt lat="45.25583" lon="5.88775">
        <ele>205.55</ele>
        <time>2021-05-13T14:18:47.000Z</time>
      </trkpt>
      <trkpt lat="45.256" lon="5.8879">
        <ele>208.12</ele>
        <time>2021-05-13T14:18:52.000Z</time>
      </trkpt>
      <trkpt lat="45.25619" lon="5.88805">
        <ele>210.86</ele>
        <time>2021-05-13T14:18:57.000Z</time>
      </trkpt>
      <trkpt lat="45.25637" lon="5.88821">
        <ele>217.06</ele>
        <time>2021-05-13T14:19:02.000Z</time>
      </trkpt>
      <trkpt lat="45.25658" lon="5.8884">
        <ele>222.26</ele>
        <time>2021-05-13T14:19:07.000Z</time>
      </trkpt>
      <trkpt lat="45.25686" lon="5.88864">
        <ele>220.99</ele>
        <time>2021-05-13T14:19:12.000Z</time>
      </trkpt>
      <trkpt lat="45.25711" lon="5.88881">
        <ele>222.61</ele>
        <time>2021-05-13T14:19:17.000Z</time>
      </trkpt>
      <trkpt lat="45.25736" lon="5.88896">
        <ele>226.01</ele>
        <time>2021-05-13T14:19:22.000Z</time>
      </trkpt>
      <trkpt lat="45.25767" lon="5.88918">
        <ele>227.04</ele>
        <time>2021-05-13T14:19:27.000Z</time>
      </trkpt>
      <trkpt lat="45.25791" lon="5.88935">
        <ele>223.49</ele>
        <time>2021-05-13T14:19:32.000Z</time>
      </trkpt>
      <trkpt lat="45.25807" lon="5.88952">
        <ele>223.46</ele>
        <time>2021-05-13T14:19:37.000Z</time>
      </trkpt>
      <trkpt lat="45.2584" lon="5.88972">
        <ele>217.94</ele>
        <time>2021-05-13T14:19:42.000Z</time>
      </trkpt>
      <trkpt lat="45.25866" lon="5.88998">
        <ele>220.68</ele>
        <time>2021-05-13T14:19:47.000Z</time>
      </trkpt>
      <trkpt lat="45.25887" lon="5.89016">
        <ele>220.93</ele>
        <time>2021-05-13T14:19:52.000Z</time>
      </trkpt>
      <trkpt lat="45.25908" lon="5.89037">
        <ele>220.39</ele>
        <time>2021-05-13T14:19:57.000Z</time>
      </trkpt>
      <trkpt lat="45.2593" lon="5.89057">
        <ele>220.71</ele>
        <time>2021-05-13T14:20:02.000Z</time>
      </trkpt>
      <trkpt lat="45.25947" lon="5.89079">
        <ele>218.28</ele>
        <time>2021-05-13T14:20:07.000Z</time>
      </trkpt>
      <trkpt lat="45.25968" lon="5.89105">
        <ele>219.44</ele>
        <time>2021-05-13T14:20:12.000Z</time>
      </trkpt>
      <trkpt lat="45.25988" lon="5.89129">
        <ele>217.83</ele>
        <time>2021-05-13T14:20:17.000Z</time>
      </trkpt>
      <trkpt lat="45.26005" lon="5.89145">
        <ele>216.93</ele>
        <time>2021-05-13T14:20:22.000Z</time>
      </trkpt>
      <trkpt lat="45.26024" lon="5.89164">
        <ele>219.92</ele>
        <time>2021-05-13T14:20:27.000Z</time>
      </trkpt>
      <trkpt lat="45.26045" lon="5.89181">
        <ele>222.19</ele>
        <time>2021-05-13T14:20:32.000Z</time>
      </trkpt>
      <trkpt lat="45.26068" lon="5.89198">
        <ele>224.67</ele>
        <time>2021-05-13T14:20:37.000Z</time>
      </trkpt>
      <trkpt lat="45.26086" lon="5.89219">
        <ele>225.87</ele>
        <time>2021-05-13T14:20:42.000Z</time>
      </trkpt>
      <trkpt lat="45.26105" lon="5.89241">
        <ele>221.94</ele>
        <time>2021-05-13T14:20:47.000Z</time>
      </trkpt>
      <trkpt lat="45.26128" lon="5.89264">
        <ele>225.02</ele>
        <time>2021-05-13T14:20:52.000Z</time>
      </trkpt>
      <trkpt lat="45.26151" lon="5.89287">
        <ele>225.6</ele>
        <time>2021-05-13T14:20:57.000Z</time>
      </trkpt>
      <trkpt lat="45.26168" lon="5.89311">
        <ele>223.76</ele>
        <time>2021-05-13T14:21:02.000Z</time>
      </trkpt>
      <trkpt lat="45.26182" lon="5.89338">
        <ele>218.82</ele>
        <time>2021-05-13T14:21:07.000Z</time>
      </trkpt>
      <trkpt lat="45.26201" lon="5.89364">
        <ele>215.72</ele>
        <time>2021-05-13T14:21:12.000Z</time>
      </trkpt>
      <trkpt lat="45.26224" lon="5.89401">
        <ele>218.94</ele>
        <time>2021-05-13T14:21:17.000Z</time>
      </trkpt>
      <trkpt lat="45.26237" lon="5.89428">
        <ele>219.14</ele>
        <time>2021-05-13T14:21:22.000Z</time>
      </trkpt>
      <trkpt lat="45.26255" lon="5.89458">
        <ele>218.64</ele>
        <time>2021-05-13T14:21:27.000Z</time>
      </trkpt>
      <trkpt lat="45.26276" lon="5.89483">
        <ele>218.72</ele>
        <time>2021-05-13T14:21:32.000Z</time>
      </trkpt>
      <trkpt lat="45.26297" lon="5.89516">
        <ele>222.25</ele>
        <time>2021-05-13T14:21:37.000Z</time>
      </trkpt>
      <trkpt lat="45.26313" lon="5.89539">
        <ele>224.01</ele>
        <time>2021-05-13T14:21:42.000Z</time>
      </trkpt>
      <trkpt lat="45.26335" lon="5.89569">
        <ele>226.34</ele>
        <time>2021-05-13T14:21:47.000Z</time>
      </trkpt>
      <trkpt lat="45.26355" lon="5.89597">
        <ele>228.92</ele>
        <time>2021-05-13T14:21:52.000Z</time>
      </trkpt>
      <trkpt lat="45.26375" lon="5.8963">
        <ele>231.15</ele>
        <time>2021-05-13T14:21:57.000Z</time>
      </trkpt>
      <trkpt lat="45.26395" lon="5.8966">
        <ele>228.87</ele>
        <time>2021-05-13T14:22:02.000Z</time>
      </trkpt>
      <trkpt lat="45.26416" lon="5.89688">
        <ele>225.97</ele>
        <time>2021-05-13T14:22:07.000Z</time>
      </trkpt>
      <trkpt lat="45.26435" lon="5.8972">
        <ele>225.12</ele>
        <time>2021-05-13T14:22:12.000Z</time>
      </trkpt>
      <trkpt lat="45.26453" lon="5.89751">
        <ele>227.09</ele>
        <time>2021-05-13T14:22:17.000Z</time>
      </trkpt>
      <trkpt lat="45.26473" lon="5.89779">
        <ele>226.68</ele>
        <time>2021-05-13T14:22:22.000Z</time>
      </trkpt>
      <trkpt lat="45.26495" lon="5.89807">
        <ele>227.97</ele>
        <time>2021-05-13T14:22:27.000Z</time>
      </trkpt>
      <trkpt lat="45.2652" lon="5.89839">
        <ele>227.58</ele>
        <time>2021-05-13T14:22:32.000Z</time>
      </trkpt>
      <trkpt lat="45.26535" lon="5.89857">
        <ele>225.35</ele>
        <time>2021-05-13T14:22:37.000Z</time>
      </trkpt>
      <trkpt lat="45.26543" lon="5.89866">
        <ele>227.91</ele>
        <time>2021-05-13T14:22:42.000Z</time>
      </trkpt>
      <trkpt lat="45.26555" lon="5.89875">
        <ele>228.6</ele>
        <time>2021-05-13T14:22:47.000Z</time>
      </trkpt>
      <trkpt lat="45.26546" lon="5.89879">
        <ele>232.47</ele>
        <time>2021-05-13T14:23:07.000Z</time>
      </trkpt>
      <trkpt lat="45.26537" lon="5.89891">
        <ele>232.46</ele>
        <time>2021-05-13T14:23:12.000Z</time>
      </trkpt>
      <trkpt lat="45.26523" lon="5.8991">
        <ele>231.33</ele>
        <time>2021-05-13T14:23:17.000Z</time>
      </trkpt>
      <trkpt lat="45.26507" lon="5.8993">
        <ele>230.37</ele>
        <time>2021-05-13T14:23:22.000Z</time>
      </trkpt>
      <trkpt lat="45.26493" lon="5.8995">
        <ele>230.15</ele>
        <time>2021-05-13T14:23:27.000Z</time>
      </trkpt>
      <trkpt lat="45.2648" lon="5.89965">
        <ele>229.97</ele>
        <time>2021-05-13T14:23:32.000Z</time>
      </trkpt>
      <trkpt lat="45.26463" lon="5.89985">
        <ele>224.85</ele>
        <time>2021-05-13T14:23:37.000Z</time>
      </trkpt>
      <trkpt lat="45.2644" lon="5.89989">
        <ele>224.58</ele>
        <time>2021-05-13T14:23:42.000Z</time>
      </trkpt>
      <trkpt lat="45.26419" lon="5.90011">
        <ele>223.25</ele>
        <time>2021-05-13T14:23:47.000Z</time>
      </trkpt>
      <trkpt lat="45.26414" lon="5.90043">
        <ele>224.25</ele>
        <time>2021-05-13T14:23:52.000Z</time>
      </trkpt>
      <trkpt lat="45.264" lon="5.90062">
        <ele>222.62</ele>
        <time>2021-05-13T14:23:57.000Z</time>
      </trkpt>
      <trkpt lat="45.26385" lon="5.90082">
        <ele>224.26</ele>
        <time>2021-05-13T14:24:02.000Z</time>
      </trkpt>
      <trkpt lat="45.26363" lon="5.90106">
        <ele>224.68</ele>
        <time>2021-05-13T14:24:07.000Z</time>
      </trkpt>
      <trkpt lat="45.26345" lon="5.90125">
        <ele>221.65</ele>
        <time>2021-05-13T14:24:12.000Z</time>
      </trkpt>
      <trkpt lat="45.26325" lon="5.90148">
        <ele>222.22</ele>
        <time>2021-05-13T14:24:17.000Z</time>
      </trkpt>
      <trkpt lat="45.26306" lon="5.90174">
        <ele>218.61</ele>
        <time>2021-05-13T14:24:22.000Z</time>
      </trkpt>
      <trkpt lat="45.26284" lon="5.90196">
        <ele>219.33</ele>
        <time>2021-05-13T14:24:27.000Z</time>
      </trkpt>
      <trkpt lat="45.26265" lon="5.90219">
        <ele>219.63</ele>
        <time>2021-05-13T14:24:32.000Z</time>
      </trkpt>
      <trkpt lat="45.26245" lon="5.90246">
        <ele>222.14</ele>
        <time>2021-05-13T14:24:37.000Z</time>
      </trkpt>
      <trkpt lat="45.26222" lon="5.90269">
        <ele>221.59</ele>
        <time>2021-05-13T14:24:42.000Z</time>
      </trkpt>
      <trkpt lat="45.26203" lon="5.90292">
        <ele>221.63</ele>
        <time>2021-05-13T14:24:47.000Z</time>
      </trkpt>
      <trkpt lat="45.26179" lon="5.90315">
        <ele>219.67</ele>
        <time>2021-05-13T14:24:52.000Z</time>
      </trkpt>
      <trkpt lat="45.26159" lon="5.90334">
        <ele>223.74</ele>
        <time>2021-05-13T14:24:57.000Z</time>
      </trkpt>
      <trkpt lat="45.26142" lon="5.90356">
        <ele>226.33</ele>
        <time>2021-05-13T14:25:02.000Z</time>
      </trkpt>
      <trkpt lat="45.26121" lon="5.90381">
        <ele>227.62</ele>
        <time>2021-05-13T14:25:07.000Z</time>
      </trkpt>
      <trkpt lat="45.26099" lon="5.90405">
        <ele>225.9</ele>
        <time>2021-05-13T14:25:12.000Z</time>
      </trkpt>
      <trkpt lat="45.26083" lon="5.90429">
        <ele>225.73</ele>
        <time>2021-05-13T14:25:17.000Z</time>
      </trkpt>
      <trkpt lat="45.26063" lon="5.90453">
        <ele>229.28</ele>
        <time>2021-05-13T14:25:22.000Z</time>
      </trkpt>
      <trkpt lat="45.26044" lon="5.90475">
        <ele>227.78</ele>
        <time>2021-05-13T14:25:27.000Z</time>
      </trkpt>
      <trkpt lat="45.26024" lon="5.90497">
        <ele>229.85</ele>
        <time>2021-05-13T14:25:32.000Z</time>
      </trkpt>
      <trkpt lat="45.26006" lon="5.90513">
        <ele>230.54</ele>
        <time>2021-05-13T14:25:37.000Z</time>
      </trkpt>
      <trkpt lat="45.25991" lon="5.90533">
        <ele>232.35</ele>
        <time>2021-05-13T14:25:42.000Z</time>
      </trkpt>
      <trkpt lat="45.25975" lon="5.90551">
        <ele>232.65</ele>
        <time>2021-05-13T14:25:47.000Z</time>
      </trkpt>
      <trkpt lat="45.25959" lon="5.90569">
        <ele>231.39</ele>
        <time>2021-05-13T14:25:52.000Z</time>
      </trkpt>
      <trkpt lat="45.25942" lon="5.90585">
        <ele>232.08</ele>
        <time>2021-05-13T14:25:57.000Z</time>
      </trkpt>
      <trkpt lat="45.25925" lon="5.90605">
        <ele>231.01</ele>
        <time>2021-05-13T14:26:02.000Z</time>
      </trkpt>
      <trkpt lat="45.25907" lon="5.90626">
        <ele>230.57</ele>
        <time>2021-05-13T14:26:07.000Z</time>
      </trkpt>
      <trkpt lat="45.25889" lon="5.9065">
        <ele>234.05</ele>
        <time>2021-05-13T14:26:12.000Z</time>
      </trkpt>
      <trkpt lat="45.25872" lon="5.90673">
        <ele>234.51</ele>
        <time>2021-05-13T14:26:17.000Z</time>
      </trkpt>
      <trkpt lat="45.2586" lon="5.90703">
        <ele>234.05</ele>
        <time>2021-05-13T14:26:22.000Z</time>
      </trkpt>
      <trkpt lat="45.25853" lon="5.90732">
        <ele>229.45</ele>
        <time>2021-05-13T14:26:27.000Z</time>
      </trkpt>
      <trkpt lat="45.2585" lon="5.90759">
        <ele>231.76</ele>
        <time>2021-05-13T14:26:32.000Z</time>
      </trkpt>
      <trkpt lat="45.25848" lon="5.90777">
        <ele>233.26</ele>
        <time>2021-05-13T14:26:37.000Z</time>
      </trkpt>
      <trkpt lat="45.25843" lon="5.90797">
        <ele>234.99</ele>
        <time>2021-05-13T14:26:42.000Z</time>
      </trkpt>
      <trkpt lat="45.25845" lon="5.90811">
        <ele>236.39</ele>
        <time>2021-05-13T14:26:48.000Z</time>
      </trkpt>
      <trkpt lat="45.25845" lon="5.90827">
        <ele>237.6</ele>
        <time>2021-05-13T14:26:53.000Z</time>
      </trkpt>
      <trkpt lat="45.25849" lon="5.90845">
        <ele>239.05</ele>
        <time>2021-05-13T14:26:58.000Z</time>
      </trkpt>
      <trkpt lat="45.25859" lon="5.9086">
        <ele>240</ele>
        <time>2021-05-13T14:27:03.000Z</time>
      </trkpt>
      <trkpt lat="45.25878" lon="5.90876">
        <ele>241.98</ele>
        <time>2021-05-13T14:27:08.000Z</time>
      </trkpt>
      <trkpt lat="45.25896" lon="5.90895">
        <ele>240.88</ele>
        <time>2021-05-13T14:27:13.000Z</time>
      </trkpt>
      <trkpt lat="45.25916" lon="5.90915">
        <ele>241.31</ele>
        <time>2021-05-13T14:27:18.000Z</time>
      </trkpt>
      <trkpt lat="45.25937" lon="5.90935">
        <ele>242.64</ele>
        <time>2021-05-13T14:27:23.000Z</time>
      </trkpt>
      <trkpt lat="45.25963" lon="5.90965">
        <ele>240.98</ele>
        <time>2021-05-13T14:27:28.000Z</time>
      </trkpt>
      <trkpt lat="45.25988" lon="5.90992">
        <ele>238.89</ele>
        <time>2021-05-13T14:27:33.000Z</time>
      </trkpt>
      <trkpt lat="45.26013" lon="5.91016">
        <ele>237.19</ele>
        <time>2021-05-13T14:27:38.000Z</time>
      </trkpt>
      <trkpt lat="45.26034" lon="5.91046">
        <ele>233.6</ele>
        <time>2021-05-13T14:27:43.000Z</time>
      </trkpt>
      <trkpt lat="45.26054" lon="5.91065">
        <ele>235.1</ele>
        <time>2021-05-13T14:27:48.000Z</time>
      </trkpt>
      <trkpt lat="45.26069" lon="5.91081">
        <ele>233.78</ele>
        <time>2021-05-13T14:27:53.000Z</time>
      </trkpt>
      <trkpt lat="45.26089" lon="5.91104">
        <ele>236.14</ele>
        <time>2021-05-13T14:27:58.000Z</time>
      </trkpt>
      <trkpt lat="45.2611" lon="5.9113">
        <ele>236.22</ele>
        <time>2021-05-13T14:28:03.000Z</time>
      </trkpt>
      <trkpt lat="45.26137" lon="5.91155">
        <ele>235.49</ele>
        <time>2021-05-13T14:28:08.000Z</time>
      </trkpt>
      <trkpt lat="45.26162" lon="5.91182">
        <ele>233.27</ele>
        <time>2021-05-13T14:28:13.000Z</time>
      </trkpt>
      <trkpt lat="45.26187" lon="5.9121">
        <ele>230.42</ele>
        <time>2021-05-13T14:28:18.000Z</time>
      </trkpt>
      <trkpt lat="45.26212" lon="5.91236">
        <ele>227.49</ele>
        <time>2021-05-13T14:28:23.000Z</time>
      </trkpt>
      <trkpt lat="45.26242" lon="5.91268">
        <ele>224.6</ele>
        <time>2021-05-13T14:28:28.000Z</time>
      </trkpt>
      <trkpt lat="45.26266" lon="5.91289">
        <ele>223.75</ele>
        <time>2021-05-13T14:28:33.000Z</time>
      </trkpt>
      <trkpt lat="45.26289" lon="5.91313">
        <ele>223.19</ele>
        <time>2021-05-13T14:28:38.000Z</time>
      </trkpt>
      <trkpt lat="45.26312" lon="5.91345">
        <ele>219.92</ele>
        <time>2021-05-13T14:28:43.000Z</time>
      </trkpt>
      <trkpt lat="45.26331" lon="5.91369">
        <ele>218</ele>
        <time>2021-05-13T14:28:48.000Z</time>
      </trkpt>
      <trkpt lat="45.26354" lon="5.91389">
        <ele>218.63</ele>
        <time>2021-05-13T14:28:53.000Z</time>
      </trkpt>
      <trkpt lat="45.2638" lon="5.91418">
        <ele>216.84</ele>
        <time>2021-05-13T14:28:58.000Z</time>
      </trkpt>
      <trkpt lat="45.26395" lon="5.91451">
        <ele>216.26</ele>
        <time>2021-05-13T14:29:03.000Z</time>
      </trkpt>
      <trkpt lat="45.26418" lon="5.91468">
        <ele>219.11</ele>
        <time>2021-05-13T14:29:08.000Z</time>
      </trkpt>
      <trkpt lat="45.26442" lon="5.91497">
        <ele>219.22</ele>
        <time>2021-05-13T14:29:13.000Z</time>
      </trkpt>
      <trkpt lat="45.26463" lon="5.91516">
        <ele>220.23</ele>
        <time>2021-05-13T14:29:18.000Z</time>
      </trkpt>
      <trkpt lat="45.26488" lon="5.91543">
        <ele>217.34</ele>
        <time>2021-05-13T14:29:23.000Z</time>
      </trkpt>
      <trkpt lat="45.2651" lon="5.91569">
        <ele>218.66</ele>
        <time>2021-05-13T14:29:28.000Z</time>
      </trkpt>
      <trkpt lat="45.26533" lon="5.91595">
        <ele>215.01</ele>
        <time>2021-05-13T14:29:33.000Z</time>
      </trkpt>
      <trkpt lat="45.26562" lon="5.91623">
        <ele>219.62</ele>
        <time>2021-05-13T14:29:38.000Z</time>
      </trkpt>
      <trkpt lat="45.26589" lon="5.91652">
        <ele>223.08</ele>
        <time>2021-05-13T14:29:43.000Z</time>
      </trkpt>
      <trkpt lat="45.26612" lon="5.91678">
        <ele>219.4</ele>
        <time>2021-05-13T14:29:48.000Z</time>
      </trkpt>
      <trkpt lat="45.26635" lon="5.91709">
        <ele>216.95</ele>
        <time>2021-05-13T14:29:53.000Z</time>
      </trkpt>
      <trkpt lat="45.26657" lon="5.91734">
        <ele>221.35</ele>
        <time>2021-05-13T14:29:58.000Z</time>
      </trkpt>
      <trkpt lat="45.2668" lon="5.91756">
        <ele>221.17</ele>
        <time>2021-05-13T14:30:03.000Z</time>
      </trkpt>
      <trkpt lat="45.26703" lon="5.91777">
        <ele>223.59</ele>
        <time>2021-05-13T14:30:08.000Z</time>
      </trkpt>
      <trkpt lat="45.26722" lon="5.91797">
        <ele>223.49</ele>
        <time>2021-05-13T14:30:13.000Z</time>
      </trkpt>
      <trkpt lat="45.26744" lon="5.9182">
        <ele>220.77</ele>
        <time>2021-05-13T14:30:18.000Z</time>
      </trkpt>
      <trkpt lat="45.26766" lon="5.91845">
        <ele>219.59</ele>
        <time>2021-05-13T14:30:23.000Z</time>
      </trkpt>
      <trkpt lat="45.26792" lon="5.9187">
        <ele>221.02</ele>
        <time>2021-05-13T14:30:28.000Z</time>
      </trkpt>
      <trkpt lat="45.26817" lon="5.91887">
        <ele>221.87</ele>
        <time>2021-05-13T14:30:33.000Z</time>
      </trkpt>
      <trkpt lat="45.26832" lon="5.91911">
        <ele>221.54</ele>
        <time>2021-05-13T14:30:38.000Z</time>
      </trkpt>
      <trkpt lat="45.26853" lon="5.91935">
        <ele>221.55</ele>
        <time>2021-05-13T14:30:43.000Z</time>
      </trkpt>
      <trkpt lat="45.26884" lon="5.91968">
        <ele>220.57</ele>
        <time>2021-05-13T14:30:48.000Z</time>
      </trkpt>
      <trkpt lat="45.26902" lon="5.9199">
        <ele>224.13</ele>
        <time>2021-05-13T14:30:53.000Z</time>
      </trkpt>
      <trkpt lat="45.26922" lon="5.92013">
        <ele>220.82</ele>
        <time>2021-05-13T14:30:58.000Z</time>
      </trkpt>
      <trkpt lat="45.26943" lon="5.92033">
        <ele>220.7</ele>
        <time>2021-05-13T14:31:03.000Z</time>
      </trkpt>
      <trkpt lat="45.26964" lon="5.92054">
        <ele>223.03</ele>
        <time>2021-05-13T14:31:08.000Z</time>
      </trkpt>
      <trkpt lat="45.26985" lon="5.92077">
        <ele>223.39</ele>
        <time>2021-05-13T14:31:13.000Z</time>
      </trkpt>
      <trkpt lat="45.27006" lon="5.92096">
        <ele>219.41</ele>
        <time>2021-05-13T14:31:18.000Z</time>
      </trkpt>
      <trkpt lat="45.27024" lon="5.92121">
        <ele>220.43</ele>
        <time>2021-05-13T14:31:23.000Z</time>
      </trkpt>
      <trkpt lat="45.27045" lon="5.92143">
        <ele>222.36</ele>
        <time>2021-05-13T14:31:28.000Z</time>
      </trkpt>
      <trkpt lat="45.27068" lon="5.9216">
        <ele>224.7</ele>
        <time>2021-05-13T14:31:33.000Z</time>
      </trkpt>
      <trkpt lat="45.27088" lon="5.92183">
        <ele>224.64</ele>
        <time>2021-05-13T14:31:38.000Z</time>
      </trkpt>
      <trkpt lat="45.27109" lon="5.92204">
        <ele>228.03</ele>
        <time>2021-05-13T14:31:43.000Z</time>
      </trkpt>
      <trkpt lat="45.2713" lon="5.92227">
        <ele>226.5</ele>
        <time>2021-05-13T14:31:48.000Z</time>
      </trkpt>
      <trkpt lat="45.27146" lon="5.92242">
        <ele>228.84</ele>
        <time>2021-05-13T14:31:53.000Z</time>
      </trkpt>
      <trkpt lat="45.27168" lon="5.92268">
        <ele>226.42</ele>
        <time>2021-05-13T14:31:58.000Z</time>
      </trkpt>
      <trkpt lat="45.27185" lon="5.92298">
        <ele>222.16</ele>
        <time>2021-05-13T14:32:03.000Z</time>
      </trkpt>
      <trkpt lat="45.27204" lon="5.92312">
        <ele>228.84</ele>
        <time>2021-05-13T14:32:08.000Z</time>
      </trkpt>
      <trkpt lat="45.27221" lon="5.92332">
        <ele>231.39</ele>
        <time>2021-05-13T14:32:13.000Z</time>
      </trkpt>
      <trkpt lat="45.27242" lon="5.92351">
        <ele>231.58</ele>
        <time>2021-05-13T14:32:18.000Z</time>
      </trkpt>
      <trkpt lat="45.27261" lon="5.92374">
        <ele>229.24</ele>
        <time>2021-05-13T14:32:23.000Z</time>
      </trkpt>
      <trkpt lat="45.27275" lon="5.92393">
        <ele>234.93</ele>
        <time>2021-05-13T14:32:28.000Z</time>
      </trkpt>
      <trkpt lat="45.27292" lon="5.92412">
        <ele>236.49</ele>
        <time>2021-05-13T14:32:33.000Z</time>
      </trkpt>
      <trkpt lat="45.27309" lon="5.9243">
        <ele>236.9</ele>
        <time>2021-05-13T14:32:38.000Z</time>
      </trkpt>
      <trkpt lat="45.27331" lon="5.92452">
        <ele>237.85</ele>
        <time>2021-05-13T14:32:43.000Z</time>
      </trkpt>
      <trkpt lat="45.27345" lon="5.92472">
        <ele>242.27</ele>
        <time>2021-05-13T14:32:48.000Z</time>
      </trkpt>
      <trkpt lat="45.27361" lon="5.92493">
        <ele>244.73</ele>
        <time>2021-05-13T14:32:53.000Z</time>
      </trkpt>
      <trkpt lat="45.27376" lon="5.92513">
        <ele>245.75</ele>
        <time>2021-05-13T14:32:58.000Z</time>
      </trkpt>
      <trkpt lat="45.27387" lon="5.92535">
        <ele>246.14</ele>
        <time>2021-05-13T14:33:03.000Z</time>
      </trkpt>
      <trkpt lat="45.27407" lon="5.92545">
        <ele>244</ele>
        <time>2021-05-13T14:33:08.000Z</time>
      </trkpt>
      <trkpt lat="45.27425" lon="5.9256">
        <ele>242.86</ele>
        <time>2021-05-13T14:33:13.000Z</time>
      </trkpt>
      <trkpt lat="45.27443" lon="5.92572">
        <ele>242.02</ele>
        <time>2021-05-13T14:33:18.000Z</time>
      </trkpt>
      <trkpt lat="45.27459" lon="5.92589">
        <ele>240.44</ele>
        <time>2021-05-13T14:33:23.000Z</time>
      </trkpt>
      <trkpt lat="45.27439" lon="5.92616">
        <ele>238.49</ele>
        <time>2021-05-13T14:33:28.000Z</time>
      </trkpt>
      <trkpt lat="45.27426" lon="5.92637">
        <ele>235.58</ele>
        <time>2021-05-13T14:33:33.000Z</time>
      </trkpt>
      <trkpt lat="45.27412" lon="5.92659">
        <ele>233.45</ele>
        <time>2021-05-13T14:33:38.000Z</time>
      </trkpt>
      <trkpt lat="45.27404" lon="5.92678">
        <ele>234.55</ele>
        <time>2021-05-13T14:33:43.000Z</time>
      </trkpt>
      <trkpt lat="45.27396" lon="5.92686">
        <ele>232.39</ele>
        <time>2021-05-13T14:33:48.000Z</time>
      </trkpt>
      <trkpt lat="45.27379" lon="5.92676">
        <ele>231.38</ele>
        <time>2021-05-13T14:33:53.000Z</time>
      </trkpt>
      <trkpt lat="45.27361" lon="5.92665">
        <ele>232.52</ele>
        <time>2021-05-13T14:33:58.000Z</time>
      </trkpt>
      <trkpt lat="45.27349" lon="5.92664">
        <ele>232.81</ele>
        <time>2021-05-13T14:34:03.000Z</time>
      </trkpt>
      <trkpt lat="45.27337" lon="5.92661">
        <ele>230.56</ele>
        <time>2021-05-13T14:34:08.000Z</time>
      </trkpt>
      <trkpt lat="45.27325" lon="5.92646">
        <ele>237.57</ele>
        <time>2021-05-13T14:34:13.000Z</time>
      </trkpt>
      <trkpt lat="45.27315" lon="5.92648">
        <ele>238.11</ele>
        <time>2021-05-13T14:34:19.000Z</time>
      </trkpt>
      <trkpt lat="45.27303" lon="5.92663">
        <ele>234.67</ele>
        <time>2021-05-13T14:34:24.000Z</time>
      </trkpt>
      <trkpt lat="45.27302" lon="5.92685">
        <ele>233.46</ele>
        <time>2021-05-13T14:34:29.000Z</time>
      </trkpt>
      <trkpt lat="45.27299" lon="5.92697">
        <ele>228.62</ele>
        <time>2021-05-13T14:34:34.000Z</time>
      </trkpt>
      <trkpt lat="45.27301" lon="5.92716">
        <ele>224.48</ele>
        <time>2021-05-13T14:34:39.000Z</time>
      </trkpt>
      <trkpt lat="45.27298" lon="5.92749">
        <ele>222.35</ele>
        <time>2021-05-13T14:34:44.000Z</time>
      </trkpt>
      <trkpt lat="45.27298" lon="5.92781">
        <ele>226.1</ele>
        <time>2021-05-13T14:34:49.000Z</time>
      </trkpt>
      <trkpt lat="45.27299" lon="5.92812">
        <ele>229.1</ele>
        <time>2021-05-13T14:34:54.000Z</time>
      </trkpt>
      <trkpt lat="45.27296" lon="5.92844">
        <ele>228.17</ele>
        <time>2021-05-13T14:34:59.000Z</time>
      </trkpt>
      <trkpt lat="45.27302" lon="5.92877">
        <ele>228.27</ele>
        <time>2021-05-13T14:35:04.000Z</time>
      </trkpt>
      <trkpt lat="45.273" lon="5.92904">
        <ele>228.39</ele>
        <time>2021-05-13T14:35:09.000Z</time>
      </trkpt>
      <trkpt lat="45.27299" lon="5.92922">
        <ele>229.73</ele>
        <time>2021-05-13T14:35:14.000Z</time>
      </trkpt>
      <trkpt lat="45.273" lon="5.92935">
        <ele>226.64</ele>
        <time>2021-05-13T14:35:20.000Z</time>
      </trkpt>
      <trkpt lat="45.27302" lon="5.92956">
        <ele>225.62</ele>
        <time>2021-05-13T14:35:25.000Z</time>
      </trkpt>
      <trkpt lat="45.27308" lon="5.92977">
        <ele>225.84</ele>
        <time>2021-05-13T14:35:30.000Z</time>
      </trkpt>
      <trkpt lat="45.27314" lon="5.92993">
        <ele>226.86</ele>
        <time>2021-05-13T14:35:35.000Z</time>
      </trkpt>
      <trkpt lat="45.27314" lon="5.93006">
        <ele>226.45</ele>
        <time>2021-05-13T14:35:41.000Z</time>
      </trkpt>
      <trkpt lat="45.27315" lon="5.9302">
        <ele>226.84</ele>
        <time>2021-05-13T14:35:49.000Z</time>
      </trkpt>
      <trkpt lat="45.27309" lon="5.9303">
        <ele>217.8</ele>
        <time>2021-05-13T14:36:10.000Z</time>
      </trkpt>
      <trkpt lat="45.27301" lon="5.93037">
        <ele>219.76</ele>
        <time>2021-05-13T14:36:17.000Z</time>
      </trkpt>
      <trkpt lat="45.27295" lon="5.93023">
        <ele>225.58</ele>
        <time>2021-05-13T14:38:00.000Z</time>
      </trkpt>
      <trkpt lat="45.27285" lon="5.93001">
        <ele>223.01</ele>
        <time>2021-05-13T14:38:05.000Z</time>
      </trkpt>
      <trkpt lat="45.27273" lon="5.92985">
        <ele>223.86</ele>
        <time>2021-05-13T14:38:10.000Z</time>
      </trkpt>
      <trkpt lat="45.27266" lon="5.92973">
        <ele>225.43</ele>
        <time>2021-05-13T14:38:15.000Z</time>
      </trkpt>
      <trkpt lat="45.27257" lon="5.9296">
        <ele>228.45</ele>
        <time>2021-05-13T14:38:20.000Z</time>
      </trkpt>
      <trkpt lat="45.27248" lon="5.92945">
        <ele>229.1</ele>
        <time>2021-05-13T14:38:25.000Z</time>
      </trkpt>
      <trkpt lat="45.27234" lon="5.92928">
        <ele>230.75</ele>
        <time>2021-05-13T14:38:30.000Z</time>
      </trkpt>
      <trkpt lat="45.2723" lon="5.92915">
        <ele>233.96</ele>
        <time>2021-05-13T14:38:35.000Z</time>
      </trkpt>
      <trkpt lat="45.27236" lon="5.92898">
        <ele>238.2</ele>
        <time>2021-05-13T14:38:40.000Z</time>
      </trkpt>
      <trkpt lat="45.27226" lon="5.92871">
        <ele>250.63</ele>
        <time>2021-05-13T14:38:45.000Z</time>
      </trkpt>
      <trkpt lat="45.27215" lon="5.92841">
        <ele>259.8</ele>
        <time>2021-05-13T14:38:50.000Z</time>
      </trkpt>
      <trkpt lat="45.27203" lon="5.92818">
        <ele>261.63</ele>
        <time>2021-05-13T14:38:55.000Z</time>
      </trkpt>
      <trkpt lat="45.27187" lon="5.92807">
        <ele>262.14</ele>
        <time>2021-05-13T14:39:00.000Z</time>
      </trkpt>
      <trkpt lat="45.27168" lon="5.92806">
        <ele>264.59</ele>
        <time>2021-05-13T14:39:05.000Z</time>
      </trkpt>
      <trkpt lat="45.27153" lon="5.92804">
        <ele>265.35</ele>
        <time>2021-05-13T14:39:10.000Z</time>
      </trkpt>
      <trkpt lat="45.27139" lon="5.92806">
        <ele>266.15</ele>
        <time>2021-05-13T14:39:15.000Z</time>
      </trkpt>
      <trkpt lat="45.2713" lon="5.92796">
        <ele>267.93</ele>
        <time>2021-05-13T14:39:21.000Z</time>
      </trkpt>
      <trkpt lat="45.27126" lon="5.92766">
        <ele>271.42</ele>
        <time>2021-05-13T14:39:26.000Z</time>
      </trkpt>
      <trkpt lat="45.27134" lon="5.92741">
        <ele>274.2</ele>
        <time>2021-05-13T14:39:31.000Z</time>
      </trkpt>
      <trkpt lat="45.27147" lon="5.92726">
        <ele>276.88</ele>
        <time>2021-05-13T14:39:36.000Z</time>
      </trkpt>
      <trkpt lat="45.27149" lon="5.92708">
        <ele>275.53</ele>
        <time>2021-05-13T14:39:41.000Z</time>
      </trkpt>
      <trkpt lat="45.27138" lon="5.92694">
        <ele>275.58</ele>
        <time>2021-05-13T14:39:46.000Z</time>
      </trkpt>
      <trkpt lat="45.27126" lon="5.92683">
        <ele>278.68</ele>
        <time>2021-05-13T14:39:51.000Z</time>
      </trkpt>
      <trkpt lat="45.27111" lon="5.92672">
        <ele>278.37</ele>
        <time>2021-05-13T14:39:56.000Z</time>
      </trkpt>
      <trkpt lat="45.27094" lon="5.92661">
        <ele>281.12</ele>
        <time>2021-05-13T14:40:01.000Z</time>
      </trkpt>
      <trkpt lat="45.27083" lon="5.92653">
        <ele>283.56</ele>
        <time>2021-05-13T14:40:06.000Z</time>
      </trkpt>
      <trkpt lat="45.2707" lon="5.92644">
        <ele>285.22</ele>
        <time>2021-05-13T14:40:11.000Z</time>
      </trkpt>
      <trkpt lat="45.27057" lon="5.92635">
        <ele>287.04</ele>
        <time>2021-05-13T14:40:16.000Z</time>
      </trkpt>
      <trkpt lat="45.27042" lon="5.92627">
        <ele>286.33</ele>
        <time>2021-05-13T14:40:21.000Z</time>
      </trkpt>
      <trkpt lat="45.27027" lon="5.92621">
        <ele>286.88</ele>
        <time>2021-05-13T14:40:26.000Z</time>
      </trkpt>
      <trkpt lat="45.27013" lon="5.92615">
        <ele>288.14</ele>
        <time>2021-05-13T14:40:31.000Z</time>
      </trkpt>
      <trkpt lat="45.26997" lon="5.92608">
        <ele>286.35</ele>
        <time>2021-05-13T14:40:36.000Z</time>
      </trkpt>
      <trkpt lat="45.26982" lon="5.92597">
        <ele>287.48</ele>
        <time>2021-05-13T14:40:41.000Z</time>
      </trkpt>
      <trkpt lat="45.26973" lon="5.92581">
        <ele>288.31</ele>
        <time>2021-05-13T14:40:46.000Z</time>
      </trkpt>
      <trkpt lat="45.26964" lon="5.92566">
        <ele>290.12</ele>
        <time>2021-05-13T14:40:51.000Z</time>
      </trkpt>
      <trkpt lat="45.26952" lon="5.9255">
        <ele>294.81</ele>
        <time>2021-05-13T14:40:56.000Z</time>
      </trkpt>
      <trkpt lat="45.26941" lon="5.92536">
        <ele>298.31</ele>
        <time>2021-05-13T14:41:01.000Z</time>
      </trkpt>
      <trkpt lat="45.26927" lon="5.92522">
        <ele>298.6</ele>
        <time>2021-05-13T14:41:06.000Z</time>
      </trkpt>
      <trkpt lat="45.26911" lon="5.92513">
        <ele>299.78</ele>
        <time>2021-05-13T14:41:11.000Z</time>
      </trkpt>
      <trkpt lat="45.26899" lon="5.92505">
        <ele>303.07</ele>
        <time>2021-05-13T14:41:16.000Z</time>
      </trkpt>
      <trkpt lat="45.26884" lon="5.92491">
        <ele>304.22</ele>
        <time>2021-05-13T14:41:21.000Z</time>
      </trkpt>
      <trkpt lat="45.26873" lon="5.92474">
        <ele>303.17</ele>
        <time>2021-05-13T14:41:26.000Z</time>
      </trkpt>
      <trkpt lat="45.26863" lon="5.92463">
        <ele>301.76</ele>
        <time>2021-05-13T14:41:31.000Z</time>
      </trkpt>
      <trkpt lat="45.2685" lon="5.9245">
        <ele>305.13</ele>
        <time>2021-05-13T14:41:36.000Z</time>
      </trkpt>
      <trkpt lat="45.26839" lon="5.92434">
        <ele>306.18</ele>
        <time>2021-05-13T14:41:41.000Z</time>
      </trkpt>
      <trkpt lat="45.26825" lon="5.92417">
        <ele>311.3</ele>
        <time>2021-05-13T14:41:46.000Z</time>
      </trkpt>
      <trkpt lat="45.26812" lon="5.92403">
        <ele>311.79</ele>
        <time>2021-05-13T14:41:51.000Z</time>
      </trkpt>
      <trkpt lat="45.26796" lon="5.92394">
        <ele>310.78</ele>
        <time>2021-05-13T14:41:56.000Z</time>
      </trkpt>
      <trkpt lat="45.26775" lon="5.92396">
        <ele>312.93</ele>
        <time>2021-05-13T14:42:01.000Z</time>
      </trkpt>
      <trkpt lat="45.26758" lon="5.92408">
        <ele>313.95</ele>
        <time>2021-05-13T14:42:06.000Z</time>
      </trkpt>
      <trkpt lat="45.26744" lon="5.92421">
        <ele>312.5</ele>
        <time>2021-05-13T14:42:11.000Z</time>
      </trkpt>
      <trkpt lat="45.26729" lon="5.9243">
        <ele>314.4</ele>
        <time>2021-05-13T14:42:16.000Z</time>
      </trkpt>
      <trkpt lat="45.2672" lon="5.92439">
        <ele>314.08</ele>
        <time>2021-05-13T14:42:21.000Z</time>
      </trkpt>
      <trkpt lat="45.2671" lon="5.92451">
        <ele>312.01</ele>
        <time>2021-05-13T14:42:26.000Z</time>
      </trkpt>
      <trkpt lat="45.26696" lon="5.92455">
        <ele>312.38</ele>
        <time>2021-05-13T14:42:31.000Z</time>
      </trkpt>
      <trkpt lat="45.26681" lon="5.92437">
        <ele>313.21</ele>
        <time>2021-05-13T14:42:36.000Z</time>
      </trkpt>
      <trkpt lat="45.26678" lon="5.92419">
        <ele>317.62</ele>
        <time>2021-05-13T14:42:41.000Z</time>
      </trkpt>
      <trkpt lat="45.26683" lon="5.92395">
        <ele>317.59</ele>
        <time>2021-05-13T14:42:46.000Z</time>
      </trkpt>
      <trkpt lat="45.26685" lon="5.92372">
        <ele>321.67</ele>
        <time>2021-05-13T14:42:51.000Z</time>
      </trkpt>
      <trkpt lat="45.26685" lon="5.92346">
        <ele>321.35</ele>
        <time>2021-05-13T14:42:56.000Z</time>
      </trkpt>
      <trkpt lat="45.26678" lon="5.92331">
        <ele>322.43</ele>
        <time>2021-05-13T14:43:01.000Z</time>
      </trkpt>
      <trkpt lat="45.26657" lon="5.92327">
        <ele>326.36</ele>
        <time>2021-05-13T14:43:06.000Z</time>
      </trkpt>
      <trkpt lat="45.26637" lon="5.92321">
        <ele>328.59</ele>
        <time>2021-05-13T14:43:11.000Z</time>
      </trkpt>
      <trkpt lat="45.26626" lon="5.92307">
        <ele>329.92</ele>
        <time>2021-05-13T14:43:16.000Z</time>
      </trkpt>
      <trkpt lat="45.26613" lon="5.92296">
        <ele>330.83</ele>
        <time>2021-05-13T14:43:21.000Z</time>
      </trkpt>
      <trkpt lat="45.26602" lon="5.92283">
        <ele>331.84</ele>
        <time>2021-05-13T14:43:26.000Z</time>
      </trkpt>
      <trkpt lat="45.2659" lon="5.92273">
        <ele>332.47</ele>
        <time>2021-05-13T14:43:31.000Z</time>
      </trkpt>
      <trkpt lat="45.26575" lon="5.92258">
        <ele>333.82</ele>
        <time>2021-05-13T14:43:36.000Z</time>
      </trkpt>
      <trkpt lat="45.26564" lon="5.92249">
        <ele>333.54</ele>
        <time>2021-05-13T14:43:41.000Z</time>
      </trkpt>
      <trkpt lat="45.26552" lon="5.92249">
        <ele>338.1</ele>
        <time>2021-05-13T14:43:46.000Z</time>
      </trkpt>
      <trkpt lat="45.2655" lon="5.92273">
        <ele>339.08</ele>
        <time>2021-05-13T14:43:51.000Z</time>
      </trkpt>
      <trkpt lat="45.26567" lon="5.9229">
        <ele>345.86</ele>
        <time>2021-05-13T14:43:56.000Z</time>
      </trkpt>
      <trkpt lat="45.2658" lon="5.92298">
        <ele>350.12</ele>
        <time>2021-05-13T14:44:01.000Z</time>
      </trkpt>
      <trkpt lat="45.26596" lon="5.92312">
        <ele>352.44</ele>
        <time>2021-05-13T14:44:06.000Z</time>
      </trkpt>
      <trkpt lat="45.26609" lon="5.92323">
        <ele>354.61</ele>
        <time>2021-05-13T14:44:11.000Z</time>
      </trkpt>
      <trkpt lat="45.26614" lon="5.92341">
        <ele>350.81</ele>
        <time>2021-05-13T14:44:16.000Z</time>
      </trkpt>
      <trkpt lat="45.26624" lon="5.92362">
        <ele>354.02</ele>
        <time>2021-05-13T14:44:21.000Z</time>
      </trkpt>
      <trkpt lat="45.26629" lon="5.9238">
        <ele>362.32</ele>
        <time>2021-05-13T14:44:26.000Z</time>
      </trkpt>
      <trkpt lat="45.2663" lon="5.92402">
        <ele>365.85</ele>
        <time>2021-05-13T14:44:31.000Z</time>
      </trkpt>
      <trkpt lat="45.26625" lon="5.92424">
        <ele>364.13</ele>
        <time>2021-05-13T14:44:36.000Z</time>
      </trkpt>
      <trkpt lat="45.26623" lon="5.92444">
        <ele>367.06</ele>
        <time>2021-05-13T14:44:41.000Z</time>
      </trkpt>
      <trkpt lat="45.26622" lon="5.92467">
        <ele>365.68</ele>
        <time>2021-05-13T14:44:46.000Z</time>
      </trkpt>
      <trkpt lat="45.26619" lon="5.9249">
        <ele>363.53</ele>
        <time>2021-05-13T14:44:51.000Z</time>
      </trkpt>
      <trkpt lat="45.26616" lon="5.92505">
        <ele>362.23</ele>
        <time>2021-05-13T14:44:56.000Z</time>
      </trkpt>
      <trkpt lat="45.26603" lon="5.92524">
        <ele>362.03</ele>
        <time>2021-05-13T14:45:01.000Z</time>
      </trkpt>
      <trkpt lat="45.2659" lon="5.92537">
        <ele>360.85</ele>
        <time>2021-05-13T14:45:06.000Z</time>
      </trkpt>
      <trkpt lat="45.26582" lon="5.92552">
        <ele>361.31</ele>
        <time>2021-05-13T14:45:11.000Z</time>
      </trkpt>
      <trkpt lat="45.26577" lon="5.92572">
        <ele>361.59</ele>
        <time>2021-05-13T14:45:16.000Z</time>
      </trkpt>
      <trkpt lat="45.26592" lon="5.92591">
        <ele>365.21</ele>
        <time>2021-05-13T14:45:26.000Z</time>
      </trkpt>
      <trkpt lat="45.26611" lon="5.92594">
        <ele>363.65</ele>
        <time>2021-05-13T14:45:31.000Z</time>
      </trkpt>
      <trkpt lat="45.26625" lon="5.92595">
        <ele>364.54</ele>
        <time>2021-05-13T14:45:36.000Z</time>
      </trkpt>
      <trkpt lat="45.26643" lon="5.92597">
        <ele>371.8</ele>
        <time>2021-05-13T14:45:41.000Z</time>
      </trkpt>
      <trkpt lat="45.26658" lon="5.92609">
        <ele>364.6</ele>
        <time>2021-05-13T14:45:46.000Z</time>
      </trkpt>
      <trkpt lat="45.26666" lon="5.92622">
        <ele>363.39</ele>
        <time>2021-05-13T14:45:51.000Z</time>
      </trkpt>
      <trkpt lat="45.2668" lon="5.92639">
        <ele>362.65</ele>
        <time>2021-05-13T14:45:56.000Z</time>
      </trkpt>
      <trkpt lat="45.26695" lon="5.9266">
        <ele>366.3</ele>
        <time>2021-05-13T14:46:01.000Z</time>
      </trkpt>
      <trkpt lat="45.26705" lon="5.92679">
        <ele>369.66</ele>
        <time>2021-05-13T14:46:06.000Z</time>
      </trkpt>
      <trkpt lat="45.26714" lon="5.92696">
        <ele>371.27</ele>
        <time>2021-05-13T14:46:11.000Z</time>
      </trkpt>
      <trkpt lat="45.26721" lon="5.92715">
        <ele>373.22</ele>
        <time>2021-05-13T14:46:16.000Z</time>
      </trkpt>
      <trkpt lat="45.26732" lon="5.92737">
        <ele>377.72</ele>
        <time>2021-05-13T14:46:21.000Z</time>
      </trkpt>
      <trkpt lat="45.26746" lon="5.9276">
        <ele>382.96</ele>
        <time>2021-05-13T14:46:26.000Z</time>
      </trkpt>
      <trkpt lat="45.2676" lon="5.92781">
        <ele>386.09</ele>
        <time>2021-05-13T14:46:31.000Z</time>
      </trkpt>
      <trkpt lat="45.2677" lon="5.92802">
        <ele>388.03</ele>
        <time>2021-05-13T14:46:36.000Z</time>
      </trkpt>
      <trkpt lat="45.26782" lon="5.92821">
        <ele>390.03</ele>
        <time>2021-05-13T14:46:41.000Z</time>
      </trkpt>
      <trkpt lat="45.26795" lon="5.92836">
        <ele>395.42</ele>
        <time>2021-05-13T14:46:46.000Z</time>
      </trkpt>
      <trkpt lat="45.26809" lon="5.92849">
        <ele>397.12</ele>
        <time>2021-05-13T14:46:51.000Z</time>
      </trkpt>
      <trkpt lat="45.26823" lon="5.92862">
        <ele>398.07</ele>
        <time>2021-05-13T14:46:56.000Z</time>
      </trkpt>
      <trkpt lat="45.26835" lon="5.92874">
        <ele>400.17</ele>
        <time>2021-05-13T14:47:01.000Z</time>
      </trkpt>
      <trkpt lat="45.26847" lon="5.92891">
        <ele>403.85</ele>
        <time>2021-05-13T14:47:06.000Z</time>
      </trkpt>
      <trkpt lat="45.26854" lon="5.92913">
        <ele>407.98</ele>
        <time>2021-05-13T14:47:11.000Z</time>
      </trkpt>
      <trkpt lat="45.26856" lon="5.92933">
        <ele>409.89</ele>
        <time>2021-05-13T14:47:16.000Z</time>
      </trkpt>
      <trkpt lat="45.26858" lon="5.92956">
        <ele>409.65</ele>
        <time>2021-05-13T14:47:21.000Z</time>
      </trkpt>
      <trkpt lat="45.26856" lon="5.92978">
        <ele>411.79</ele>
        <time>2021-05-13T14:47:26.000Z</time>
      </trkpt>
      <trkpt lat="45.26851" lon="5.93001">
        <ele>412.45</ele>
        <time>2021-05-13T14:47:31.000Z</time>
      </trkpt>
      <trkpt lat="45.26849" lon="5.93027">
        <ele>414.26</ele>
        <time>2021-05-13T14:47:36.000Z</time>
      </trkpt>
      <trkpt lat="45.26848" lon="5.9305">
        <ele>413.39</ele>
        <time>2021-05-13T14:47:41.000Z</time>
      </trkpt>
      <trkpt lat="45.26854" lon="5.93069">
        <ele>413.07</ele>
        <time>2021-05-13T14:47:46.000Z</time>
      </trkpt>
      <trkpt lat="45.26868" lon="5.93086">
        <ele>415.84</ele>
        <time>2021-05-13T14:47:51.000Z</time>
      </trkpt>
      <trkpt lat="45.26887" lon="5.93099">
        <ele>415.77</ele>
        <time>2021-05-13T14:47:56.000Z</time>
      </trkpt>
      <trkpt lat="45.26902" lon="5.93112">
        <ele>417.6</ele>
        <time>2021-05-13T14:48:01.000Z</time>
      </trkpt>
      <trkpt lat="45.26913" lon="5.93131">
        <ele>419.61</ele>
        <time>2021-05-13T14:48:06.000Z</time>
      </trkpt>
      <trkpt lat="45.26922" lon="5.9315">
        <ele>419.12</ele>
        <time>2021-05-13T14:48:11.000Z</time>
      </trkpt>
      <trkpt lat="45.26927" lon="5.93167">
        <ele>417.96</ele>
        <time>2021-05-13T14:48:16.000Z</time>
      </trkpt>
      <trkpt lat="45.26925" lon="5.93181">
        <ele>420.36</ele>
        <time>2021-05-13T14:48:21.000Z</time>
      </trkpt>
      <trkpt lat="45.26922" lon="5.93201">
        <ele>421.7</ele>
        <time>2021-05-13T14:48:26.000Z</time>
      </trkpt>
      <trkpt lat="45.26916" lon="5.93223">
        <ele>423.29</ele>
        <time>2021-05-13T14:48:31.000Z</time>
      </trkpt>
      <trkpt lat="45.26915" lon="5.93248">
        <ele>422.18</ele>
        <time>2021-05-13T14:48:36.000Z</time>
      </trkpt>
      <trkpt lat="45.2691" lon="5.93268">
        <ele>422.11</ele>
        <time>2021-05-13T14:48:41.000Z</time>
      </trkpt>
      <trkpt lat="45.26904" lon="5.93292">
        <ele>427.79</ele>
        <time>2021-05-13T14:48:46.000Z</time>
      </trkpt>
      <trkpt lat="45.26907" lon="5.93315">
        <ele>427.81</ele>
        <time>2021-05-13T14:48:51.000Z</time>
      </trkpt>
      <trkpt lat="45.26915" lon="5.93337">
        <ele>427.88</ele>
        <time>2021-05-13T14:48:56.000Z</time>
      </trkpt>
      <trkpt lat="45.26928" lon="5.93359">
        <ele>431.13</ele>
        <time>2021-05-13T14:49:01.000Z</time>
      </trkpt>
      <trkpt lat="45.26934" lon="5.93385">
        <ele>431.27</ele>
        <time>2021-05-13T14:49:06.000Z</time>
      </trkpt>
      <trkpt lat="45.26936" lon="5.93404">
        <ele>430.1</ele>
        <time>2021-05-13T14:49:11.000Z</time>
      </trkpt>
      <trkpt lat="45.26938" lon="5.93429">
        <ele>432.08</ele>
        <time>2021-05-13T14:49:16.000Z</time>
      </trkpt>
      <trkpt lat="45.2694" lon="5.93455">
        <ele>434.42</ele>
        <time>2021-05-13T14:49:21.000Z</time>
      </trkpt>
      <trkpt lat="45.26942" lon="5.93478">
        <ele>436.68</ele>
        <time>2021-05-13T14:49:26.000Z</time>
      </trkpt>
      <trkpt lat="45.26948" lon="5.93503">
        <ele>439.59</ele>
        <time>2021-05-13T14:49:31.000Z</time>
      </trkpt>
      <trkpt lat="45.26953" lon="5.93523">
        <ele>446.51</ele>
        <time>2021-05-13T14:49:36.000Z</time>
      </trkpt>
      <trkpt lat="45.2696" lon="5.93541">
        <ele>446.78</ele>
        <time>2021-05-13T14:49:41.000Z</time>
      </trkpt>
      <trkpt lat="45.26964" lon="5.93564">
        <ele>448.5</ele>
        <time>2021-05-13T14:49:46.000Z</time>
      </trkpt>
      <trkpt lat="45.26968" lon="5.93583">
        <ele>448.2</ele>
        <time>2021-05-13T14:49:51.000Z</time>
      </trkpt>
      <trkpt lat="45.26971" lon="5.93601">
        <ele>449.41</ele>
        <time>2021-05-13T14:49:56.000Z</time>
      </trkpt>
      <trkpt lat="45.26964" lon="5.93627">
        <ele>451.14</ele>
        <time>2021-05-13T14:50:01.000Z</time>
      </trkpt>
      <trkpt lat="45.26971" lon="5.93649">
        <ele>453.36</ele>
        <time>2021-05-13T14:50:06.000Z</time>
      </trkpt>
      <trkpt lat="45.26982" lon="5.93665">
        <ele>452.6</ele>
        <time>2021-05-13T14:50:11.000Z</time>
      </trkpt>
      <trkpt lat="45.26991" lon="5.93681">
        <ele>449.56</ele>
        <time>2021-05-13T14:50:16.000Z</time>
      </trkpt>
      <trkpt lat="45.27001" lon="5.93703">
        <ele>456.09</ele>
        <time>2021-05-13T14:50:21.000Z</time>
      </trkpt>
      <trkpt lat="45.26997" lon="5.93722">
        <ele>456.66</ele>
        <time>2021-05-13T14:50:26.000Z</time>
      </trkpt>
      <trkpt lat="45.26989" lon="5.93704">
        <ele>459.99</ele>
        <time>2021-05-13T14:50:31.000Z</time>
      </trkpt>
      <trkpt lat="45.26983" lon="5.93688">
        <ele>459.82</ele>
        <time>2021-05-13T14:50:36.000Z</time>
      </trkpt>
      <trkpt lat="45.26975" lon="5.93677">
        <ele>459.94</ele>
        <time>2021-05-13T14:50:41.000Z</time>
      </trkpt>
      <trkpt lat="45.26961" lon="5.93664">
        <ele>460.95</ele>
        <time>2021-05-13T14:50:46.000Z</time>
      </trkpt>
      <trkpt lat="45.2695" lon="5.93648">
        <ele>463.42</ele>
        <time>2021-05-13T14:50:51.000Z</time>
      </trkpt>
      <trkpt lat="45.26939" lon="5.93624">
        <ele>471.16</ele>
        <time>2021-05-13T14:50:56.000Z</time>
      </trkpt>
      <trkpt lat="45.26926" lon="5.93606">
        <ele>476.57</ele>
        <time>2021-05-13T14:51:01.000Z</time>
      </trkpt>
      <trkpt lat="45.26918" lon="5.93584">
        <ele>484</ele>
        <time>2021-05-13T14:51:06.000Z</time>
      </trkpt>
      <trkpt lat="45.26912" lon="5.93562">
        <ele>485.14</ele>
        <time>2021-05-13T14:51:11.000Z</time>
      </trkpt>
      <trkpt lat="45.26905" lon="5.93539">
        <ele>487.07</ele>
        <time>2021-05-13T14:51:16.000Z</time>
      </trkpt>
      <trkpt lat="45.26899" lon="5.93521">
        <ele>486.04</ele>
        <time>2021-05-13T14:51:21.000Z</time>
      </trkpt>
      <trkpt lat="45.26883" lon="5.93507">
        <ele>486.17</ele>
        <time>2021-05-13T14:51:26.000Z</time>
      </trkpt>
      <trkpt lat="45.26872" lon="5.93515">
        <ele>487.44</ele>
        <time>2021-05-13T14:51:31.000Z</time>
      </trkpt>
      <trkpt lat="45.26877" lon="5.93537">
        <ele>490.32</ele>
        <time>2021-05-13T14:51:36.000Z</time>
      </trkpt>
      <trkpt lat="45.26885" lon="5.93551">
        <ele>494.4</ele>
        <time>2021-05-13T14:51:41.000Z</time>
      </trkpt>
      <trkpt lat="45.2689" lon="5.93571">
        <ele>494.11</ele>
        <time>2021-05-13T14:51:46.000Z</time>
      </trkpt>
      <trkpt lat="45.26892" lon="5.93591">
        <ele>495.04</ele>
        <time>2021-05-13T14:51:51.000Z</time>
      </trkpt>
      <trkpt lat="45.26902" lon="5.93616">
        <ele>495.74</ele>
        <time>2021-05-13T14:51:56.000Z</time>
      </trkpt>
      <trkpt lat="45.26906" lon="5.9364">
        <ele>495.93</ele>
        <time>2021-05-13T14:52:01.000Z</time>
      </trkpt>
      <trkpt lat="45.26908" lon="5.93665">
        <ele>498.82</ele>
        <time>2021-05-13T14:52:06.000Z</time>
      </trkpt>
      <trkpt lat="45.26908" lon="5.93683">
        <ele>497.77</ele>
        <time>2021-05-13T14:52:11.000Z</time>
      </trkpt>
      <trkpt lat="45.26907" lon="5.93704">
        <ele>494.79</ele>
        <time>2021-05-13T14:52:16.000Z</time>
      </trkpt>
      <trkpt lat="45.26912" lon="5.93731">
        <ele>496.76</ele>
        <time>2021-05-13T14:52:21.000Z</time>
      </trkpt>
      <trkpt lat="45.26921" lon="5.93754">
        <ele>497.96</ele>
        <time>2021-05-13T14:52:26.000Z</time>
      </trkpt>
      <trkpt lat="45.2692" lon="5.93779">
        <ele>499.06</ele>
        <time>2021-05-13T14:52:31.000Z</time>
      </trkpt>
      <trkpt lat="45.26917" lon="5.93799">
        <ele>500.86</ele>
        <time>2021-05-13T14:52:36.000Z</time>
      </trkpt>
      <trkpt lat="45.2691" lon="5.93823">
        <ele>501.53</ele>
        <time>2021-05-13T14:52:41.000Z</time>
      </trkpt>
      <trkpt lat="45.26901" lon="5.93844">
        <ele>499.96</ele>
        <time>2021-05-13T14:52:46.000Z</time>
      </trkpt>
      <trkpt lat="45.2689" lon="5.93858">
        <ele>499.26</ele>
        <time>2021-05-13T14:52:51.000Z</time>
      </trkpt>
      <trkpt lat="45.26883" lon="5.93877">
        <ele>501.12</ele>
        <time>2021-05-13T14:52:56.000Z</time>
      </trkpt>
      <trkpt lat="45.26879" lon="5.93905">
        <ele>503.2</ele>
        <time>2021-05-13T14:53:01.000Z</time>
      </trkpt>
      <trkpt lat="45.26887" lon="5.93911">
        <ele>500.44</ele>
        <time>2021-05-13T14:53:29.000Z</time>
      </trkpt>
      <trkpt lat="45.26877" lon="5.93916">
        <ele>522.46</ele>
        <time>2021-05-13T14:55:02.000Z</time>
      </trkpt>
      <trkpt lat="45.2687" lon="5.93935">
        <ele>521.53</ele>
        <time>2021-05-13T14:55:07.000Z</time>
      </trkpt>
      <trkpt lat="45.26868" lon="5.93959">
        <ele>522.79</ele>
        <time>2021-05-13T14:55:12.000Z</time>
      </trkpt>
      <trkpt lat="45.26865" lon="5.93981">
        <ele>522.94</ele>
        <time>2021-05-13T14:55:17.000Z</time>
      </trkpt>
      <trkpt lat="45.26861" lon="5.94003">
        <ele>522.8</ele>
        <time>2021-05-13T14:55:22.000Z</time>
      </trkpt>
      <trkpt lat="45.26851" lon="5.94022">
        <ele>521.24</ele>
        <time>2021-05-13T14:55:27.000Z</time>
      </trkpt>
      <trkpt lat="45.26844" lon="5.94044">
        <ele>521.36</ele>
        <time>2021-05-13T14:55:32.000Z</time>
      </trkpt>
      <trkpt lat="45.26834" lon="5.94064">
        <ele>521.28</ele>
        <time>2021-05-13T14:55:37.000Z</time>
      </trkpt>
      <trkpt lat="45.2683" lon="5.94083">
        <ele>520.21</ele>
        <time>2021-05-13T14:55:42.000Z</time>
      </trkpt>
      <trkpt lat="45.26826" lon="5.94105">
        <ele>522.98</ele>
        <time>2021-05-13T14:55:47.000Z</time>
      </trkpt>
      <trkpt lat="45.26825" lon="5.94129">
        <ele>524.79</ele>
        <time>2021-05-13T14:55:52.000Z</time>
      </trkpt>
      <trkpt lat="45.26819" lon="5.94153">
        <ele>527.01</ele>
        <time>2021-05-13T14:55:57.000Z</time>
      </trkpt>
      <trkpt lat="45.26811" lon="5.94174">
        <ele>532.31</ele>
        <time>2021-05-13T14:56:02.000Z</time>
      </trkpt>
      <trkpt lat="45.26802" lon="5.94192">
        <ele>535.68</ele>
        <time>2021-05-13T14:56:07.000Z</time>
      </trkpt>
      <trkpt lat="45.2679" lon="5.94203">
        <ele>534.45</ele>
        <time>2021-05-13T14:56:12.000Z</time>
      </trkpt>
      <trkpt lat="45.26776" lon="5.94217">
        <ele>533.33</ele>
        <time>2021-05-13T14:56:17.000Z</time>
      </trkpt>
      <trkpt lat="45.26761" lon="5.94231">
        <ele>532.59</ele>
        <time>2021-05-13T14:56:22.000Z</time>
      </trkpt>
      <trkpt lat="45.26752" lon="5.94249">
        <ele>536.82</ele>
        <time>2021-05-13T14:56:27.000Z</time>
      </trkpt>
      <trkpt lat="45.2674" lon="5.94267">
        <ele>536.71</ele>
        <time>2021-05-13T14:56:32.000Z</time>
      </trkpt>
      <trkpt lat="45.26729" lon="5.94278">
        <ele>538.31</ele>
        <time>2021-05-13T14:56:37.000Z</time>
      </trkpt>
      <trkpt lat="45.26716" lon="5.94284">
        <ele>537.44</ele>
        <time>2021-05-13T14:56:42.000Z</time>
      </trkpt>
      <trkpt lat="45.267" lon="5.94287">
        <ele>534.3</ele>
        <time>2021-05-13T14:56:47.000Z</time>
      </trkpt>
      <trkpt lat="45.26683" lon="5.94286">
        <ele>532.56</ele>
        <time>2021-05-13T14:56:52.000Z</time>
      </trkpt>
      <trkpt lat="45.26668" lon="5.94282">
        <ele>531.32</ele>
        <time>2021-05-13T14:56:57.000Z</time>
      </trkpt>
      <trkpt lat="45.2665" lon="5.94274">
        <ele>531.22</ele>
        <time>2021-05-13T14:57:02.000Z</time>
      </trkpt>
      <trkpt lat="45.26637" lon="5.94283">
        <ele>532.27</ele>
        <time>2021-05-13T14:57:07.000Z</time>
      </trkpt>
      <trkpt lat="45.26642" lon="5.94295">
        <ele>538.54</ele>
        <time>2021-05-13T14:57:15.000Z</time>
      </trkpt>
      <trkpt lat="45.26649" lon="5.9431">
        <ele>541.67</ele>
        <time>2021-05-13T14:57:20.000Z</time>
      </trkpt>
      <trkpt lat="45.26668" lon="5.94341">
        <ele>545.23</ele>
        <time>2021-05-13T14:57:25.000Z</time>
      </trkpt>
      <trkpt lat="45.26684" lon="5.94363">
        <ele>547.72</ele>
        <time>2021-05-13T14:57:30.000Z</time>
      </trkpt>
      <trkpt lat="45.267" lon="5.94367">
        <ele>549.4</ele>
        <time>2021-05-13T14:57:35.000Z</time>
      </trkpt>
      <trkpt lat="45.26719" lon="5.94377">
        <ele>550.62</ele>
        <time>2021-05-13T14:57:40.000Z</time>
      </trkpt>
      <trkpt lat="45.26725" lon="5.94402">
        <ele>551.08</ele>
        <time>2021-05-13T14:57:45.000Z</time>
      </trkpt>
      <trkpt lat="45.26722" lon="5.94427">
        <ele>554.6</ele>
        <time>2021-05-13T14:57:50.000Z</time>
      </trkpt>
      <trkpt lat="45.26718" lon="5.94452">
        <ele>557.17</ele>
        <time>2021-05-13T14:57:55.000Z</time>
      </trkpt>
      <trkpt lat="45.26722" lon="5.94478">
        <ele>558.56</ele>
        <time>2021-05-13T14:58:00.000Z</time>
      </trkpt>
      <trkpt lat="45.26731" lon="5.94502">
        <ele>561.77</ele>
        <time>2021-05-13T14:58:05.000Z</time>
      </trkpt>
      <trkpt lat="45.26733" lon="5.94526">
        <ele>565.19</ele>
        <time>2021-05-13T14:58:10.000Z</time>
      </trkpt>
      <trkpt lat="45.26726" lon="5.94547">
        <ele>568</ele>
        <time>2021-05-13T14:58:15.000Z</time>
      </trkpt>
      <trkpt lat="45.26722" lon="5.94567">
        <ele>568.98</ele>
        <time>2021-05-13T14:58:20.000Z</time>
      </trkpt>
      <trkpt lat="45.26727" lon="5.94592">
        <ele>570.54</ele>
        <time>2021-05-13T14:58:25.000Z</time>
      </trkpt>
      <trkpt lat="45.2673" lon="5.94614">
        <ele>571.2</ele>
        <time>2021-05-13T14:58:30.000Z</time>
      </trkpt>
      <trkpt lat="45.2673" lon="5.94633">
        <ele>570.52</ele>
        <time>2021-05-13T14:58:35.000Z</time>
      </trkpt>
      <trkpt lat="45.26732" lon="5.94655">
        <ele>576.32</ele>
        <time>2021-05-13T14:58:40.000Z</time>
      </trkpt>
      <trkpt lat="45.26738" lon="5.94678">
        <ele>580.78</ele>
        <time>2021-05-13T14:58:45.000Z</time>
      </trkpt>
      <trkpt lat="45.26742" lon="5.94703">
        <ele>581.92</ele>
        <time>2021-05-13T14:58:50.000Z</time>
      </trkpt>
      <trkpt lat="45.26744" lon="5.94723">
        <ele>584.54</ele>
        <time>2021-05-13T14:58:55.000Z</time>
      </trkpt>
      <trkpt lat="45.26749" lon="5.94745">
        <ele>589.21</ele>
        <time>2021-05-13T14:59:00.000Z</time>
      </trkpt>
      <trkpt lat="45.26754" lon="5.9476">
        <ele>592.57</ele>
        <time>2021-05-13T14:59:05.000Z</time>
      </trkpt>
      <trkpt lat="45.26754" lon="5.94784">
        <ele>593.37</ele>
        <time>2021-05-13T14:59:10.000Z</time>
      </trkpt>
      <trkpt lat="45.26751" lon="5.94799">
        <ele>596.84</ele>
        <time>2021-05-13T14:59:15.000Z</time>
      </trkpt>
      <trkpt lat="45.26751" lon="5.94827">
        <ele>599.12</ele>
        <time>2021-05-13T14:59:20.000Z</time>
      </trkpt>
      <trkpt lat="45.26755" lon="5.94853">
        <ele>602.01</ele>
        <time>2021-05-13T14:59:25.000Z</time>
      </trkpt>
      <trkpt lat="45.26759" lon="5.94873">
        <ele>600.74</ele>
        <time>2021-05-13T14:59:30.000Z</time>
      </trkpt>
      <trkpt lat="45.26764" lon="5.94897">
        <ele>598.83</ele>
        <time>2021-05-13T14:59:35.000Z</time>
      </trkpt>
      <trkpt lat="45.26763" lon="5.94915">
        <ele>599.15</ele>
        <time>2021-05-13T14:59:40.000Z</time>
      </trkpt>
      <trkpt lat="45.26773" lon="5.9494">
        <ele>601.79</ele>
        <time>2021-05-13T14:59:45.000Z</time>
      </trkpt>
      <trkpt lat="45.26773" lon="5.94968">
        <ele>605.36</ele>
        <time>2021-05-13T14:59:50.000Z</time>
      </trkpt>
      <trkpt lat="45.26773" lon="5.94994">
        <ele>609.79</ele>
        <time>2021-05-13T14:59:55.000Z</time>
      </trkpt>
      <trkpt lat="45.26771" lon="5.95019">
        <ele>610.93</ele>
        <time>2021-05-13T15:00:00.000Z</time>
      </trkpt>
      <trkpt lat="45.26769" lon="5.95042">
        <ele>611.37</ele>
        <time>2021-05-13T15:00:05.000Z</time>
      </trkpt>
      <trkpt lat="45.26767" lon="5.95063">
        <ele>612.87</ele>
        <time>2021-05-13T15:00:10.000Z</time>
      </trkpt>
      <trkpt lat="45.26764" lon="5.95087">
        <ele>616.55</ele>
        <time>2021-05-13T15:00:15.000Z</time>
      </trkpt>
      <trkpt lat="45.2676" lon="5.9511">
        <ele>614.7</ele>
        <time>2021-05-13T15:00:20.000Z</time>
      </trkpt>
      <trkpt lat="45.26754" lon="5.95133">
        <ele>613.55</ele>
        <time>2021-05-13T15:00:25.000Z</time>
      </trkpt>
      <trkpt lat="45.26752" lon="5.95157">
        <ele>612.9</ele>
        <time>2021-05-13T15:00:30.000Z</time>
      </trkpt>
      <trkpt lat="45.26747" lon="5.95176">
        <ele>614.35</ele>
        <time>2021-05-13T15:00:35.000Z</time>
      </trkpt>
      <trkpt lat="45.26741" lon="5.95194">
        <ele>615.73</ele>
        <time>2021-05-13T15:00:40.000Z</time>
      </trkpt>
      <trkpt lat="45.26735" lon="5.95212">
        <ele>616.24</ele>
        <time>2021-05-13T15:00:45.000Z</time>
      </trkpt>
      <trkpt lat="45.26727" lon="5.95229">
        <ele>617.08</ele>
        <time>2021-05-13T15:00:50.000Z</time>
      </trkpt>
      <trkpt lat="45.26717" lon="5.95247">
        <ele>616.96</ele>
        <time>2021-05-13T15:00:55.000Z</time>
      </trkpt>
      <trkpt lat="45.26705" lon="5.95266">
        <ele>616.2</ele>
        <time>2021-05-13T15:01:00.000Z</time>
      </trkpt>
      <trkpt lat="45.26697" lon="5.95286">
        <ele>619.88</ele>
        <time>2021-05-13T15:01:05.000Z</time>
      </trkpt>
      <trkpt lat="45.26701" lon="5.95309">
        <ele>621.9</ele>
        <time>2021-05-13T15:01:10.000Z</time>
      </trkpt>
      <trkpt lat="45.26703" lon="5.95334">
        <ele>619.34</ele>
        <time>2021-05-13T15:01:15.000Z</time>
      </trkpt>
      <trkpt lat="45.26699" lon="5.95351">
        <ele>616.94</ele>
        <time>2021-05-13T15:01:20.000Z</time>
      </trkpt>
      <trkpt lat="45.2669" lon="5.95371">
        <ele>619.48</ele>
        <time>2021-05-13T15:01:25.000Z</time>
      </trkpt>
      <trkpt lat="45.26686" lon="5.95393">
        <ele>617.28</ele>
        <time>2021-05-13T15:01:30.000Z</time>
      </trkpt>
      <trkpt lat="45.26698" lon="5.95408">
        <ele>618.5</ele>
        <time>2021-05-13T15:01:35.000Z</time>
      </trkpt>
      <trkpt lat="45.26716" lon="5.95416">
        <ele>619.33</ele>
        <time>2021-05-13T15:01:40.000Z</time>
      </trkpt>
      <trkpt lat="45.26735" lon="5.9542">
        <ele>618.67</ele>
        <time>2021-05-13T15:01:45.000Z</time>
      </trkpt>
      <trkpt lat="45.26752" lon="5.95433">
        <ele>624.27</ele>
        <time>2021-05-13T15:01:50.000Z</time>
      </trkpt>
      <trkpt lat="45.26761" lon="5.95451">
        <ele>628.21</ele>
        <time>2021-05-13T15:01:55.000Z</time>
      </trkpt>
      <trkpt lat="45.26767" lon="5.95472">
        <ele>628.37</ele>
        <time>2021-05-13T15:02:00.000Z</time>
      </trkpt>
      <trkpt lat="45.26758" lon="5.9549">
        <ele>629.32</ele>
        <time>2021-05-13T15:02:05.000Z</time>
      </trkpt>
      <trkpt lat="45.26739" lon="5.95482">
        <ele>629.8</ele>
        <time>2021-05-13T15:02:10.000Z</time>
      </trkpt>
      <trkpt lat="45.26732" lon="5.95471">
        <ele>630.9</ele>
        <time>2021-05-13T15:02:15.000Z</time>
      </trkpt>
      <trkpt lat="45.26722" lon="5.95472">
        <ele>632.38</ele>
        <time>2021-05-13T15:03:10.000Z</time>
      </trkpt>
      <trkpt lat="45.26713" lon="5.95492">
        <ele>635.32</ele>
        <time>2021-05-13T15:03:15.000Z</time>
      </trkpt>
      <trkpt lat="45.26723" lon="5.95512">
        <ele>640.06</ele>
        <time>2021-05-13T15:03:20.000Z</time>
      </trkpt>
      <trkpt lat="45.26738" lon="5.95529">
        <ele>640.59</ele>
        <time>2021-05-13T15:03:25.000Z</time>
      </trkpt>
      <trkpt lat="45.26746" lon="5.9555">
        <ele>644.32</ele>
        <time>2021-05-13T15:03:30.000Z</time>
      </trkpt>
      <trkpt lat="45.26734" lon="5.95563">
        <ele>644.18</ele>
        <time>2021-05-13T15:03:35.000Z</time>
      </trkpt>
      <trkpt lat="45.26719" lon="5.95556">
        <ele>644.77</ele>
        <time>2021-05-13T15:03:40.000Z</time>
      </trkpt>
      <trkpt lat="45.26702" lon="5.95543">
        <ele>646.91</ele>
        <time>2021-05-13T15:03:45.000Z</time>
      </trkpt>
      <trkpt lat="45.26685" lon="5.95531">
        <ele>649.51</ele>
        <time>2021-05-13T15:03:50.000Z</time>
      </trkpt>
      <trkpt lat="45.2667" lon="5.95518">
        <ele>649.92</ele>
        <time>2021-05-13T15:03:55.000Z</time>
      </trkpt>
      <trkpt lat="45.26656" lon="5.95506">
        <ele>651.7</ele>
        <time>2021-05-13T15:04:00.000Z</time>
      </trkpt>
      <trkpt lat="45.26643" lon="5.9549">
        <ele>653.97</ele>
        <time>2021-05-13T15:04:05.000Z</time>
      </trkpt>
      <trkpt lat="45.26631" lon="5.95476">
        <ele>659.91</ele>
        <time>2021-05-13T15:04:10.000Z</time>
      </trkpt>
      <trkpt lat="45.26613" lon="5.95482">
        <ele>662.5</ele>
        <time>2021-05-13T15:04:15.000Z</time>
      </trkpt>
      <trkpt lat="45.26607" lon="5.95505">
        <ele>664.63</ele>
        <time>2021-05-13T15:04:20.000Z</time>
      </trkpt>
      <trkpt lat="45.26621" lon="5.95528">
        <ele>669.96</ele>
        <time>2021-05-13T15:04:25.000Z</time>
      </trkpt>
      <trkpt lat="45.26631" lon="5.9555">
        <ele>668.84</ele>
        <time>2021-05-13T15:04:30.000Z</time>
      </trkpt>
      <trkpt lat="45.26628" lon="5.95575">
        <ele>668.08</ele>
        <time>2021-05-13T15:04:35.000Z</time>
      </trkpt>
      <trkpt lat="45.26621" lon="5.95595">
        <ele>668.12</ele>
        <time>2021-05-13T15:04:40.000Z</time>
      </trkpt>
      <trkpt lat="45.26618" lon="5.95615">
        <ele>672.52</ele>
        <time>2021-05-13T15:04:45.000Z</time>
      </trkpt>
      <trkpt lat="45.26619" lon="5.95635">
        <ele>674.19</ele>
        <time>2021-05-13T15:04:50.000Z</time>
      </trkpt>
      <trkpt lat="45.26619" lon="5.9566">
        <ele>675.41</ele>
        <time>2021-05-13T15:04:55.000Z</time>
      </trkpt>
      <trkpt lat="45.26622" lon="5.95682">
        <ele>677.17</ele>
        <time>2021-05-13T15:05:00.000Z</time>
      </trkpt>
      <trkpt lat="45.26625" lon="5.95705">
        <ele>675.82</ele>
        <time>2021-05-13T15:05:05.000Z</time>
      </trkpt>
      <trkpt lat="45.26632" lon="5.95729">
        <ele>678.17</ele>
        <time>2021-05-13T15:05:10.000Z</time>
      </trkpt>
      <trkpt lat="45.26636" lon="5.95751">
        <ele>680.27</ele>
        <time>2021-05-13T15:05:15.000Z</time>
      </trkpt>
      <trkpt lat="45.2664" lon="5.95772">
        <ele>680.48</ele>
        <time>2021-05-13T15:05:20.000Z</time>
      </trkpt>
      <trkpt lat="45.26645" lon="5.95794">
        <ele>680.2</ele>
        <time>2021-05-13T15:05:25.000Z</time>
      </trkpt>
      <trkpt lat="45.26654" lon="5.95817">
        <ele>682.47</ele>
        <time>2021-05-13T15:05:30.000Z</time>
      </trkpt>
      <trkpt lat="45.2667" lon="5.95845">
        <ele>683.8</ele>
        <time>2021-05-13T15:05:35.000Z</time>
      </trkpt>
      <trkpt lat="45.26672" lon="5.95865">
        <ele>686.33</ele>
        <time>2021-05-13T15:05:40.000Z</time>
      </trkpt>
      <trkpt lat="45.26676" lon="5.95888">
        <ele>688.89</ele>
        <time>2021-05-13T15:05:45.000Z</time>
      </trkpt>
      <trkpt lat="45.26674" lon="5.95907">
        <ele>690.63</ele>
        <time>2021-05-13T15:05:50.000Z</time>
      </trkpt>
      <trkpt lat="45.26673" lon="5.95928">
        <ele>690.92</ele>
        <time>2021-05-13T15:05:55.000Z</time>
      </trkpt>
      <trkpt lat="45.26674" lon="5.95951">
        <ele>692.94</ele>
        <time>2021-05-13T15:06:00.000Z</time>
      </trkpt>
      <trkpt lat="45.26676" lon="5.95972">
        <ele>696.47</ele>
        <time>2021-05-13T15:06:05.000Z</time>
      </trkpt>
      <trkpt lat="45.26679" lon="5.95993">
        <ele>700.68</ele>
        <time>2021-05-13T15:06:10.000Z</time>
      </trkpt>
      <trkpt lat="45.26686" lon="5.96014">
        <ele>703.51</ele>
        <time>2021-05-13T15:06:15.000Z</time>
      </trkpt>
      <trkpt lat="45.26695" lon="5.96037">
        <ele>703.9</ele>
        <time>2021-05-13T15:06:20.000Z</time>
      </trkpt>
      <trkpt lat="45.26703" lon="5.96062">
        <ele>704.05</ele>
        <time>2021-05-13T15:06:25.000Z</time>
      </trkpt>
      <trkpt lat="45.267" lon="5.96082">
        <ele>703.82</ele>
        <time>2021-05-13T15:06:30.000Z</time>
      </trkpt>
      <trkpt lat="45.26705" lon="5.96105">
        <ele>702.85</ele>
        <time>2021-05-13T15:06:35.000Z</time>
      </trkpt>
      <trkpt lat="45.26708" lon="5.96128">
        <ele>704.18</ele>
        <time>2021-05-13T15:06:40.000Z</time>
      </trkpt>
      <trkpt lat="45.26712" lon="5.96157">
        <ele>704.51</ele>
        <time>2021-05-13T15:06:45.000Z</time>
      </trkpt>
      <trkpt lat="45.26715" lon="5.96179">
        <ele>703.92</ele>
        <time>2021-05-13T15:06:50.000Z</time>
      </trkpt>
      <trkpt lat="45.26716" lon="5.96201">
        <ele>707.49</ele>
        <time>2021-05-13T15:06:55.000Z</time>
      </trkpt>
      <trkpt lat="45.26719" lon="5.96228">
        <ele>705.82</ele>
        <time>2021-05-13T15:07:00.000Z</time>
      </trkpt>
      <trkpt lat="45.26721" lon="5.96253">
        <ele>705.84</ele>
        <time>2021-05-13T15:07:05.000Z</time>
      </trkpt>
      <trkpt lat="45.26722" lon="5.96276">
        <ele>707.8</ele>
        <time>2021-05-13T15:07:10.000Z</time>
      </trkpt>
      <trkpt lat="45.26721" lon="5.96299">
        <ele>709.08</ele>
        <time>2021-05-13T15:07:15.000Z</time>
      </trkpt>
      <trkpt lat="45.2671" lon="5.96291">
        <ele>709.88</ele>
        <time>2021-05-13T15:07:20.000Z</time>
      </trkpt>
      <trkpt lat="45.26704" lon="5.96268">
        <ele>710.35</ele>
        <time>2021-05-13T15:07:25.000Z</time>
      </trkpt>
      <trkpt lat="45.26696" lon="5.96251">
        <ele>709.76</ele>
        <time>2021-05-13T15:07:30.000Z</time>
      </trkpt>
      <trkpt lat="45.26684" lon="5.96235">
        <ele>705.5</ele>
        <time>2021-05-13T15:07:35.000Z</time>
      </trkpt>
      <trkpt lat="45.26673" lon="5.96217">
        <ele>704.12</ele>
        <time>2021-05-13T15:07:40.000Z</time>
      </trkpt>
      <trkpt lat="45.26661" lon="5.96197">
        <ele>706</ele>
        <time>2021-05-13T15:07:45.000Z</time>
      </trkpt>
      <trkpt lat="45.2665" lon="5.96174">
        <ele>707.48</ele>
        <time>2021-05-13T15:07:50.000Z</time>
      </trkpt>
      <trkpt lat="45.26641" lon="5.96153">
        <ele>713.64</ele>
        <time>2021-05-13T15:07:55.000Z</time>
      </trkpt>
      <trkpt lat="45.26631" lon="5.96137">
        <ele>719.1</ele>
        <time>2021-05-13T15:08:00.000Z</time>
      </trkpt>
      <trkpt lat="45.26619" lon="5.96119">
        <ele>719.96</ele>
        <time>2021-05-13T15:08:05.000Z</time>
      </trkpt>
      <trkpt lat="45.26611" lon="5.96097">
        <ele>721.81</ele>
        <time>2021-05-13T15:08:10.000Z</time>
      </trkpt>
      <trkpt lat="45.26601" lon="5.96082">
        <ele>725.56</ele>
        <time>2021-05-13T15:08:15.000Z</time>
      </trkpt>
      <trkpt lat="45.26589" lon="5.9609">
        <ele>727.63</ele>
        <time>2021-05-13T15:08:20.000Z</time>
      </trkpt>
      <trkpt lat="45.2659" lon="5.96112">
        <ele>727.73</ele>
        <time>2021-05-13T15:08:25.000Z</time>
      </trkpt>
      <trkpt lat="45.26597" lon="5.96137">
        <ele>729.29</ele>
        <time>2021-05-13T15:08:30.000Z</time>
      </trkpt>
      <trkpt lat="45.266" lon="5.9616">
        <ele>730.48</ele>
        <time>2021-05-13T15:08:35.000Z</time>
      </trkpt>
      <trkpt lat="45.266" lon="5.96181">
        <ele>733.33</ele>
        <time>2021-05-13T15:08:40.000Z</time>
      </trkpt>
      <trkpt lat="45.26601" lon="5.96204">
        <ele>733.3</ele>
        <time>2021-05-13T15:08:45.000Z</time>
      </trkpt>
      <trkpt lat="45.26604" lon="5.96225">
        <ele>738.22</ele>
        <time>2021-05-13T15:08:50.000Z</time>
      </trkpt>
      <trkpt lat="45.26603" lon="5.96249">
        <ele>740.59</ele>
        <time>2021-05-13T15:08:55.000Z</time>
      </trkpt>
      <trkpt lat="45.266" lon="5.96269">
        <ele>744.14</ele>
        <time>2021-05-13T15:09:00.000Z</time>
      </trkpt>
      <trkpt lat="45.26594" lon="5.96292">
        <ele>745.01</ele>
        <time>2021-05-13T15:09:05.000Z</time>
      </trkpt>
      <trkpt lat="45.26593" lon="5.96314">
        <ele>748.06</ele>
        <time>2021-05-13T15:09:10.000Z</time>
      </trkpt>
      <trkpt lat="45.26595" lon="5.96332">
        <ele>753</ele>
        <time>2021-05-13T15:09:15.000Z</time>
      </trkpt>
      <trkpt lat="45.26593" lon="5.96354">
        <ele>756.11</ele>
        <time>2021-05-13T15:09:20.000Z</time>
      </trkpt>
      <trkpt lat="45.26588" lon="5.96372">
        <ele>756.35</ele>
        <time>2021-05-13T15:09:25.000Z</time>
      </trkpt>
      <trkpt lat="45.26583" lon="5.96391">
        <ele>757.2</ele>
        <time>2021-05-13T15:09:30.000Z</time>
      </trkpt>
      <trkpt lat="45.26573" lon="5.96412">
        <ele>756.03</ele>
        <time>2021-05-13T15:09:35.000Z</time>
      </trkpt>
      <trkpt lat="45.26564" lon="5.96432">
        <ele>758.64</ele>
        <time>2021-05-13T15:09:40.000Z</time>
      </trkpt>
      <trkpt lat="45.26555" lon="5.96452">
        <ele>758.9</ele>
        <time>2021-05-13T15:09:45.000Z</time>
      </trkpt>
      <trkpt lat="45.26548" lon="5.9647">
        <ele>758.34</ele>
        <time>2021-05-13T15:09:50.000Z</time>
      </trkpt>
      <trkpt lat="45.2654" lon="5.96487">
        <ele>758.29</ele>
        <time>2021-05-13T15:09:55.000Z</time>
      </trkpt>
      <trkpt lat="45.26529" lon="5.96506">
        <ele>760.58</ele>
        <time>2021-05-13T15:10:00.000Z</time>
      </trkpt>
      <trkpt lat="45.26523" lon="5.9653">
        <ele>759.72</ele>
        <time>2021-05-13T15:10:05.000Z</time>
      </trkpt>
      <trkpt lat="45.26518" lon="5.9655">
        <ele>762.74</ele>
        <time>2021-05-13T15:10:10.000Z</time>
      </trkpt>
      <trkpt lat="45.26512" lon="5.96573">
        <ele>765.42</ele>
        <time>2021-05-13T15:10:15.000Z</time>
      </trkpt>
      <trkpt lat="45.265" lon="5.96593">
        <ele>765.15</ele>
        <time>2021-05-13T15:10:20.000Z</time>
      </trkpt>
      <trkpt lat="45.26492" lon="5.96613">
        <ele>767.23</ele>
        <time>2021-05-13T15:10:25.000Z</time>
      </trkpt>
      <trkpt lat="45.26486" lon="5.96636">
        <ele>766.3</ele>
        <time>2021-05-13T15:10:30.000Z</time>
      </trkpt>
      <trkpt lat="45.26483" lon="5.96662">
        <ele>766.01</ele>
        <time>2021-05-13T15:10:35.000Z</time>
      </trkpt>
      <trkpt lat="45.26481" lon="5.96688">
        <ele>767.16</ele>
        <time>2021-05-13T15:10:40.000Z</time>
      </trkpt>
      <trkpt lat="45.2648" lon="5.96713">
        <ele>769.53</ele>
        <time>2021-05-13T15:10:45.000Z</time>
      </trkpt>
      <trkpt lat="45.26468" lon="5.96723">
        <ele>772.3</ele>
        <time>2021-05-13T15:10:50.000Z</time>
      </trkpt>
      <trkpt lat="45.26461" lon="5.96703">
        <ele>773.89</ele>
        <time>2021-05-13T15:10:55.000Z</time>
      </trkpt>
      <trkpt lat="45.26459" lon="5.96677">
        <ele>772.41</ele>
        <time>2021-05-13T15:11:00.000Z</time>
      </trkpt>
      <trkpt lat="45.26457" lon="5.96651">
        <ele>771.01</ele>
        <time>2021-05-13T15:11:05.000Z</time>
      </trkpt>
      <trkpt lat="45.26452" lon="5.96629">
        <ele>773.07</ele>
        <time>2021-05-13T15:11:10.000Z</time>
      </trkpt>
      <trkpt lat="45.26447" lon="5.96603">
        <ele>775.89</ele>
        <time>2021-05-13T15:11:15.000Z</time>
      </trkpt>
      <trkpt lat="45.26446" lon="5.96578">
        <ele>779.38</ele>
        <time>2021-05-13T15:11:20.000Z</time>
      </trkpt>
      <trkpt lat="45.26445" lon="5.96556">
        <ele>777.54</ele>
        <time>2021-05-13T15:11:25.000Z</time>
      </trkpt>
      <trkpt lat="45.26445" lon="5.96534">
        <ele>775.61</ele>
        <time>2021-05-13T15:11:30.000Z</time>
      </trkpt>
      <trkpt lat="45.2645" lon="5.96508">
        <ele>778.49</ele>
        <time>2021-05-13T15:11:35.000Z</time>
      </trkpt>
      <trkpt lat="45.26455" lon="5.96484">
        <ele>776.71</ele>
        <time>2021-05-13T15:11:40.000Z</time>
      </trkpt>
      <trkpt lat="45.26461" lon="5.96462">
        <ele>779.38</ele>
        <time>2021-05-13T15:11:45.000Z</time>
      </trkpt>
      <trkpt lat="45.26466" lon="5.96438">
        <ele>782.4</ele>
        <time>2021-05-13T15:11:50.000Z</time>
      </trkpt>
      <trkpt lat="45.26471" lon="5.96413">
        <ele>786.06</ele>
        <time>2021-05-13T15:11:55.000Z</time>
      </trkpt>
      <trkpt lat="45.26476" lon="5.96389">
        <ele>787.7</ele>
        <time>2021-05-13T15:12:00.000Z</time>
      </trkpt>
      <trkpt lat="45.26477" lon="5.96367">
        <ele>786.8</ele>
        <time>2021-05-13T15:12:05.000Z</time>
      </trkpt>
      <trkpt lat="45.26471" lon="5.9635">
        <ele>788.42</ele>
        <time>2021-05-13T15:12:10.000Z</time>
      </trkpt>
      <trkpt lat="45.26462" lon="5.96357">
        <ele>795.35</ele>
        <time>2021-05-13T15:15:37.000Z</time>
      </trkpt>
      <trkpt lat="45.2645" lon="5.96379">
        <ele>796.07</ele>
        <time>2021-05-13T15:15:42.000Z</time>
      </trkpt>
      <trkpt lat="45.26448" lon="5.964">
        <ele>804.79</ele>
        <time>2021-05-13T15:15:47.000Z</time>
      </trkpt>
      <trkpt lat="45.26443" lon="5.96417">
        <ele>807.15</ele>
        <time>2021-05-13T15:15:52.000Z</time>
      </trkpt>
      <trkpt lat="45.26437" lon="5.96433">
        <ele>807.33</ele>
        <time>2021-05-13T15:15:57.000Z</time>
      </trkpt>
      <trkpt lat="45.26427" lon="5.96448">
        <ele>807.4</ele>
        <time>2021-05-13T15:16:02.000Z</time>
      </trkpt>
      <trkpt lat="45.26415" lon="5.96462">
        <ele>807.9</ele>
        <time>2021-05-13T15:16:07.000Z</time>
      </trkpt>
      <trkpt lat="45.264" lon="5.96475">
        <ele>808.37</ele>
        <time>2021-05-13T15:16:12.000Z</time>
      </trkpt>
      <trkpt lat="45.26384" lon="5.9649">
        <ele>808.03</ele>
        <time>2021-05-13T15:16:17.000Z</time>
      </trkpt>
      <trkpt lat="45.26368" lon="5.96501">
        <ele>806.63</ele>
        <time>2021-05-13T15:16:22.000Z</time>
      </trkpt>
      <trkpt lat="45.26355" lon="5.96512">
        <ele>809.12</ele>
        <time>2021-05-13T15:16:27.000Z</time>
      </trkpt>
      <trkpt lat="45.26342" lon="5.96529">
        <ele>809.48</ele>
        <time>2021-05-13T15:16:32.000Z</time>
      </trkpt>
      <trkpt lat="45.26331" lon="5.96543">
        <ele>810.23</ele>
        <time>2021-05-13T15:16:37.000Z</time>
      </trkpt>
      <trkpt lat="45.26322" lon="5.96555">
        <ele>809.21</ele>
        <time>2021-05-13T15:16:42.000Z</time>
      </trkpt>
      <trkpt lat="45.26314" lon="5.96571">
        <ele>808.92</ele>
        <time>2021-05-13T15:16:47.000Z</time>
      </trkpt>
      <trkpt lat="45.26309" lon="5.96585">
        <ele>808.78</ele>
        <time>2021-05-13T15:16:52.000Z</time>
      </trkpt>
      <trkpt lat="45.263" lon="5.96601">
        <ele>809.53</ele>
        <time>2021-05-13T15:16:57.000Z</time>
      </trkpt>
      <trkpt lat="45.26288" lon="5.96618">
        <ele>811.79</ele>
        <time>2021-05-13T15:17:02.000Z</time>
      </trkpt>
      <trkpt lat="45.26273" lon="5.96638">
        <ele>809.08</ele>
        <time>2021-05-13T15:17:07.000Z</time>
      </trkpt>
      <trkpt lat="45.26263" lon="5.9666">
        <ele>813.8</ele>
        <time>2021-05-13T15:17:12.000Z</time>
      </trkpt>
      <trkpt lat="45.26256" lon="5.96682">
        <ele>817.8</ele>
        <time>2021-05-13T15:17:17.000Z</time>
      </trkpt>
      <trkpt lat="45.26251" lon="5.96705">
        <ele>820.72</ele>
        <time>2021-05-13T15:17:22.000Z</time>
      </trkpt>
      <trkpt lat="45.26244" lon="5.96733">
        <ele>824.55</ele>
        <time>2021-05-13T15:17:27.000Z</time>
      </trkpt>
      <trkpt lat="45.26238" lon="5.96759">
        <ele>827.76</ele>
        <time>2021-05-13T15:17:32.000Z</time>
      </trkpt>
      <trkpt lat="45.26233" lon="5.96783">
        <ele>831.53</ele>
        <time>2021-05-13T15:17:37.000Z</time>
      </trkpt>
      <trkpt lat="45.26229" lon="5.96807">
        <ele>836.06</ele>
        <time>2021-05-13T15:17:42.000Z</time>
      </trkpt>
      <trkpt lat="45.26228" lon="5.9683">
        <ele>833.24</ele>
        <time>2021-05-13T15:17:47.000Z</time>
      </trkpt>
      <trkpt lat="45.26226" lon="5.96852">
        <ele>830.67</ele>
        <time>2021-05-13T15:17:52.000Z</time>
      </trkpt>
      <trkpt lat="45.26226" lon="5.96876">
        <ele>833.67</ele>
        <time>2021-05-13T15:17:57.000Z</time>
      </trkpt>
      <trkpt lat="45.26225" lon="5.969">
        <ele>833.99</ele>
        <time>2021-05-13T15:18:02.000Z</time>
      </trkpt>
      <trkpt lat="45.26226" lon="5.96922">
        <ele>837.32</ele>
        <time>2021-05-13T15:18:07.000Z</time>
      </trkpt>
      <trkpt lat="45.26229" lon="5.96944">
        <ele>839.9</ele>
        <time>2021-05-13T15:18:12.000Z</time>
      </trkpt>
      <trkpt lat="45.26231" lon="5.9697">
        <ele>840.93</ele>
        <time>2021-05-13T15:18:17.000Z</time>
      </trkpt>
      <trkpt lat="45.26231" lon="5.96992">
        <ele>842.56</ele>
        <time>2021-05-13T15:18:22.000Z</time>
      </trkpt>
      <trkpt lat="45.26227" lon="5.97014">
        <ele>847.69</ele>
        <time>2021-05-13T15:18:27.000Z</time>
      </trkpt>
      <trkpt lat="45.26226" lon="5.97036">
        <ele>850.26</ele>
        <time>2021-05-13T15:18:32.000Z</time>
      </trkpt>
      <trkpt lat="45.26225" lon="5.97055">
        <ele>856.08</ele>
        <time>2021-05-13T15:18:37.000Z</time>
      </trkpt>
      <trkpt lat="45.26218" lon="5.97073">
        <ele>858.05</ele>
        <time>2021-05-13T15:18:42.000Z</time>
      </trkpt>
      <trkpt lat="45.26199" lon="5.97064">
        <ele>860.68</ele>
        <time>2021-05-13T15:18:47.000Z</time>
      </trkpt>
      <trkpt lat="45.26193" lon="5.97042">
        <ele>859.59</ele>
        <time>2021-05-13T15:18:52.000Z</time>
      </trkpt>
      <trkpt lat="45.26188" lon="5.9702">
        <ele>859.48</ele>
        <time>2021-05-13T15:18:57.000Z</time>
      </trkpt>
      <trkpt lat="45.26183" lon="5.97002">
        <ele>860.53</ele>
        <time>2021-05-13T15:19:02.000Z</time>
      </trkpt>
      <trkpt lat="45.26176" lon="5.96981">
        <ele>858.38</ele>
        <time>2021-05-13T15:19:07.000Z</time>
      </trkpt>
      <trkpt lat="45.26167" lon="5.96962">
        <ele>859.26</ele>
        <time>2021-05-13T15:19:12.000Z</time>
      </trkpt>
      <trkpt lat="45.2616" lon="5.96943">
        <ele>858.93</ele>
        <time>2021-05-13T15:19:17.000Z</time>
      </trkpt>
      <trkpt lat="45.26149" lon="5.96925">
        <ele>862.64</ele>
        <time>2021-05-13T15:19:22.000Z</time>
      </trkpt>
      <trkpt lat="45.26141" lon="5.96906">
        <ele>863.63</ele>
        <time>2021-05-13T15:19:27.000Z</time>
      </trkpt>
      <trkpt lat="45.26132" lon="5.96887">
        <ele>866.22</ele>
        <time>2021-05-13T15:19:32.000Z</time>
      </trkpt>
      <trkpt lat="45.26125" lon="5.96866">
        <ele>868.7</ele>
        <time>2021-05-13T15:19:37.000Z</time>
      </trkpt>
      <trkpt lat="45.26116" lon="5.96845">
        <ele>869.73</ele>
        <time>2021-05-13T15:19:42.000Z</time>
      </trkpt>
      <trkpt lat="45.26106" lon="5.96826">
        <ele>873.5</ele>
        <time>2021-05-13T15:19:47.000Z</time>
      </trkpt>
      <trkpt lat="45.26096" lon="5.96808">
        <ele>873.59</ele>
        <time>2021-05-13T15:19:52.000Z</time>
      </trkpt>
      <trkpt lat="45.26085" lon="5.96791">
        <ele>875.19</ele>
        <time>2021-05-13T15:19:57.000Z</time>
      </trkpt>
      <trkpt lat="45.26075" lon="5.96774">
        <ele>877.63</ele>
        <time>2021-05-13T15:20:02.000Z</time>
      </trkpt>
      <trkpt lat="45.26064" lon="5.96756">
        <ele>878.06</ele>
        <time>2021-05-13T15:20:07.000Z</time>
      </trkpt>
      <trkpt lat="45.26055" lon="5.96737">
        <ele>881.01</ele>
        <time>2021-05-13T15:20:12.000Z</time>
      </trkpt>
      <trkpt lat="45.26049" lon="5.96715">
        <ele>879.35</ele>
        <time>2021-05-13T15:20:17.000Z</time>
      </trkpt>
      <trkpt lat="45.26047" lon="5.96693">
        <ele>879.91</ele>
        <time>2021-05-13T15:20:22.000Z</time>
      </trkpt>
      <trkpt lat="45.26049" lon="5.9667">
        <ele>875.62</ele>
        <time>2021-05-13T15:20:27.000Z</time>
      </trkpt>
      <trkpt lat="45.26049" lon="5.96647">
        <ele>876.1</ele>
        <time>2021-05-13T15:20:32.000Z</time>
      </trkpt>
      <trkpt lat="45.26043" lon="5.96622">
        <ele>881.15</ele>
        <time>2021-05-13T15:20:37.000Z</time>
      </trkpt>
      <trkpt lat="45.26046" lon="5.966">
        <ele>883.08</ele>
        <time>2021-05-13T15:20:42.000Z</time>
      </trkpt>
      <trkpt lat="45.26038" lon="5.9658">
        <ele>885.16</ele>
        <time>2021-05-13T15:20:47.000Z</time>
      </trkpt>
      <trkpt lat="45.26019" lon="5.96588">
        <ele>888.11</ele>
        <time>2021-05-13T15:20:52.000Z</time>
      </trkpt>
      <trkpt lat="45.26005" lon="5.96603">
        <ele>895.56</ele>
        <time>2021-05-13T15:20:57.000Z</time>
      </trkpt>
      <trkpt lat="45.25992" lon="5.96616">
        <ele>897.43</ele>
        <time>2021-05-13T15:21:02.000Z</time>
      </trkpt>
      <trkpt lat="45.25978" lon="5.96632">
        <ele>901.98</ele>
        <time>2021-05-13T15:21:07.000Z</time>
      </trkpt>
      <trkpt lat="45.25969" lon="5.96651">
        <ele>905.57</ele>
        <time>2021-05-13T15:21:12.000Z</time>
      </trkpt>
      <trkpt lat="45.25962" lon="5.96673">
        <ele>907.38</ele>
        <time>2021-05-13T15:21:17.000Z</time>
      </trkpt>
      <trkpt lat="45.25956" lon="5.96697">
        <ele>909.04</ele>
        <time>2021-05-13T15:21:22.000Z</time>
      </trkpt>
      <trkpt lat="45.25954" lon="5.96723">
        <ele>909.75</ele>
        <time>2021-05-13T15:21:27.000Z</time>
      </trkpt>
      <trkpt lat="45.25951" lon="5.96745">
        <ele>912</ele>
        <time>2021-05-13T15:21:32.000Z</time>
      </trkpt>
      <trkpt lat="45.25945" lon="5.96765">
        <ele>911.39</ele>
        <time>2021-05-13T15:21:37.000Z</time>
      </trkpt>
      <trkpt lat="45.25934" lon="5.96784">
        <ele>913.58</ele>
        <time>2021-05-13T15:21:42.000Z</time>
      </trkpt>
      <trkpt lat="45.25924" lon="5.96802">
        <ele>913.95</ele>
        <time>2021-05-13T15:21:47.000Z</time>
      </trkpt>
      <trkpt lat="45.25921" lon="5.96826">
        <ele>914.88</ele>
        <time>2021-05-13T15:21:52.000Z</time>
      </trkpt>
      <trkpt lat="45.25906" lon="5.9684">
        <ele>912.52</ele>
        <time>2021-05-13T15:21:57.000Z</time>
      </trkpt>
      <trkpt lat="45.25889" lon="5.96848">
        <ele>915.1</ele>
        <time>2021-05-13T15:22:02.000Z</time>
      </trkpt>
      <trkpt lat="45.25873" lon="5.9686">
        <ele>915.81</ele>
        <time>2021-05-13T15:22:07.000Z</time>
      </trkpt>
      <trkpt lat="45.25861" lon="5.96873">
        <ele>917.88</ele>
        <time>2021-05-13T15:22:12.000Z</time>
      </trkpt>
      <trkpt lat="45.25852" lon="5.96885">
        <ele>916.8</ele>
        <time>2021-05-13T15:22:17.000Z</time>
      </trkpt>
      <trkpt lat="45.25842" lon="5.96898">
        <ele>914.41</ele>
        <time>2021-05-13T15:22:22.000Z</time>
      </trkpt>
      <trkpt lat="45.25833" lon="5.96912">
        <ele>914.29</ele>
        <time>2021-05-13T15:22:27.000Z</time>
      </trkpt>
      <trkpt lat="45.25822" lon="5.96927">
        <ele>915.4</ele>
        <time>2021-05-13T15:22:32.000Z</time>
      </trkpt>
      <trkpt lat="45.25809" lon="5.96944">
        <ele>916.74</ele>
        <time>2021-05-13T15:22:37.000Z</time>
      </trkpt>
      <trkpt lat="45.258" lon="5.96959">
        <ele>918.16</ele>
        <time>2021-05-13T15:22:42.000Z</time>
      </trkpt>
      <trkpt lat="45.2579" lon="5.96979">
        <ele>918.7</ele>
        <time>2021-05-13T15:22:47.000Z</time>
      </trkpt>
      <trkpt lat="45.25781" lon="5.96997">
        <ele>920.82</ele>
        <time>2021-05-13T15:22:52.000Z</time>
      </trkpt>
      <trkpt lat="45.25772" lon="5.97013">
        <ele>922.12</ele>
        <time>2021-05-13T15:22:57.000Z</time>
      </trkpt>
      <trkpt lat="45.25759" lon="5.97032">
        <ele>925.71</ele>
        <time>2021-05-13T15:23:02.000Z</time>
      </trkpt>
      <trkpt lat="45.25746" lon="5.97044">
        <ele>929.26</ele>
        <time>2021-05-13T15:23:07.000Z</time>
      </trkpt>
      <trkpt lat="45.25733" lon="5.97055">
        <ele>931.86</ele>
        <time>2021-05-13T15:23:12.000Z</time>
      </trkpt>
      <trkpt lat="45.25717" lon="5.97064">
        <ele>936.47</ele>
        <time>2021-05-13T15:23:17.000Z</time>
      </trkpt>
      <trkpt lat="45.25705" lon="5.97079">
        <ele>938.11</ele>
        <time>2021-05-13T15:23:22.000Z</time>
      </trkpt>
      <trkpt lat="45.25697" lon="5.97098">
        <ele>937.94</ele>
        <time>2021-05-13T15:23:27.000Z</time>
      </trkpt>
      <trkpt lat="45.25691" lon="5.97121">
        <ele>935.6</ele>
        <time>2021-05-13T15:23:32.000Z</time>
      </trkpt>
      <trkpt lat="45.25684" lon="5.97144">
        <ele>934.51</ele>
        <time>2021-05-13T15:23:37.000Z</time>
      </trkpt>
      <trkpt lat="45.25678" lon="5.97164">
        <ele>934.06</ele>
        <time>2021-05-13T15:23:42.000Z</time>
      </trkpt>
      <trkpt lat="45.25671" lon="5.97183">
        <ele>936.26</ele>
        <time>2021-05-13T15:23:47.000Z</time>
      </trkpt>
      <trkpt lat="45.25664" lon="5.97203">
        <ele>938.7</ele>
        <time>2021-05-13T15:23:52.000Z</time>
      </trkpt>
      <trkpt lat="45.25655" lon="5.97219">
        <ele>941.86</ele>
        <time>2021-05-13T15:23:57.000Z</time>
      </trkpt>
      <trkpt lat="45.25645" lon="5.9723">
        <ele>941.69</ele>
        <time>2021-05-13T15:24:02.000Z</time>
      </trkpt>
      <trkpt lat="45.25634" lon="5.97241">
        <ele>942</ele>
        <time>2021-05-13T15:24:07.000Z</time>
      </trkpt>
      <trkpt lat="45.25623" lon="5.97254">
        <ele>938.78</ele>
        <time>2021-05-13T15:24:12.000Z</time>
      </trkpt>
      <trkpt lat="45.25614" lon="5.97269">
        <ele>939.25</ele>
        <time>2021-05-13T15:24:17.000Z</time>
      </trkpt>
      <trkpt lat="45.25609" lon="5.9729">
        <ele>939.83</ele>
        <time>2021-05-13T15:24:22.000Z</time>
      </trkpt>
      <trkpt lat="45.25607" lon="5.97315">
        <ele>943.97</ele>
        <time>2021-05-13T15:24:27.000Z</time>
      </trkpt>
      <trkpt lat="45.256" lon="5.97337">
        <ele>947.88</ele>
        <time>2021-05-13T15:24:32.000Z</time>
      </trkpt>
      <trkpt lat="45.25587" lon="5.97329">
        <ele>951.02</ele>
        <time>2021-05-13T15:24:37.000Z</time>
      </trkpt>
      <trkpt lat="45.2558" lon="5.9731">
        <ele>954.87</ele>
        <time>2021-05-13T15:24:42.000Z</time>
      </trkpt>
      <trkpt lat="45.25576" lon="5.97294">
        <ele>955.15</ele>
        <time>2021-05-13T15:24:47.000Z</time>
      </trkpt>
      <trkpt lat="45.25572" lon="5.97276">
        <ele>957.89</ele>
        <time>2021-05-13T15:24:52.000Z</time>
      </trkpt>
      <trkpt lat="45.25569" lon="5.97256">
        <ele>954.71</ele>
        <time>2021-05-13T15:24:57.000Z</time>
      </trkpt>
      <trkpt lat="45.25568" lon="5.97235">
        <ele>951.71</ele>
        <time>2021-05-13T15:25:02.000Z</time>
      </trkpt>
      <trkpt lat="45.25569" lon="5.97212">
        <ele>951.62</ele>
        <time>2021-05-13T15:25:07.000Z</time>
      </trkpt>
      <trkpt lat="45.25569" lon="5.9719">
        <ele>949.44</ele>
        <time>2021-05-13T15:25:12.000Z</time>
      </trkpt>
      <trkpt lat="45.25566" lon="5.97168">
        <ele>950.5</ele>
        <time>2021-05-13T15:25:17.000Z</time>
      </trkpt>
      <trkpt lat="45.25562" lon="5.97144">
        <ele>952.82</ele>
        <time>2021-05-13T15:25:22.000Z</time>
      </trkpt>
      <trkpt lat="45.2556" lon="5.97121">
        <ele>958.53</ele>
        <time>2021-05-13T15:25:27.000Z</time>
      </trkpt>
      <trkpt lat="45.25552" lon="5.97101">
        <ele>961.73</ele>
        <time>2021-05-13T15:25:32.000Z</time>
      </trkpt>
      <trkpt lat="45.25537" lon="5.97084">
        <ele>962.29</ele>
        <time>2021-05-13T15:25:37.000Z</time>
      </trkpt>
      <trkpt lat="45.25522" lon="5.97071">
        <ele>966.11</ele>
        <time>2021-05-13T15:25:42.000Z</time>
      </trkpt>
      <trkpt lat="45.2551" lon="5.97058">
        <ele>965.31</ele>
        <time>2021-05-13T15:25:47.000Z</time>
      </trkpt>
      <trkpt lat="45.25506" lon="5.97047">
        <ele>971.91</ele>
        <time>2021-05-13T15:30:57.000Z</time>
      </trkpt>
      <trkpt lat="45.25495" lon="5.9704">
        <ele>977.62</ele>
        <time>2021-05-13T15:31:58.000Z</time>
      </trkpt>
      <trkpt lat="45.25479" lon="5.97024">
        <ele>977.82</ele>
        <time>2021-05-13T15:32:03.000Z</time>
      </trkpt>
      <trkpt lat="45.25465" lon="5.97012">
        <ele>979.65</ele>
        <time>2021-05-13T15:32:08.000Z</time>
      </trkpt>
      <trkpt lat="45.25446" lon="5.96998">
        <ele>978.91</ele>
        <time>2021-05-13T15:32:13.000Z</time>
      </trkpt>
      <trkpt lat="45.25429" lon="5.96987">
        <ele>977.88</ele>
        <time>2021-05-13T15:32:18.000Z</time>
      </trkpt>
      <trkpt lat="45.25412" lon="5.96977">
        <ele>976.61</ele>
        <time>2021-05-13T15:32:23.000Z</time>
      </trkpt>
      <trkpt lat="45.25392" lon="5.96972">
        <ele>980.74</ele>
        <time>2021-05-13T15:32:28.000Z</time>
      </trkpt>
      <trkpt lat="45.25372" lon="5.96972">
        <ele>981.64</ele>
        <time>2021-05-13T15:32:33.000Z</time>
      </trkpt>
      <trkpt lat="45.25347" lon="5.96975">
        <ele>982.83</ele>
        <time>2021-05-13T15:32:38.000Z</time>
      </trkpt>
      <trkpt lat="45.25328" lon="5.96974">
        <ele>981.97</ele>
        <time>2021-05-13T15:32:43.000Z</time>
      </trkpt>
      <trkpt lat="45.25306" lon="5.9697">
        <ele>979.54</ele>
        <time>2021-05-13T15:32:48.000Z</time>
      </trkpt>
      <trkpt lat="45.25282" lon="5.96967">
        <ele>978.2</ele>
        <time>2021-05-13T15:32:53.000Z</time>
      </trkpt>
      <trkpt lat="45.2526" lon="5.96969">
        <ele>980.22</ele>
        <time>2021-05-13T15:32:58.000Z</time>
      </trkpt>
      <trkpt lat="45.25243" lon="5.9697">
        <ele>980.95</ele>
        <time>2021-05-13T15:33:03.000Z</time>
      </trkpt>
      <trkpt lat="45.25226" lon="5.96973">
        <ele>981.23</ele>
        <time>2021-05-13T15:33:08.000Z</time>
      </trkpt>
      <trkpt lat="45.2521" lon="5.96987">
        <ele>982.18</ele>
        <time>2021-05-13T15:33:13.000Z</time>
      </trkpt>
      <trkpt lat="45.25198" lon="5.97016">
        <ele>981.13</ele>
        <time>2021-05-13T15:33:18.000Z</time>
      </trkpt>
      <trkpt lat="45.25175" lon="5.97034">
        <ele>979.39</ele>
        <time>2021-05-13T15:33:23.000Z</time>
      </trkpt>
      <trkpt lat="45.25161" lon="5.97019">
        <ele>979.89</ele>
        <time>2021-05-13T15:33:28.000Z</time>
      </trkpt>
      <trkpt lat="45.25145" lon="5.97031">
        <ele>982.78</ele>
        <time>2021-05-13T15:33:33.000Z</time>
      </trkpt>
      <trkpt lat="45.25129" lon="5.97042">
        <ele>983.46</ele>
        <time>2021-05-13T15:33:38.000Z</time>
      </trkpt>
      <trkpt lat="45.25112" lon="5.97053">
        <ele>983.23</ele>
        <time>2021-05-13T15:33:43.000Z</time>
      </trkpt>
      <trkpt lat="45.25097" lon="5.97071">
        <ele>985.02</ele>
        <time>2021-05-13T15:33:48.000Z</time>
      </trkpt>
      <trkpt lat="45.25085" lon="5.97093">
        <ele>985.71</ele>
        <time>2021-05-13T15:33:53.000Z</time>
      </trkpt>
      <trkpt lat="45.25074" lon="5.97117">
        <ele>988.61</ele>
        <time>2021-05-13T15:33:58.000Z</time>
      </trkpt>
      <trkpt lat="45.25073" lon="5.97144">
        <ele>990.81</ele>
        <time>2021-05-13T15:34:03.000Z</time>
      </trkpt>
      <trkpt lat="45.25069" lon="5.9717">
        <ele>992.54</ele>
        <time>2021-05-13T15:34:08.000Z</time>
      </trkpt>
      <trkpt lat="45.25063" lon="5.97191">
        <ele>992.34</ele>
        <time>2021-05-13T15:34:13.000Z</time>
      </trkpt>
      <trkpt lat="45.25059" lon="5.97203">
        <ele>987.43</ele>
        <time>2021-05-13T15:36:09.000Z</time>
      </trkpt>
      <trkpt lat="45.25053" lon="5.97218">
        <ele>986.71</ele>
        <time>2021-05-13T15:36:14.000Z</time>
      </trkpt>
      <trkpt lat="45.25034" lon="5.97235">
        <ele>985.01</ele>
        <time>2021-05-13T15:36:19.000Z</time>
      </trkpt>
      <trkpt lat="45.25004" lon="5.97238">
        <ele>982.1</ele>
        <time>2021-05-13T15:36:24.000Z</time>
      </trkpt>
      <trkpt lat="45.2497" lon="5.97236">
        <ele>981.35</ele>
        <time>2021-05-13T15:36:29.000Z</time>
      </trkpt>
      <trkpt lat="45.24931" lon="5.97237">
        <ele>979.52</ele>
        <time>2021-05-13T15:36:34.000Z</time>
      </trkpt>
      <trkpt lat="45.24884" lon="5.97239">
        <ele>979.83</ele>
        <time>2021-05-13T15:36:39.000Z</time>
      </trkpt>
      <trkpt lat="45.2483" lon="5.9726">
        <ele>975.89</ele>
        <time>2021-05-13T15:36:44.000Z</time>
      </trkpt>
      <trkpt lat="45.24769" lon="5.97268">
        <ele>971.9</ele>
        <time>2021-05-13T15:36:49.000Z</time>
      </trkpt>
      <trkpt lat="45.247" lon="5.97264">
        <ele>967.33</ele>
        <time>2021-05-13T15:36:54.000Z</time>
      </trkpt>
      <trkpt lat="45.24628" lon="5.97277">
        <ele>960</ele>
        <time>2021-05-13T15:36:59.000Z</time>
      </trkpt>
      <trkpt lat="45.2456" lon="5.97283">
        <ele>952.45</ele>
        <time>2021-05-13T15:37:04.000Z</time>
      </trkpt>
      <trkpt lat="45.24511" lon="5.97305">
        <ele>951.26</ele>
        <time>2021-05-13T15:37:09.000Z</time>
      </trkpt>
      <trkpt lat="45.2448" lon="5.97339">
        <ele>949.54</ele>
        <time>2021-05-13T15:37:14.000Z</time>
      </trkpt>
      <trkpt lat="45.24439" lon="5.97327">
        <ele>944.63</ele>
        <time>2021-05-13T15:37:19.000Z</time>
      </trkpt>
      <trkpt lat="45.24392" lon="5.97355">
        <ele>943.96</ele>
        <time>2021-05-13T15:37:24.000Z</time>
      </trkpt>
      <trkpt lat="45.24352" lon="5.97418">
        <ele>938.81</ele>
        <time>2021-05-13T15:37:29.000Z</time>
      </trkpt>
      <trkpt lat="45.24284" lon="5.9743">
        <ele>936.4</ele>
        <time>2021-05-13T15:37:34.000Z</time>
      </trkpt>
      <trkpt lat="45.24223" lon="5.97455">
        <ele>932.12</ele>
        <time>2021-05-13T15:37:39.000Z</time>
      </trkpt>
      <trkpt lat="45.24162" lon="5.97488">
        <ele>930.88</ele>
        <time>2021-05-13T15:37:44.000Z</time>
      </trkpt>
      <trkpt lat="45.24093" lon="5.97519">
        <ele>929.57</ele>
        <time>2021-05-13T15:37:49.000Z</time>
      </trkpt>
      <trkpt lat="45.24021" lon="5.9748">
        <ele>917.55</ele>
        <time>2021-05-13T15:37:54.000Z</time>
      </trkpt>
      <trkpt lat="45.24001" lon="5.97413">
        <ele>911.99</ele>
        <time>2021-05-13T15:37:59.000Z</time>
      </trkpt>
      <trkpt lat="45.23994" lon="5.97355">
        <ele>909.05</ele>
        <time>2021-05-13T15:38:04.000Z</time>
      </trkpt>
      <trkpt lat="45.2397" lon="5.97344">
        <ele>905.79</ele>
        <time>2021-05-13T15:38:09.000Z</time>
      </trkpt>
      <trkpt lat="45.23953" lon="5.97355">
        <ele>902.96</ele>
        <time>2021-05-13T15:38:14.000Z</time>
      </trkpt>
      <trkpt lat="45.2394" lon="5.97356">
        <ele>904.46</ele>
        <time>2021-05-13T15:38:19.000Z</time>
      </trkpt>
      <trkpt lat="45.23923" lon="5.9736">
        <ele>903.4</ele>
        <time>2021-05-13T15:38:24.000Z</time>
      </trkpt>
      <trkpt lat="45.23903" lon="5.97366">
        <ele>902.94</ele>
        <time>2021-05-13T15:38:29.000Z</time>
      </trkpt>
      <trkpt lat="45.23886" lon="5.97371">
        <ele>902.08</ele>
        <time>2021-05-13T15:38:34.000Z</time>
      </trkpt>
      <trkpt lat="45.23862" lon="5.97379">
        <ele>902.64</ele>
        <time>2021-05-13T15:38:39.000Z</time>
      </trkpt>
      <trkpt lat="45.23839" lon="5.97377">
        <ele>906.38</ele>
        <time>2021-05-13T15:38:44.000Z</time>
      </trkpt>
      <trkpt lat="45.2382" lon="5.97372">
        <ele>907.7</ele>
        <time>2021-05-13T15:38:49.000Z</time>
      </trkpt>
      <trkpt lat="45.23803" lon="5.97363">
        <ele>909.88</ele>
        <time>2021-05-13T15:38:54.000Z</time>
      </trkpt>
      <trkpt lat="45.23787" lon="5.97351">
        <ele>910.48</ele>
        <time>2021-05-13T15:38:59.000Z</time>
      </trkpt>
      <trkpt lat="45.2377" lon="5.9734">
        <ele>914.01</ele>
        <time>2021-05-13T15:39:04.000Z</time>
      </trkpt>
      <trkpt lat="45.23754" lon="5.97329">
        <ele>916.87</ele>
        <time>2021-05-13T15:39:09.000Z</time>
      </trkpt>
      <trkpt lat="45.23737" lon="5.97316">
        <ele>921.35</ele>
        <time>2021-05-13T15:39:14.000Z</time>
      </trkpt>
      <trkpt lat="45.23721" lon="5.973">
        <ele>920.67</ele>
        <time>2021-05-13T15:39:19.000Z</time>
      </trkpt>
      <trkpt lat="45.23708" lon="5.97278">
        <ele>923.79</ele>
        <time>2021-05-13T15:39:24.000Z</time>
      </trkpt>
      <trkpt lat="45.23701" lon="5.97254">
        <ele>923.99</ele>
        <time>2021-05-13T15:39:29.000Z</time>
      </trkpt>
      <trkpt lat="45.23701" lon="5.97226">
        <ele>923.87</ele>
        <time>2021-05-13T15:39:34.000Z</time>
      </trkpt>
      <trkpt lat="45.23705" lon="5.97199">
        <ele>923.92</ele>
        <time>2021-05-13T15:39:39.000Z</time>
      </trkpt>
      <trkpt lat="45.23715" lon="5.97176">
        <ele>924.73</ele>
        <time>2021-05-13T15:39:44.000Z</time>
      </trkpt>
      <trkpt lat="45.23726" lon="5.9715">
        <ele>921.52</ele>
        <time>2021-05-13T15:39:49.000Z</time>
      </trkpt>
      <trkpt lat="45.23735" lon="5.97125">
        <ele>920</ele>
        <time>2021-05-13T15:39:54.000Z</time>
      </trkpt>
      <trkpt lat="45.23745" lon="5.97099">
        <ele>923.4</ele>
        <time>2021-05-13T15:39:59.000Z</time>
      </trkpt>
      <trkpt lat="45.23757" lon="5.97074">
        <ele>922.12</ele>
        <time>2021-05-13T15:40:04.000Z</time>
      </trkpt>
      <trkpt lat="45.2377" lon="5.97049">
        <ele>921.84</ele>
        <time>2021-05-13T15:40:09.000Z</time>
      </trkpt>
      <trkpt lat="45.23779" lon="5.97022">
        <ele>922.6</ele>
        <time>2021-05-13T15:40:14.000Z</time>
      </trkpt>
      <trkpt lat="45.23787" lon="5.96997">
        <ele>924.52</ele>
        <time>2021-05-13T15:40:19.000Z</time>
      </trkpt>
      <trkpt lat="45.23799" lon="5.96975">
        <ele>925.05</ele>
        <time>2021-05-13T15:40:24.000Z</time>
      </trkpt>
      <trkpt lat="45.23809" lon="5.96952">
        <ele>924.69</ele>
        <time>2021-05-13T15:40:29.000Z</time>
      </trkpt>
      <trkpt lat="45.23818" lon="5.9693">
        <ele>925.54</ele>
        <time>2021-05-13T15:40:34.000Z</time>
      </trkpt>
      <trkpt lat="45.23826" lon="5.96906">
        <ele>929.12</ele>
        <time>2021-05-13T15:40:39.000Z</time>
      </trkpt>
      <trkpt lat="45.23834" lon="5.96879">
        <ele>929.66</ele>
        <time>2021-05-13T15:40:44.000Z</time>
      </trkpt>
      <trkpt lat="45.23836" lon="5.9685">
        <ele>931.31</ele>
        <time>2021-05-13T15:40:49.000Z</time>
      </trkpt>
      <trkpt lat="45.23837" lon="5.96822">
        <ele>931.84</ele>
        <time>2021-05-13T15:40:54.000Z</time>
      </trkpt>
      <trkpt lat="45.23842" lon="5.96793">
        <ele>932.12</ele>
        <time>2021-05-13T15:40:59.000Z</time>
      </trkpt>
      <trkpt lat="45.23849" lon="5.96765">
        <ele>932.59</ele>
        <time>2021-05-13T15:41:04.000Z</time>
      </trkpt>
      <trkpt lat="45.23864" lon="5.96745">
        <ele>932.89</ele>
        <time>2021-05-13T15:41:09.000Z</time>
      </trkpt>
      <trkpt lat="45.23879" lon="5.96731">
        <ele>936.14</ele>
        <time>2021-05-13T15:41:14.000Z</time>
      </trkpt>
      <trkpt lat="45.23894" lon="5.96717">
        <ele>938.49</ele>
        <time>2021-05-13T15:41:19.000Z</time>
      </trkpt>
      <trkpt lat="45.23907" lon="5.96698">
        <ele>939.05</ele>
        <time>2021-05-13T15:41:24.000Z</time>
      </trkpt>
      <trkpt lat="45.23919" lon="5.9668">
        <ele>941.03</ele>
        <time>2021-05-13T15:41:29.000Z</time>
      </trkpt>
      <trkpt lat="45.2393" lon="5.96657">
        <ele>939.94</ele>
        <time>2021-05-13T15:41:34.000Z</time>
      </trkpt>
      <trkpt lat="45.23936" lon="5.96631">
        <ele>940.12</ele>
        <time>2021-05-13T15:41:39.000Z</time>
      </trkpt>
      <trkpt lat="45.23936" lon="5.96604">
        <ele>943.19</ele>
        <time>2021-05-13T15:41:44.000Z</time>
      </trkpt>
      <trkpt lat="45.23935" lon="5.96579">
        <ele>945.52</ele>
        <time>2021-05-13T15:41:49.000Z</time>
      </trkpt>
      <trkpt lat="45.23937" lon="5.96555">
        <ele>949.14</ele>
        <time>2021-05-13T15:41:54.000Z</time>
      </trkpt>
      <trkpt lat="45.23945" lon="5.96534">
        <ele>950.85</ele>
        <time>2021-05-13T15:41:59.000Z</time>
      </trkpt>
      <trkpt lat="45.23948" lon="5.96513">
        <ele>950.8</ele>
        <time>2021-05-13T15:42:04.000Z</time>
      </trkpt>
      <trkpt lat="45.23956" lon="5.96489">
        <ele>954.46</ele>
        <time>2021-05-13T15:42:09.000Z</time>
      </trkpt>
      <trkpt lat="45.23967" lon="5.96472">
        <ele>954.78</ele>
        <time>2021-05-13T15:42:14.000Z</time>
      </trkpt>
      <trkpt lat="45.23975" lon="5.96448">
        <ele>955.98</ele>
        <time>2021-05-13T15:42:19.000Z</time>
      </trkpt>
      <trkpt lat="45.23977" lon="5.96422">
        <ele>957.81</ele>
        <time>2021-05-13T15:42:24.000Z</time>
      </trkpt>
      <trkpt lat="45.23979" lon="5.96401">
        <ele>958.15</ele>
        <time>2021-05-13T15:42:29.000Z</time>
      </trkpt>
      <trkpt lat="45.2398" lon="5.96377">
        <ele>959.54</ele>
        <time>2021-05-13T15:42:34.000Z</time>
      </trkpt>
      <trkpt lat="45.23981" lon="5.96352">
        <ele>955.08</ele>
        <time>2021-05-13T15:42:39.000Z</time>
      </trkpt>
      <trkpt lat="45.23976" lon="5.9633">
        <ele>953.45</ele>
        <time>2021-05-13T15:42:44.000Z</time>
      </trkpt>
      <trkpt lat="45.23976" lon="5.96307">
        <ele>954.84</ele>
        <time>2021-05-13T15:42:49.000Z</time>
      </trkpt>
      <trkpt lat="45.23984" lon="5.9628">
        <ele>952.04</ele>
        <time>2021-05-13T15:42:54.000Z</time>
      </trkpt>
      <trkpt lat="45.23995" lon="5.9625">
        <ele>952.64</ele>
        <time>2021-05-13T15:42:59.000Z</time>
      </trkpt>
      <trkpt lat="45.24004" lon="5.96223">
        <ele>958.76</ele>
        <time>2021-05-13T15:43:04.000Z</time>
      </trkpt>
      <trkpt lat="45.24012" lon="5.962">
        <ele>960.18</ele>
        <time>2021-05-13T15:43:09.000Z</time>
      </trkpt>
      <trkpt lat="45.24021" lon="5.96178">
        <ele>959.41</ele>
        <time>2021-05-13T15:43:14.000Z</time>
      </trkpt>
      <trkpt lat="45.24029" lon="5.96151">
        <ele>958.72</ele>
        <time>2021-05-13T15:43:19.000Z</time>
      </trkpt>
      <trkpt lat="45.24045" lon="5.96125">
        <ele>963.28</ele>
        <time>2021-05-13T15:43:24.000Z</time>
      </trkpt>
      <trkpt lat="45.24052" lon="5.96098">
        <ele>964.46</ele>
        <time>2021-05-13T15:43:29.000Z</time>
      </trkpt>
      <trkpt lat="45.24057" lon="5.96073">
        <ele>970.06</ele>
        <time>2021-05-13T15:43:34.000Z</time>
      </trkpt>
      <trkpt lat="45.24066" lon="5.9605">
        <ele>974.34</ele>
        <time>2021-05-13T15:43:39.000Z</time>
      </trkpt>
      <trkpt lat="45.24077" lon="5.96029">
        <ele>975.79</ele>
        <time>2021-05-13T15:43:44.000Z</time>
      </trkpt>
      <trkpt lat="45.24088" lon="5.96011">
        <ele>978.02</ele>
        <time>2021-05-13T15:43:49.000Z</time>
      </trkpt>
      <trkpt lat="45.24097" lon="5.95992">
        <ele>976.04</ele>
        <time>2021-05-13T15:43:54.000Z</time>
      </trkpt>
      <trkpt lat="45.24108" lon="5.95965">
        <ele>975.06</ele>
        <time>2021-05-13T15:43:59.000Z</time>
      </trkpt>
      <trkpt lat="45.24112" lon="5.95934">
        <ele>975.69</ele>
        <time>2021-05-13T15:44:04.000Z</time>
      </trkpt>
      <trkpt lat="45.24119" lon="5.95906">
        <ele>976.88</ele>
        <time>2021-05-13T15:44:09.000Z</time>
      </trkpt>
      <trkpt lat="45.24125" lon="5.9588">
        <ele>977.49</ele>
        <time>2021-05-13T15:44:14.000Z</time>
      </trkpt>
      <trkpt lat="45.2413" lon="5.95853">
        <ele>978.53</ele>
        <time>2021-05-13T15:44:19.000Z</time>
      </trkpt>
      <trkpt lat="45.24133" lon="5.95827">
        <ele>975.9</ele>
        <time>2021-05-13T15:44:24.000Z</time>
      </trkpt>
      <trkpt lat="45.2414" lon="5.95803">
        <ele>972.17</ele>
        <time>2021-05-13T15:44:29.000Z</time>
      </trkpt>
      <trkpt lat="45.24147" lon="5.95767">
        <ele>973.48</ele>
        <time>2021-05-13T15:44:34.000Z</time>
      </trkpt>
      <trkpt lat="45.24154" lon="5.95723">
        <ele>976.49</ele>
        <time>2021-05-13T15:44:39.000Z</time>
      </trkpt>
      <trkpt lat="45.24157" lon="5.95691">
        <ele>977.36</ele>
        <time>2021-05-13T15:44:44.000Z</time>
      </trkpt>
      <trkpt lat="45.2416" lon="5.95643">
        <ele>981.83</ele>
        <time>2021-05-13T15:44:49.000Z</time>
      </trkpt>
      <trkpt lat="45.24157" lon="5.95613">
        <ele>987.48</ele>
        <time>2021-05-13T15:44:54.000Z</time>
      </trkpt>
      <trkpt lat="45.24152" lon="5.95584">
        <ele>991.47</ele>
        <time>2021-05-13T15:44:59.000Z</time>
      </trkpt>
      <trkpt lat="45.24145" lon="5.95562">
        <ele>994.94</ele>
        <time>2021-05-13T15:45:04.000Z</time>
      </trkpt>
      <trkpt lat="45.24134" lon="5.95547">
        <ele>994.57</ele>
        <time>2021-05-13T15:45:09.000Z</time>
      </trkpt>
      <trkpt lat="45.24113" lon="5.95524">
        <ele>992.7</ele>
        <time>2021-05-13T15:45:14.000Z</time>
      </trkpt>
      <trkpt lat="45.24099" lon="5.95501">
        <ele>993.66</ele>
        <time>2021-05-13T15:45:19.000Z</time>
      </trkpt>
      <trkpt lat="45.24087" lon="5.95474">
        <ele>994.66</ele>
        <time>2021-05-13T15:45:24.000Z</time>
      </trkpt>
      <trkpt lat="45.24082" lon="5.95447">
        <ele>993.72</ele>
        <time>2021-05-13T15:45:29.000Z</time>
      </trkpt>
      <trkpt lat="45.24073" lon="5.95418">
        <ele>990.4</ele>
        <time>2021-05-13T15:45:34.000Z</time>
      </trkpt>
      <trkpt lat="45.24068" lon="5.95393">
        <ele>987.78</ele>
        <time>2021-05-13T15:45:39.000Z</time>
      </trkpt>
      <trkpt lat="45.24061" lon="5.95363">
        <ele>986.13</ele>
        <time>2021-05-13T15:45:44.000Z</time>
      </trkpt>
      <trkpt lat="45.24054" lon="5.95335">
        <ele>985.36</ele>
        <time>2021-05-13T15:45:49.000Z</time>
      </trkpt>
      <trkpt lat="45.24043" lon="5.95315">
        <ele>992.85</ele>
        <time>2021-05-13T15:45:54.000Z</time>
      </trkpt>
      <trkpt lat="45.2403" lon="5.9529">
        <ele>996.98</ele>
        <time>2021-05-13T15:45:59.000Z</time>
      </trkpt>
      <trkpt lat="45.24019" lon="5.95262">
        <ele>997.3</ele>
        <time>2021-05-13T15:46:04.000Z</time>
      </trkpt>
      <trkpt lat="45.24002" lon="5.95229">
        <ele>995.13</ele>
        <time>2021-05-13T15:46:09.000Z</time>
      </trkpt>
      <trkpt lat="45.2398" lon="5.95197">
        <ele>997.15</ele>
        <time>2021-05-13T15:46:14.000Z</time>
      </trkpt>
      <trkpt lat="45.23965" lon="5.95181">
        <ele>999.71</ele>
        <time>2021-05-13T15:46:19.000Z</time>
      </trkpt>
      <trkpt lat="45.23959" lon="5.95171">
        <ele>997.01</ele>
        <time>2021-05-13T15:46:24.000Z</time>
      </trkpt>
      <trkpt lat="45.2395" lon="5.95166">
        <ele>1012.78</ele>
        <time>2021-05-13T15:47:45.000Z</time>
      </trkpt>
      <trkpt lat="45.23944" lon="5.95153">
        <ele>1015.43</ele>
        <time>2021-05-13T15:47:50.000Z</time>
      </trkpt>
      <trkpt lat="45.23935" lon="5.95138">
        <ele>1018.5</ele>
        <time>2021-05-13T15:47:55.000Z</time>
      </trkpt>
      <trkpt lat="45.23926" lon="5.95119">
        <ele>1015.94</ele>
        <time>2021-05-13T15:48:00.000Z</time>
      </trkpt>
      <trkpt lat="45.2392" lon="5.95097">
        <ele>1015.56</ele>
        <time>2021-05-13T15:48:05.000Z</time>
      </trkpt>
      <trkpt lat="45.23906" lon="5.95061">
        <ele>1013.72</ele>
        <time>2021-05-13T15:48:10.000Z</time>
      </trkpt>
      <trkpt lat="45.23876" lon="5.95018">
        <ele>1013.92</ele>
        <time>2021-05-13T15:48:15.000Z</time>
      </trkpt>
      <trkpt lat="45.23856" lon="5.94968">
        <ele>1015.67</ele>
        <time>2021-05-13T15:48:20.000Z</time>
      </trkpt>
      <trkpt lat="45.23849" lon="5.94897">
        <ele>1010.09</ele>
        <time>2021-05-13T15:48:25.000Z</time>
      </trkpt>
      <trkpt lat="45.23844" lon="5.94824">
        <ele>1008.25</ele>
        <time>2021-05-13T15:48:30.000Z</time>
      </trkpt>
      <trkpt lat="45.23825" lon="5.94739">
        <ele>1004.55</ele>
        <time>2021-05-13T15:48:35.000Z</time>
      </trkpt>
      <trkpt lat="45.238" lon="5.9466">
        <ele>999.81</ele>
        <time>2021-05-13T15:48:40.000Z</time>
      </trkpt>
      <trkpt lat="45.23766" lon="5.94581">
        <ele>996.85</ele>
        <time>2021-05-13T15:48:45.000Z</time>
      </trkpt>
      <trkpt lat="45.23735" lon="5.94492">
        <ele>992.34</ele>
        <time>2021-05-13T15:48:50.000Z</time>
      </trkpt>
      <trkpt lat="45.23728" lon="5.94387">
        <ele>982.44</ele>
        <time>2021-05-13T15:48:55.000Z</time>
      </trkpt>
      <trkpt lat="45.23713" lon="5.94287">
        <ele>974.93</ele>
        <time>2021-05-13T15:49:00.000Z</time>
      </trkpt>
      <trkpt lat="45.23699" lon="5.94238">
        <ele>970.89</ele>
        <time>2021-05-13T15:49:05.000Z</time>
      </trkpt>
      <trkpt lat="45.23689" lon="5.94282">
        <ele>968.89</ele>
        <time>2021-05-13T15:49:10.000Z</time>
      </trkpt>
      <trkpt lat="45.23693" lon="5.94343">
        <ele>964.68</ele>
        <time>2021-05-13T15:49:15.000Z</time>
      </trkpt>
      <trkpt lat="45.23679" lon="5.94408">
        <ele>961.07</ele>
        <time>2021-05-13T15:49:20.000Z</time>
      </trkpt>
      <trkpt lat="45.23654" lon="5.94467">
        <ele>954.59</ele>
        <time>2021-05-13T15:49:25.000Z</time>
      </trkpt>
      <trkpt lat="45.23618" lon="5.94498">
        <ele>953.21</ele>
        <time>2021-05-13T15:49:30.000Z</time>
      </trkpt>
      <trkpt lat="45.23568" lon="5.94509">
        <ele>951.23</ele>
        <time>2021-05-13T15:49:35.000Z</time>
      </trkpt>
      <trkpt lat="45.23539" lon="5.94471">
        <ele>944.76</ele>
        <time>2021-05-13T15:49:40.000Z</time>
      </trkpt>
      <trkpt lat="45.23552" lon="5.94432">
        <ele>944.93</ele>
        <time>2021-05-13T15:49:45.000Z</time>
      </trkpt>
      <trkpt lat="45.23598" lon="5.94402">
        <ele>938.93</ele>
        <time>2021-05-13T15:49:50.000Z</time>
      </trkpt>
      <trkpt lat="45.23599" lon="5.94328">
        <ele>935.65</ele>
        <time>2021-05-13T15:49:55.000Z</time>
      </trkpt>
      <trkpt lat="45.23581" lon="5.94252">
        <ele>932.71</ele>
        <time>2021-05-13T15:50:00.000Z</time>
      </trkpt>
      <trkpt lat="45.23573" lon="5.94175">
        <ele>931.11</ele>
        <time>2021-05-13T15:50:05.000Z</time>
      </trkpt>
      <trkpt lat="45.23593" lon="5.94097">
        <ele>924.53</ele>
        <time>2021-05-13T15:50:10.000Z</time>
      </trkpt>
      <trkpt lat="45.23609" lon="5.94022">
        <ele>923.18</ele>
        <time>2021-05-13T15:50:15.000Z</time>
      </trkpt>
      <trkpt lat="45.23617" lon="5.9394">
        <ele>919.38</ele>
        <time>2021-05-13T15:50:20.000Z</time>
      </trkpt>
      <trkpt lat="45.23608" lon="5.93898">
        <ele>916.41</ele>
        <time>2021-05-13T15:50:25.000Z</time>
      </trkpt>
      <trkpt lat="45.23593" lon="5.93937">
        <ele>914.37</ele>
        <time>2021-05-13T15:50:30.000Z</time>
      </trkpt>
      <trkpt lat="45.2359" lon="5.93989">
        <ele>913.45</ele>
        <time>2021-05-13T15:50:35.000Z</time>
      </trkpt>
      <trkpt lat="45.23572" lon="5.94043">
        <ele>912.15</ele>
        <time>2021-05-13T15:50:40.000Z</time>
      </trkpt>
      <trkpt lat="45.23539" lon="5.94086">
        <ele>908.82</ele>
        <time>2021-05-13T15:50:45.000Z</time>
      </trkpt>
      <trkpt lat="45.23497" lon="5.94122">
        <ele>909.28</ele>
        <time>2021-05-13T15:50:50.000Z</time>
      </trkpt>
      <trkpt lat="45.23495" lon="5.94075">
        <ele>902.32</ele>
        <time>2021-05-13T15:50:55.000Z</time>
      </trkpt>
      <trkpt lat="45.23525" lon="5.94018">
        <ele>897.35</ele>
        <time>2021-05-13T15:51:00.000Z</time>
      </trkpt>
      <trkpt lat="45.23525" lon="5.93935">
        <ele>893.67</ele>
        <time>2021-05-13T15:51:05.000Z</time>
      </trkpt>
      <trkpt lat="45.23507" lon="5.93862">
        <ele>892.26</ele>
        <time>2021-05-13T15:51:10.000Z</time>
      </trkpt>
      <trkpt lat="45.23509" lon="5.93795">
        <ele>883.6</ele>
        <time>2021-05-13T15:51:15.000Z</time>
      </trkpt>
      <trkpt lat="45.23513" lon="5.93713">
        <ele>876.33</ele>
        <time>2021-05-13T15:51:20.000Z</time>
      </trkpt>
      <trkpt lat="45.23503" lon="5.93626">
        <ele>874.95</ele>
        <time>2021-05-13T15:51:25.000Z</time>
      </trkpt>
      <trkpt lat="45.23515" lon="5.93542">
        <ele>869.47</ele>
        <time>2021-05-13T15:51:30.000Z</time>
      </trkpt>
      <trkpt lat="45.23533" lon="5.93467">
        <ele>868.04</ele>
        <time>2021-05-13T15:51:35.000Z</time>
      </trkpt>
      <trkpt lat="45.23557" lon="5.93397">
        <ele>863.22</ele>
        <time>2021-05-13T15:51:40.000Z</time>
      </trkpt>
      <trkpt lat="45.23568" lon="5.93325">
        <ele>855.59</ele>
        <time>2021-05-13T15:51:45.000Z</time>
      </trkpt>
      <trkpt lat="45.23588" lon="5.93258">
        <ele>846.94</ele>
        <time>2021-05-13T15:51:50.000Z</time>
      </trkpt>
      <trkpt lat="45.23628" lon="5.93201">
        <ele>842.34</ele>
        <time>2021-05-13T15:51:55.000Z</time>
      </trkpt>
      <trkpt lat="45.23668" lon="5.93145">
        <ele>839.89</ele>
        <time>2021-05-13T15:52:00.000Z</time>
      </trkpt>
      <trkpt lat="45.23708" lon="5.93083">
        <ele>834.74</ele>
        <time>2021-05-13T15:52:05.000Z</time>
      </trkpt>
      <trkpt lat="45.23751" lon="5.93029">
        <ele>827.96</ele>
        <time>2021-05-13T15:52:10.000Z</time>
      </trkpt>
      <trkpt lat="45.23765" lon="5.92947">
        <ele>824.03</ele>
        <time>2021-05-13T15:52:15.000Z</time>
      </trkpt>
      <trkpt lat="45.23801" lon="5.9289">
        <ele>821.35</ele>
        <time>2021-05-13T15:52:20.000Z</time>
      </trkpt>
      <trkpt lat="45.23792" lon="5.92861">
        <ele>817.79</ele>
        <time>2021-05-13T15:52:25.000Z</time>
      </trkpt>
      <trkpt lat="45.23775" lon="5.92896">
        <ele>815.64</ele>
        <time>2021-05-13T15:52:30.000Z</time>
      </trkpt>
      <trkpt lat="45.23768" lon="5.92906">
        <ele>812.42</ele>
        <time>2021-05-13T15:52:36.000Z</time>
      </trkpt>
      <trkpt lat="45.23761" lon="5.92916">
        <ele>811.06</ele>
        <time>2021-05-13T15:52:41.000Z</time>
      </trkpt>
      <trkpt lat="45.23758" lon="5.92929">
        <ele>809.98</ele>
        <time>2021-05-13T15:52:59.000Z</time>
      </trkpt>
      <trkpt lat="45.23741" lon="5.92951">
        <ele>808.51</ele>
        <time>2021-05-13T15:53:04.000Z</time>
      </trkpt>
      <trkpt lat="45.2372" lon="5.92979">
        <ele>806.78</ele>
        <time>2021-05-13T15:53:09.000Z</time>
      </trkpt>
      <trkpt lat="45.23687" lon="5.93011">
        <ele>802.17</ele>
        <time>2021-05-13T15:53:14.000Z</time>
      </trkpt>
      <trkpt lat="45.23636" lon="5.93043">
        <ele>795.4</ele>
        <time>2021-05-13T15:53:19.000Z</time>
      </trkpt>
      <trkpt lat="45.23584" lon="5.93063">
        <ele>791.02</ele>
        <time>2021-05-13T15:53:24.000Z</time>
      </trkpt>
      <trkpt lat="45.23539" lon="5.93059">
        <ele>791.18</ele>
        <time>2021-05-13T15:53:29.000Z</time>
      </trkpt>
      <trkpt lat="45.23501" lon="5.93084">
        <ele>791.73</ele>
        <time>2021-05-13T15:53:34.000Z</time>
      </trkpt>
      <trkpt lat="45.23465" lon="5.93129">
        <ele>788.28</ele>
        <time>2021-05-13T15:53:39.000Z</time>
      </trkpt>
      <trkpt lat="45.23418" lon="5.93182">
        <ele>784.77</ele>
        <time>2021-05-13T15:53:44.000Z</time>
      </trkpt>
      <trkpt lat="45.23365" lon="5.93235">
        <ele>777.47</ele>
        <time>2021-05-13T15:53:49.000Z</time>
      </trkpt>
      <trkpt lat="45.23305" lon="5.93286">
        <ele>770.89</ele>
        <time>2021-05-13T15:53:54.000Z</time>
      </trkpt>
      <trkpt lat="45.23241" lon="5.9334">
        <ele>768.13</ele>
        <time>2021-05-13T15:53:59.000Z</time>
      </trkpt>
      <trkpt lat="45.23196" lon="5.93414">
        <ele>766.57</ele>
        <time>2021-05-13T15:54:04.000Z</time>
      </trkpt>
      <trkpt lat="45.23138" lon="5.93439">
        <ele>762.96</ele>
        <time>2021-05-13T15:54:09.000Z</time>
      </trkpt>
      <trkpt lat="45.23084" lon="5.93404">
        <ele>757.04</ele>
        <time>2021-05-13T15:54:14.000Z</time>
      </trkpt>
      <trkpt lat="45.23034" lon="5.93377">
        <ele>755.21</ele>
        <time>2021-05-13T15:54:19.000Z</time>
      </trkpt>
      <trkpt lat="45.23006" lon="5.93348">
        <ele>753.53</ele>
        <time>2021-05-13T15:54:24.000Z</time>
      </trkpt>
      <trkpt lat="45.22986" lon="5.93351">
        <ele>749.55</ele>
        <time>2021-05-13T15:54:29.000Z</time>
      </trkpt>
      <trkpt lat="45.22971" lon="5.93349">
        <ele>748.6</ele>
        <time>2021-05-13T15:54:34.000Z</time>
      </trkpt>
      <trkpt lat="45.22956" lon="5.93346">
        <ele>750.48</ele>
        <time>2021-05-13T15:54:39.000Z</time>
      </trkpt>
      <trkpt lat="45.22937" lon="5.93349">
        <ele>751.43</ele>
        <time>2021-05-13T15:54:44.000Z</time>
      </trkpt>
      <trkpt lat="45.2292" lon="5.93354">
        <ele>752.83</ele>
        <time>2021-05-13T15:54:49.000Z</time>
      </trkpt>
      <trkpt lat="45.22902" lon="5.93353">
        <ele>753.42</ele>
        <time>2021-05-13T15:54:54.000Z</time>
      </trkpt>
      <trkpt lat="45.22885" lon="5.93339">
        <ele>754.28</ele>
        <time>2021-05-13T15:54:59.000Z</time>
      </trkpt>
      <trkpt lat="45.22867" lon="5.93328">
        <ele>755.54</ele>
        <time>2021-05-13T15:55:04.000Z</time>
      </trkpt>
      <trkpt lat="45.22847" lon="5.93325">
        <ele>759.22</ele>
        <time>2021-05-13T15:55:09.000Z</time>
      </trkpt>
      <trkpt lat="45.22827" lon="5.93327">
        <ele>760.74</ele>
        <time>2021-05-13T15:55:14.000Z</time>
      </trkpt>
      <trkpt lat="45.22812" lon="5.93331">
        <ele>762.06</ele>
        <time>2021-05-13T15:55:19.000Z</time>
      </trkpt>
      <trkpt lat="45.22797" lon="5.93335">
        <ele>765.68</ele>
        <time>2021-05-13T15:55:24.000Z</time>
      </trkpt>
      <trkpt lat="45.22779" lon="5.93342">
        <ele>766.54</ele>
        <time>2021-05-13T15:55:29.000Z</time>
      </trkpt>
      <trkpt lat="45.22763" lon="5.93357">
        <ele>765.65</ele>
        <time>2021-05-13T15:55:34.000Z</time>
      </trkpt>
      <trkpt lat="45.22749" lon="5.93372">
        <ele>765.05</ele>
        <time>2021-05-13T15:55:39.000Z</time>
      </trkpt>
      <trkpt lat="45.22732" lon="5.93392">
        <ele>764.5</ele>
        <time>2021-05-13T15:55:44.000Z</time>
      </trkpt>
      <trkpt lat="45.22718" lon="5.9341">
        <ele>766.26</ele>
        <time>2021-05-13T15:55:49.000Z</time>
      </trkpt>
      <trkpt lat="45.22703" lon="5.93427">
        <ele>766.87</ele>
        <time>2021-05-13T15:55:54.000Z</time>
      </trkpt>
      <trkpt lat="45.22687" lon="5.9344">
        <ele>768.27</ele>
        <time>2021-05-13T15:55:59.000Z</time>
      </trkpt>
      <trkpt lat="45.22671" lon="5.93449">
        <ele>768.85</ele>
        <time>2021-05-13T15:56:04.000Z</time>
      </trkpt>
      <trkpt lat="45.22658" lon="5.93459">
        <ele>769.93</ele>
        <time>2021-05-13T15:56:09.000Z</time>
      </trkpt>
      <trkpt lat="45.22648" lon="5.93468">
        <ele>769.48</ele>
        <time>2021-05-13T15:56:14.000Z</time>
      </trkpt>
      <trkpt lat="45.22638" lon="5.93467">
        <ele>772.99</ele>
        <time>2021-05-13T15:57:31.000Z</time>
      </trkpt>
      <trkpt lat="45.22626" lon="5.93462">
        <ele>776.5</ele>
        <time>2021-05-13T15:57:36.000Z</time>
      </trkpt>
      <trkpt lat="45.22609" lon="5.9346">
        <ele>766.63</ele>
        <time>2021-05-13T15:57:41.000Z</time>
      </trkpt>
      <trkpt lat="45.22591" lon="5.9346">
        <ele>776.87</ele>
        <time>2021-05-13T15:57:46.000Z</time>
      </trkpt>
      <trkpt lat="45.22567" lon="5.93459">
        <ele>769.08</ele>
        <time>2021-05-13T15:57:51.000Z</time>
      </trkpt>
      <trkpt lat="45.22536" lon="5.93452">
        <ele>763.68</ele>
        <time>2021-05-13T15:57:56.000Z</time>
      </trkpt>
      <trkpt lat="45.22516" lon="5.93452">
        <ele>759.05</ele>
        <time>2021-05-13T15:58:01.000Z</time>
      </trkpt>
      <trkpt lat="45.22506" lon="5.93453">
        <ele>755.69</ele>
        <time>2021-05-13T15:58:06.000Z</time>
      </trkpt>
      <trkpt lat="45.22492" lon="5.93445">
        <ele>754.28</ele>
        <time>2021-05-13T15:59:51.000Z</time>
      </trkpt>
      <trkpt lat="45.22467" lon="5.9342">
        <ele>748.62</ele>
        <time>2021-05-13T15:59:56.000Z</time>
      </trkpt>
      <trkpt lat="45.22439" lon="5.93389">
        <ele>747.84</ele>
        <time>2021-05-13T16:00:01.000Z</time>
      </trkpt>
      <trkpt lat="45.22406" lon="5.93353">
        <ele>752.41</ele>
        <time>2021-05-13T16:00:06.000Z</time>
      </trkpt>
      <trkpt lat="45.22365" lon="5.93337">
        <ele>750.56</ele>
        <time>2021-05-13T16:00:11.000Z</time>
      </trkpt>
      <trkpt lat="45.22317" lon="5.93309">
        <ele>746.71</ele>
        <time>2021-05-13T16:00:16.000Z</time>
      </trkpt>
      <trkpt lat="45.22265" lon="5.93295">
        <ele>746.33</ele>
        <time>2021-05-13T16:00:21.000Z</time>
      </trkpt>
      <trkpt lat="45.22228" lon="5.9332">
        <ele>746.37</ele>
        <time>2021-05-13T16:00:26.000Z</time>
      </trkpt>
      <trkpt lat="45.22191" lon="5.93352">
        <ele>742.52</ele>
        <time>2021-05-13T16:00:31.000Z</time>
      </trkpt>
      <trkpt lat="45.22155" lon="5.93343">
        <ele>743.67</ele>
        <time>2021-05-13T16:00:36.000Z</time>
      </trkpt>
      <trkpt lat="45.22127" lon="5.93331">
        <ele>747.04</ele>
        <time>2021-05-13T16:00:41.000Z</time>
      </trkpt>
      <trkpt lat="45.22106" lon="5.93309">
        <ele>750.02</ele>
        <time>2021-05-13T16:00:46.000Z</time>
      </trkpt>
      <trkpt lat="45.22091" lon="5.93302">
        <ele>751.05</ele>
        <time>2021-05-13T16:00:51.000Z</time>
      </trkpt>
      <trkpt lat="45.22081" lon="5.93288">
        <ele>748.76</ele>
        <time>2021-05-13T16:00:56.000Z</time>
      </trkpt>
      <trkpt lat="45.22063" lon="5.93275">
        <ele>748.11</ele>
        <time>2021-05-13T16:01:01.000Z</time>
      </trkpt>
      <trkpt lat="45.22046" lon="5.93258">
        <ele>747.38</ele>
        <time>2021-05-13T16:01:06.000Z</time>
      </trkpt>
      <trkpt lat="45.22026" lon="5.93242">
        <ele>750.6</ele>
        <time>2021-05-13T16:01:11.000Z</time>
      </trkpt>
      <trkpt lat="45.22009" lon="5.93229">
        <ele>752.29</ele>
        <time>2021-05-13T16:01:16.000Z</time>
      </trkpt>
      <trkpt lat="45.21987" lon="5.93222">
        <ele>747.67</ele>
        <time>2021-05-13T16:01:21.000Z</time>
      </trkpt>
      <trkpt lat="45.21964" lon="5.93227">
        <ele>748.97</ele>
        <time>2021-05-13T16:01:26.000Z</time>
      </trkpt>
      <trkpt lat="45.21945" lon="5.9324">
        <ele>750.29</ele>
        <time>2021-05-13T16:01:31.000Z</time>
      </trkpt>
      <trkpt lat="45.21929" lon="5.93261">
        <ele>751.54</ele>
        <time>2021-05-13T16:01:36.000Z</time>
      </trkpt>
      <trkpt lat="45.21911" lon="5.93286">
        <ele>751.69</ele>
        <time>2021-05-13T16:01:41.000Z</time>
      </trkpt>
      <trkpt lat="45.21885" lon="5.93305">
        <ele>752.25</ele>
        <time>2021-05-13T16:01:46.000Z</time>
      </trkpt>
      <trkpt lat="45.21855" lon="5.93324">
        <ele>748.15</ele>
        <time>2021-05-13T16:01:51.000Z</time>
      </trkpt>
      <trkpt lat="45.21821" lon="5.93347">
        <ele>748.94</ele>
        <time>2021-05-13T16:01:56.000Z</time>
      </trkpt>
      <trkpt lat="45.21791" lon="5.93363">
        <ele>753.82</ele>
        <time>2021-05-13T16:02:01.000Z</time>
      </trkpt>
      <trkpt lat="45.21766" lon="5.93376">
        <ele>755.06</ele>
        <time>2021-05-13T16:02:06.000Z</time>
      </trkpt>
      <trkpt lat="45.21741" lon="5.93377">
        <ele>754.74</ele>
        <time>2021-05-13T16:02:11.000Z</time>
      </trkpt>
      <trkpt lat="45.21722" lon="5.93377">
        <ele>752.9</ele>
        <time>2021-05-13T16:02:16.000Z</time>
      </trkpt>
      <trkpt lat="45.217" lon="5.93369">
        <ele>750.78</ele>
        <time>2021-05-13T16:02:21.000Z</time>
      </trkpt>
      <trkpt lat="45.21677" lon="5.93364">
        <ele>745</ele>
        <time>2021-05-13T16:02:26.000Z</time>
      </trkpt>
      <trkpt lat="45.2165" lon="5.93375">
        <ele>744.03</ele>
        <time>2021-05-13T16:02:31.000Z</time>
      </trkpt>
      <trkpt lat="45.21624" lon="5.93401">
        <ele>744.38</ele>
        <time>2021-05-13T16:02:36.000Z</time>
      </trkpt>
      <trkpt lat="45.21603" lon="5.93429">
        <ele>742.97</ele>
        <time>2021-05-13T16:02:41.000Z</time>
      </trkpt>
      <trkpt lat="45.21575" lon="5.93461">
        <ele>741.85</ele>
        <time>2021-05-13T16:02:46.000Z</time>
      </trkpt>
      <trkpt lat="45.21548" lon="5.93491">
        <ele>742.15</ele>
        <time>2021-05-13T16:02:51.000Z</time>
      </trkpt>
      <trkpt lat="45.21519" lon="5.93507">
        <ele>744.58</ele>
        <time>2021-05-13T16:02:56.000Z</time>
      </trkpt>
      <trkpt lat="45.21487" lon="5.93517">
        <ele>741.18</ele>
        <time>2021-05-13T16:03:01.000Z</time>
      </trkpt>
      <trkpt lat="45.21456" lon="5.93521">
        <ele>741.51</ele>
        <time>2021-05-13T16:03:06.000Z</time>
      </trkpt>
      <trkpt lat="45.2143" lon="5.93512">
        <ele>742.92</ele>
        <time>2021-05-13T16:03:11.000Z</time>
      </trkpt>
      <trkpt lat="45.21415" lon="5.93487">
        <ele>747.56</ele>
        <time>2021-05-13T16:03:16.000Z</time>
      </trkpt>
      <trkpt lat="45.21401" lon="5.9346">
        <ele>748.2</ele>
        <time>2021-05-13T16:03:21.000Z</time>
      </trkpt>
      <trkpt lat="45.21386" lon="5.93426">
        <ele>747.96</ele>
        <time>2021-05-13T16:03:26.000Z</time>
      </trkpt>
      <trkpt lat="45.21378" lon="5.93386">
        <ele>751.56</ele>
        <time>2021-05-13T16:03:31.000Z</time>
      </trkpt>
      <trkpt lat="45.21374" lon="5.93355">
        <ele>752.74</ele>
        <time>2021-05-13T16:03:36.000Z</time>
      </trkpt>
      <trkpt lat="45.21377" lon="5.93322">
        <ele>751.26</ele>
        <time>2021-05-13T16:03:41.000Z</time>
      </trkpt>
      <trkpt lat="45.21394" lon="5.93291">
        <ele>749.01</ele>
        <time>2021-05-13T16:03:46.000Z</time>
      </trkpt>
      <trkpt lat="45.21415" lon="5.93271">
        <ele>751.66</ele>
        <time>2021-05-13T16:03:51.000Z</time>
      </trkpt>
      <trkpt lat="45.21439" lon="5.93263">
        <ele>755.72</ele>
        <time>2021-05-13T16:03:56.000Z</time>
      </trkpt>
      <trkpt lat="45.21461" lon="5.93261">
        <ele>757.23</ele>
        <time>2021-05-13T16:04:01.000Z</time>
      </trkpt>
      <trkpt lat="45.21485" lon="5.9325">
        <ele>757.24</ele>
        <time>2021-05-13T16:04:06.000Z</time>
      </trkpt>
      <trkpt lat="45.21509" lon="5.93237">
        <ele>759.91</ele>
        <time>2021-05-13T16:04:11.000Z</time>
      </trkpt>
      <trkpt lat="45.21529" lon="5.93228">
        <ele>762.57</ele>
        <time>2021-05-13T16:04:16.000Z</time>
      </trkpt>
      <trkpt lat="45.2155" lon="5.93213">
        <ele>763.56</ele>
        <time>2021-05-13T16:04:21.000Z</time>
      </trkpt>
      <trkpt lat="45.21572" lon="5.93206">
        <ele>762.66</ele>
        <time>2021-05-13T16:04:26.000Z</time>
      </trkpt>
      <trkpt lat="45.21595" lon="5.93185">
        <ele>764.62</ele>
        <time>2021-05-13T16:04:31.000Z</time>
      </trkpt>
      <trkpt lat="45.21616" lon="5.93165">
        <ele>762.32</ele>
        <time>2021-05-13T16:04:36.000Z</time>
      </trkpt>
      <trkpt lat="45.21639" lon="5.93138">
        <ele>761.31</ele>
        <time>2021-05-13T16:04:41.000Z</time>
      </trkpt>
      <trkpt lat="45.2166" lon="5.93113">
        <ele>761.31</ele>
        <time>2021-05-13T16:04:46.000Z</time>
      </trkpt>
      <trkpt lat="45.21687" lon="5.9308">
        <ele>757.51</ele>
        <time>2021-05-13T16:04:51.000Z</time>
      </trkpt>
      <trkpt lat="45.21721" lon="5.93059">
        <ele>757.1</ele>
        <time>2021-05-13T16:04:56.000Z</time>
      </trkpt>
      <trkpt lat="45.21769" lon="5.93037">
        <ele>754.31</ele>
        <time>2021-05-13T16:05:01.000Z</time>
      </trkpt>
      <trkpt lat="45.21813" lon="5.93008">
        <ele>756.78</ele>
        <time>2021-05-13T16:05:06.000Z</time>
      </trkpt>
      <trkpt lat="45.21843" lon="5.92977">
        <ele>756.43</ele>
        <time>2021-05-13T16:05:11.000Z</time>
      </trkpt>
      <trkpt lat="45.21867" lon="5.92945">
        <ele>757.1</ele>
        <time>2021-05-13T16:05:16.000Z</time>
      </trkpt>
      <trkpt lat="45.21888" lon="5.92917">
        <ele>756.06</ele>
        <time>2021-05-13T16:05:21.000Z</time>
      </trkpt>
      <trkpt lat="45.2191" lon="5.92895">
        <ele>753.97</ele>
        <time>2021-05-13T16:05:26.000Z</time>
      </trkpt>
      <trkpt lat="45.21931" lon="5.92881">
        <ele>751.22</ele>
        <time>2021-05-13T16:05:31.000Z</time>
      </trkpt>
      <trkpt lat="45.21954" lon="5.92868">
        <ele>750.11</ele>
        <time>2021-05-13T16:05:36.000Z</time>
      </trkpt>
      <trkpt lat="45.21975" lon="5.92853">
        <ele>747.18</ele>
        <time>2021-05-13T16:05:41.000Z</time>
      </trkpt>
      <trkpt lat="45.22001" lon="5.92832">
        <ele>745.89</ele>
        <time>2021-05-13T16:05:46.000Z</time>
      </trkpt>
      <trkpt lat="45.22029" lon="5.92816">
        <ele>746.55</ele>
        <time>2021-05-13T16:05:51.000Z</time>
      </trkpt>
      <trkpt lat="45.22055" lon="5.92807">
        <ele>742.48</ele>
        <time>2021-05-13T16:05:56.000Z</time>
      </trkpt>
      <trkpt lat="45.22083" lon="5.92801">
        <ele>744.03</ele>
        <time>2021-05-13T16:06:01.000Z</time>
      </trkpt>
      <trkpt lat="45.22114" lon="5.92798">
        <ele>742.98</ele>
        <time>2021-05-13T16:06:06.000Z</time>
      </trkpt>
      <trkpt lat="45.22147" lon="5.92795">
        <ele>747.13</ele>
        <time>2021-05-13T16:06:11.000Z</time>
      </trkpt>
      <trkpt lat="45.22175" lon="5.92791">
        <ele>748.13</ele>
        <time>2021-05-13T16:06:16.000Z</time>
      </trkpt>
      <trkpt lat="45.22205" lon="5.92781">
        <ele>747.3</ele>
        <time>2021-05-13T16:06:21.000Z</time>
      </trkpt>
      <trkpt lat="45.22236" lon="5.92769">
        <ele>746.88</ele>
        <time>2021-05-13T16:06:26.000Z</time>
      </trkpt>
      <trkpt lat="45.22268" lon="5.9276">
        <ele>744.98</ele>
        <time>2021-05-13T16:06:31.000Z</time>
      </trkpt>
      <trkpt lat="45.22299" lon="5.92758">
        <ele>745.06</ele>
        <time>2021-05-13T16:06:36.000Z</time>
      </trkpt>
      <trkpt lat="45.2233" lon="5.92768">
        <ele>747.02</ele>
        <time>2021-05-13T16:06:41.000Z</time>
      </trkpt>
      <trkpt lat="45.22361" lon="5.9278">
        <ele>745.61</ele>
        <time>2021-05-13T16:06:46.000Z</time>
      </trkpt>
      <trkpt lat="45.22396" lon="5.92787">
        <ele>744.58</ele>
        <time>2021-05-13T16:06:51.000Z</time>
      </trkpt>
      <trkpt lat="45.22428" lon="5.92784">
        <ele>742.22</ele>
        <time>2021-05-13T16:06:56.000Z</time>
      </trkpt>
      <trkpt lat="45.22461" lon="5.92777">
        <ele>741.48</ele>
        <time>2021-05-13T16:07:01.000Z</time>
      </trkpt>
      <trkpt lat="45.2249" lon="5.92773">
        <ele>740.74</ele>
        <time>2021-05-13T16:07:06.000Z</time>
      </trkpt>
      <trkpt lat="45.22519" lon="5.9276">
        <ele>740.12</ele>
        <time>2021-05-13T16:07:11.000Z</time>
      </trkpt>
      <trkpt lat="45.22543" lon="5.92735">
        <ele>739.39</ele>
        <time>2021-05-13T16:07:16.000Z</time>
      </trkpt>
      <trkpt lat="45.22562" lon="5.92709">
        <ele>737.95</ele>
        <time>2021-05-13T16:07:21.000Z</time>
      </trkpt>
      <trkpt lat="45.22577" lon="5.92683">
        <ele>740.91</ele>
        <time>2021-05-13T16:07:26.000Z</time>
      </trkpt>
      <trkpt lat="45.22589" lon="5.9266">
        <ele>743.81</ele>
        <time>2021-05-13T16:07:31.000Z</time>
      </trkpt>
      <trkpt lat="45.22593" lon="5.92627">
        <ele>746.64</ele>
        <time>2021-05-13T16:07:36.000Z</time>
      </trkpt>
      <trkpt lat="45.22591" lon="5.9259">
        <ele>743.05</ele>
        <time>2021-05-13T16:07:41.000Z</time>
      </trkpt>
      <trkpt lat="45.22589" lon="5.92556">
        <ele>739.35</ele>
        <time>2021-05-13T16:07:46.000Z</time>
      </trkpt>
      <trkpt lat="45.22591" lon="5.92523">
        <ele>740.16</ele>
        <time>2021-05-13T16:07:51.000Z</time>
      </trkpt>
      <trkpt lat="45.226" lon="5.92488">
        <ele>741.71</ele>
        <time>2021-05-13T16:07:56.000Z</time>
      </trkpt>
      <trkpt lat="45.22606" lon="5.92453">
        <ele>741.8</ele>
        <time>2021-05-13T16:08:01.000Z</time>
      </trkpt>
      <trkpt lat="45.2261" lon="5.92418">
        <ele>741.96</ele>
        <time>2021-05-13T16:08:06.000Z</time>
      </trkpt>
      <trkpt lat="45.22616" lon="5.92385">
        <ele>743.14</ele>
        <time>2021-05-13T16:08:11.000Z</time>
      </trkpt>
      <trkpt lat="45.22625" lon="5.92351">
        <ele>742.2</ele>
        <time>2021-05-13T16:08:16.000Z</time>
      </trkpt>
      <trkpt lat="45.22641" lon="5.92315">
        <ele>742.64</ele>
        <time>2021-05-13T16:08:21.000Z</time>
      </trkpt>
      <trkpt lat="45.2266" lon="5.92281">
        <ele>739.48</ele>
        <time>2021-05-13T16:08:26.000Z</time>
      </trkpt>
      <trkpt lat="45.22677" lon="5.92244">
        <ele>735.14</ele>
        <time>2021-05-13T16:08:31.000Z</time>
      </trkpt>
      <trkpt lat="45.22701" lon="5.92202">
        <ele>738.08</ele>
        <time>2021-05-13T16:08:36.000Z</time>
      </trkpt>
      <trkpt lat="45.22723" lon="5.92153">
        <ele>733.47</ele>
        <time>2021-05-13T16:08:41.000Z</time>
      </trkpt>
      <trkpt lat="45.22744" lon="5.921">
        <ele>733.92</ele>
        <time>2021-05-13T16:08:46.000Z</time>
      </trkpt>
      <trkpt lat="45.22767" lon="5.92056">
        <ele>734.87</ele>
        <time>2021-05-13T16:08:51.000Z</time>
      </trkpt>
      <trkpt lat="45.22766" lon="5.9201">
        <ele>735.18</ele>
        <time>2021-05-13T16:08:56.000Z</time>
      </trkpt>
      <trkpt lat="45.22764" lon="5.91967">
        <ele>733.66</ele>
        <time>2021-05-13T16:09:01.000Z</time>
      </trkpt>
      <trkpt lat="45.22791" lon="5.91949">
        <ele>734.27</ele>
        <time>2021-05-13T16:09:06.000Z</time>
      </trkpt>
      <trkpt lat="45.22817" lon="5.91936">
        <ele>733.88</ele>
        <time>2021-05-13T16:09:11.000Z</time>
      </trkpt>
      <trkpt lat="45.22841" lon="5.91924">
        <ele>733.84</ele>
        <time>2021-05-13T16:09:16.000Z</time>
      </trkpt>
      <trkpt lat="45.22866" lon="5.91902">
        <ele>735.86</ele>
        <time>2021-05-13T16:09:21.000Z</time>
      </trkpt>
      <trkpt lat="45.22886" lon="5.91876">
        <ele>738.83</ele>
        <time>2021-05-13T16:09:26.000Z</time>
      </trkpt>
      <trkpt lat="45.22906" lon="5.91847">
        <ele>739.91</ele>
        <time>2021-05-13T16:09:31.000Z</time>
      </trkpt>
      <trkpt lat="45.22922" lon="5.91817">
        <ele>741.87</ele>
        <time>2021-05-13T16:09:36.000Z</time>
      </trkpt>
      <trkpt lat="45.22942" lon="5.91788">
        <ele>743.9</ele>
        <time>2021-05-13T16:09:41.000Z</time>
      </trkpt>
      <trkpt lat="45.22959" lon="5.91762">
        <ele>744.55</ele>
        <time>2021-05-13T16:09:46.000Z</time>
      </trkpt>
      <trkpt lat="45.22974" lon="5.91734">
        <ele>746.14</ele>
        <time>2021-05-13T16:09:51.000Z</time>
      </trkpt>
      <trkpt lat="45.22976" lon="5.91699">
        <ele>743.42</ele>
        <time>2021-05-13T16:09:56.000Z</time>
      </trkpt>
      <trkpt lat="45.22981" lon="5.91662">
        <ele>744.29</ele>
        <time>2021-05-13T16:10:01.000Z</time>
      </trkpt>
      <trkpt lat="45.22982" lon="5.91627">
        <ele>744.37</ele>
        <time>2021-05-13T16:10:06.000Z</time>
      </trkpt>
      <trkpt lat="45.22975" lon="5.91594">
        <ele>740.42</ele>
        <time>2021-05-13T16:10:11.000Z</time>
      </trkpt>
      <trkpt lat="45.22963" lon="5.91563">
        <ele>741.58</ele>
        <time>2021-05-13T16:10:16.000Z</time>
      </trkpt>
      <trkpt lat="45.22954" lon="5.9154">
        <ele>743.41</ele>
        <time>2021-05-13T16:10:21.000Z</time>
      </trkpt>
      <trkpt lat="45.22953" lon="5.91518">
        <ele>746.18</ele>
        <time>2021-05-13T16:10:26.000Z</time>
      </trkpt>
      <trkpt lat="45.22956" lon="5.91497">
        <ele>752.05</ele>
        <time>2021-05-13T16:10:31.000Z</time>
      </trkpt>
      <trkpt lat="45.22956" lon="5.91477">
        <ele>750.58</ele>
        <time>2021-05-13T16:10:36.000Z</time>
      </trkpt>
      <trkpt lat="45.22963" lon="5.91464">
        <ele>757.11</ele>
        <time>2021-05-13T16:11:13.000Z</time>
      </trkpt>
      <trkpt lat="45.22966" lon="5.91439">
        <ele>756.33</ele>
        <time>2021-05-13T16:11:18.000Z</time>
      </trkpt>
      <trkpt lat="45.22973" lon="5.91411">
        <ele>751</ele>
        <time>2021-05-13T16:11:23.000Z</time>
      </trkpt>
      <trkpt lat="45.22984" lon="5.91381">
        <ele>751.54</ele>
        <time>2021-05-13T16:11:28.000Z</time>
      </trkpt>
      <trkpt lat="45.22995" lon="5.91343">
        <ele>747.5</ele>
        <time>2021-05-13T16:11:33.000Z</time>
      </trkpt>
      <trkpt lat="45.2302" lon="5.91307">
        <ele>748.58</ele>
        <time>2021-05-13T16:11:38.000Z</time>
      </trkpt>
      <trkpt lat="45.23053" lon="5.91277">
        <ele>751.99</ele>
        <time>2021-05-13T16:11:43.000Z</time>
      </trkpt>
      <trkpt lat="45.23097" lon="5.91242">
        <ele>751.41</ele>
        <time>2021-05-13T16:11:48.000Z</time>
      </trkpt>
      <trkpt lat="45.23153" lon="5.91199">
        <ele>747.34</ele>
        <time>2021-05-13T16:11:53.000Z</time>
      </trkpt>
      <trkpt lat="45.23206" lon="5.91146">
        <ele>740.88</ele>
        <time>2021-05-13T16:11:58.000Z</time>
      </trkpt>
      <trkpt lat="45.23241" lon="5.91062">
        <ele>735.97</ele>
        <time>2021-05-13T16:12:03.000Z</time>
      </trkpt>
      <trkpt lat="45.23301" lon="5.91002">
        <ele>735.1</ele>
        <time>2021-05-13T16:12:08.000Z</time>
      </trkpt>
      <trkpt lat="45.23346" lon="5.90907">
        <ele>727.97</ele>
        <time>2021-05-13T16:12:13.000Z</time>
      </trkpt>
      <trkpt lat="45.23386" lon="5.90804">
        <ele>720.17</ele>
        <time>2021-05-13T16:12:18.000Z</time>
      </trkpt>
      <trkpt lat="45.23423" lon="5.90718">
        <ele>717.83</ele>
        <time>2021-05-13T16:12:23.000Z</time>
      </trkpt>
      <trkpt lat="45.2346" lon="5.90635">
        <ele>716.18</ele>
        <time>2021-05-13T16:12:28.000Z</time>
      </trkpt>
      <trkpt lat="45.23482" lon="5.90555">
        <ele>714.54</ele>
        <time>2021-05-13T16:12:33.000Z</time>
      </trkpt>
      <trkpt lat="45.2349" lon="5.90485">
        <ele>715.44</ele>
        <time>2021-05-13T16:12:38.000Z</time>
      </trkpt>
      <trkpt lat="45.23503" lon="5.9042">
        <ele>718.72</ele>
        <time>2021-05-13T16:12:43.000Z</time>
      </trkpt>
      <trkpt lat="45.2351" lon="5.90363">
        <ele>712.29</ele>
        <time>2021-05-13T16:12:48.000Z</time>
      </trkpt>
      <trkpt lat="45.23496" lon="5.9031">
        <ele>704.45</ele>
        <time>2021-05-13T16:12:53.000Z</time>
      </trkpt>
      <trkpt lat="45.2347" lon="5.90264">
        <ele>703.45</ele>
        <time>2021-05-13T16:12:58.000Z</time>
      </trkpt>
      <trkpt lat="45.23449" lon="5.90249">
        <ele>695.7</ele>
        <time>2021-05-13T16:13:03.000Z</time>
      </trkpt>
      <trkpt lat="45.23438" lon="5.90251">
        <ele>696.99</ele>
        <time>2021-05-13T16:15:19.000Z</time>
      </trkpt>
      <trkpt lat="45.23419" lon="5.9026">
        <ele>693.77</ele>
        <time>2021-05-13T16:15:24.000Z</time>
      </trkpt>
      <trkpt lat="45.23395" lon="5.9027">
        <ele>693.18</ele>
        <time>2021-05-13T16:15:29.000Z</time>
      </trkpt>
      <trkpt lat="45.23367" lon="5.90284">
        <ele>691.88</ele>
        <time>2021-05-13T16:15:34.000Z</time>
      </trkpt>
      <trkpt lat="45.2333" lon="5.90307">
        <ele>689.67</ele>
        <time>2021-05-13T16:15:39.000Z</time>
      </trkpt>
      <trkpt lat="45.23282" lon="5.90332">
        <ele>687.54</ele>
        <time>2021-05-13T16:15:44.000Z</time>
      </trkpt>
      <trkpt lat="45.23233" lon="5.90331">
        <ele>686.75</ele>
        <time>2021-05-13T16:15:49.000Z</time>
      </trkpt>
      <trkpt lat="45.23194" lon="5.90326">
        <ele>684.66</ele>
        <time>2021-05-13T16:15:54.000Z</time>
      </trkpt>
      <trkpt lat="45.23154" lon="5.90322">
        <ele>679.9</ele>
        <time>2021-05-13T16:15:59.000Z</time>
      </trkpt>
      <trkpt lat="45.23111" lon="5.90319">
        <ele>681.69</ele>
        <time>2021-05-13T16:16:04.000Z</time>
      </trkpt>
      <trkpt lat="45.23074" lon="5.90323">
        <ele>680.32</ele>
        <time>2021-05-13T16:16:09.000Z</time>
      </trkpt>
      <trkpt lat="45.23034" lon="5.90331">
        <ele>680.3</ele>
        <time>2021-05-13T16:16:14.000Z</time>
      </trkpt>
      <trkpt lat="45.22993" lon="5.90348">
        <ele>679.14</ele>
        <time>2021-05-13T16:16:19.000Z</time>
      </trkpt>
      <trkpt lat="45.22961" lon="5.90365">
        <ele>677.92</ele>
        <time>2021-05-13T16:16:24.000Z</time>
      </trkpt>
      <trkpt lat="45.22931" lon="5.90316">
        <ele>676.2</ele>
        <time>2021-05-13T16:16:33.000Z</time>
      </trkpt>
      <trkpt lat="45.22912" lon="5.90303">
        <ele>674.04</ele>
        <time>2021-05-13T16:16:38.000Z</time>
      </trkpt>
      <trkpt lat="45.22895" lon="5.90288">
        <ele>675.27</ele>
        <time>2021-05-13T16:16:43.000Z</time>
      </trkpt>
      <trkpt lat="45.22875" lon="5.90268">
        <ele>675.58</ele>
        <time>2021-05-13T16:16:48.000Z</time>
      </trkpt>
      <trkpt lat="45.22853" lon="5.90255">
        <ele>676.99</ele>
        <time>2021-05-13T16:16:53.000Z</time>
      </trkpt>
      <trkpt lat="45.22833" lon="5.90251">
        <ele>677.2</ele>
        <time>2021-05-13T16:16:58.000Z</time>
      </trkpt>
      <trkpt lat="45.22808" lon="5.90248">
        <ele>682.94</ele>
        <time>2021-05-13T16:17:03.000Z</time>
      </trkpt>
      <trkpt lat="45.22786" lon="5.90247">
        <ele>685.79</ele>
        <time>2021-05-13T16:17:08.000Z</time>
      </trkpt>
      <trkpt lat="45.22765" lon="5.90249">
        <ele>678.92</ele>
        <time>2021-05-13T16:17:13.000Z</time>
      </trkpt>
      <trkpt lat="45.22737" lon="5.90249">
        <ele>678.72</ele>
        <time>2021-05-13T16:17:18.000Z</time>
      </trkpt>
      <trkpt lat="45.22718" lon="5.90248">
        <ele>675.78</ele>
        <time>2021-05-13T16:17:23.000Z</time>
      </trkpt>
      <trkpt lat="45.2269" lon="5.90255">
        <ele>677.7</ele>
        <time>2021-05-13T16:17:28.000Z</time>
      </trkpt>
      <trkpt lat="45.22641" lon="5.90275">
        <ele>679.54</ele>
        <time>2021-05-13T16:17:37.000Z</time>
      </trkpt>
      <trkpt lat="45.22627" lon="5.90298">
        <ele>687.38</ele>
        <time>2021-05-13T16:17:42.000Z</time>
      </trkpt>
      <trkpt lat="45.22617" lon="5.90324">
        <ele>685.38</ele>
        <time>2021-05-13T16:17:47.000Z</time>
      </trkpt>
      <trkpt lat="45.22607" lon="5.9035">
        <ele>685.87</ele>
        <time>2021-05-13T16:17:52.000Z</time>
      </trkpt>
      <trkpt lat="45.22603" lon="5.90384">
        <ele>683.16</ele>
        <time>2021-05-13T16:17:57.000Z</time>
      </trkpt>
      <trkpt lat="45.22597" lon="5.90409">
        <ele>683.29</ele>
        <time>2021-05-13T16:18:02.000Z</time>
      </trkpt>
      <trkpt lat="45.22591" lon="5.90435">
        <ele>685</ele>
        <time>2021-05-13T16:18:07.000Z</time>
      </trkpt>
      <trkpt lat="45.22589" lon="5.90461">
        <ele>683.43</ele>
        <time>2021-05-13T16:18:12.000Z</time>
      </trkpt>
      <trkpt lat="45.22585" lon="5.90485">
        <ele>682.6</ele>
        <time>2021-05-13T16:18:17.000Z</time>
      </trkpt>
      <trkpt lat="45.22567" lon="5.90504">
        <ele>685.97</ele>
        <time>2021-05-13T16:18:22.000Z</time>
      </trkpt>
      <trkpt lat="45.2255" lon="5.90501">
        <ele>687.21</ele>
        <time>2021-05-13T16:18:27.000Z</time>
      </trkpt>
      <trkpt lat="45.22535" lon="5.90475">
        <ele>685.43</ele>
        <time>2021-05-13T16:18:32.000Z</time>
      </trkpt>
      <trkpt lat="45.22526" lon="5.90451">
        <ele>687.8</ele>
        <time>2021-05-13T16:18:37.000Z</time>
      </trkpt>
      <trkpt lat="45.22516" lon="5.90427">
        <ele>689.9</ele>
        <time>2021-05-13T16:18:42.000Z</time>
      </trkpt>
      <trkpt lat="45.225" lon="5.90407">
        <ele>692.95</ele>
        <time>2021-05-13T16:18:47.000Z</time>
      </trkpt>
      <trkpt lat="45.22476" lon="5.90392">
        <ele>695.25</ele>
        <time>2021-05-13T16:18:52.000Z</time>
      </trkpt>
      <trkpt lat="45.22457" lon="5.90377">
        <ele>692.09</ele>
        <time>2021-05-13T16:18:57.000Z</time>
      </trkpt>
      <trkpt lat="45.22441" lon="5.90355">
        <ele>693.8</ele>
        <time>2021-05-13T16:19:02.000Z</time>
      </trkpt>
      <trkpt lat="45.22425" lon="5.90334">
        <ele>700.17</ele>
        <time>2021-05-13T16:19:07.000Z</time>
      </trkpt>
      <trkpt lat="45.22413" lon="5.90313">
        <ele>699.38</ele>
        <time>2021-05-13T16:19:12.000Z</time>
      </trkpt>
      <trkpt lat="45.22403" lon="5.90289">
        <ele>700.6</ele>
        <time>2021-05-13T16:19:17.000Z</time>
      </trkpt>
      <trkpt lat="45.22393" lon="5.90269">
        <ele>698.74</ele>
        <time>2021-05-13T16:19:22.000Z</time>
      </trkpt>
      <trkpt lat="45.22386" lon="5.90244">
        <ele>697.68</ele>
        <time>2021-05-13T16:19:27.000Z</time>
      </trkpt>
      <trkpt lat="45.22375" lon="5.90221">
        <ele>695.76</ele>
        <time>2021-05-13T16:19:32.000Z</time>
      </trkpt>
      <trkpt lat="45.22358" lon="5.90203">
        <ele>694.93</ele>
        <time>2021-05-13T16:19:37.000Z</time>
      </trkpt>
      <trkpt lat="45.22341" lon="5.90187">
        <ele>696.86</ele>
        <time>2021-05-13T16:19:42.000Z</time>
      </trkpt>
      <trkpt lat="45.22316" lon="5.90166">
        <ele>698.13</ele>
        <time>2021-05-13T16:19:47.000Z</time>
      </trkpt>
      <trkpt lat="45.22297" lon="5.9015">
        <ele>699.77</ele>
        <time>2021-05-13T16:19:52.000Z</time>
      </trkpt>
      <trkpt lat="45.22281" lon="5.90136">
        <ele>703.39</ele>
        <time>2021-05-13T16:19:57.000Z</time>
      </trkpt>
      <trkpt lat="45.22261" lon="5.90127">
        <ele>702.57</ele>
        <time>2021-05-13T16:20:02.000Z</time>
      </trkpt>
      <trkpt lat="45.22239" lon="5.90126">
        <ele>704.01</ele>
        <time>2021-05-13T16:20:07.000Z</time>
      </trkpt>
      <trkpt lat="45.22219" lon="5.90142">
        <ele>706.94</ele>
        <time>2021-05-13T16:20:12.000Z</time>
      </trkpt>
      <trkpt lat="45.22204" lon="5.90166">
        <ele>705.73</ele>
        <time>2021-05-13T16:20:17.000Z</time>
      </trkpt>
      <trkpt lat="45.22184" lon="5.90188">
        <ele>705.97</ele>
        <time>2021-05-13T16:20:22.000Z</time>
      </trkpt>
      <trkpt lat="45.22158" lon="5.90208">
        <ele>704.9</ele>
        <time>2021-05-13T16:20:27.000Z</time>
      </trkpt>
      <trkpt lat="45.2213" lon="5.90224">
        <ele>708.81</ele>
        <time>2021-05-13T16:20:32.000Z</time>
      </trkpt>
      <trkpt lat="45.22108" lon="5.90237">
        <ele>708.75</ele>
        <time>2021-05-13T16:20:37.000Z</time>
      </trkpt>
      <trkpt lat="45.22087" lon="5.90245">
        <ele>707.31</ele>
        <time>2021-05-13T16:20:42.000Z</time>
      </trkpt>
      <trkpt lat="45.22058" lon="5.9025">
        <ele>709.18</ele>
        <time>2021-05-13T16:20:47.000Z</time>
      </trkpt>
      <trkpt lat="45.22028" lon="5.90241">
        <ele>710.35</ele>
        <time>2021-05-13T16:20:52.000Z</time>
      </trkpt>
      <trkpt lat="45.22001" lon="5.90229">
        <ele>710.38</ele>
        <time>2021-05-13T16:20:57.000Z</time>
      </trkpt>
      <trkpt lat="45.21979" lon="5.90213">
        <ele>711.03</ele>
        <time>2021-05-13T16:21:02.000Z</time>
      </trkpt>
      <trkpt lat="45.21959" lon="5.90193">
        <ele>714</ele>
        <time>2021-05-13T16:21:07.000Z</time>
      </trkpt>
      <trkpt lat="45.21941" lon="5.90168">
        <ele>721.66</ele>
        <time>2021-05-13T16:21:12.000Z</time>
      </trkpt>
      <trkpt lat="45.21932" lon="5.90135">
        <ele>723.46</ele>
        <time>2021-05-13T16:21:17.000Z</time>
      </trkpt>
      <trkpt lat="45.21934" lon="5.90098">
        <ele>722.46</ele>
        <time>2021-05-13T16:21:22.000Z</time>
      </trkpt>
      <trkpt lat="45.21936" lon="5.90062">
        <ele>726.79</ele>
        <time>2021-05-13T16:21:27.000Z</time>
      </trkpt>
      <trkpt lat="45.21915" lon="5.9004">
        <ele>726.19</ele>
        <time>2021-05-13T16:21:32.000Z</time>
      </trkpt>
      <trkpt lat="45.21898" lon="5.90015">
        <ele>722.74</ele>
        <time>2021-05-13T16:21:37.000Z</time>
      </trkpt>
      <trkpt lat="45.21877" lon="5.90002">
        <ele>719.84</ele>
        <time>2021-05-13T16:21:42.000Z</time>
      </trkpt>
      <trkpt lat="45.21853" lon="5.89989">
        <ele>719.23</ele>
        <time>2021-05-13T16:21:47.000Z</time>
      </trkpt>
      <trkpt lat="45.21826" lon="5.89977">
        <ele>716.66</ele>
        <time>2021-05-13T16:21:52.000Z</time>
      </trkpt>
      <trkpt lat="45.21801" lon="5.89963">
        <ele>719.78</ele>
        <time>2021-05-13T16:21:57.000Z</time>
      </trkpt>
      <trkpt lat="45.21779" lon="5.89951">
        <ele>723.59</ele>
        <time>2021-05-13T16:22:02.000Z</time>
      </trkpt>
      <trkpt lat="45.21759" lon="5.89942">
        <ele>724.85</ele>
        <time>2021-05-13T16:22:07.000Z</time>
      </trkpt>
      <trkpt lat="45.21737" lon="5.89931">
        <ele>719.89</ele>
        <time>2021-05-13T16:22:12.000Z</time>
      </trkpt>
      <trkpt lat="45.21714" lon="5.89928">
        <ele>712.38</ele>
        <time>2021-05-13T16:22:17.000Z</time>
      </trkpt>
      <trkpt lat="45.21692" lon="5.89909">
        <ele>714.98</ele>
        <time>2021-05-13T16:22:22.000Z</time>
      </trkpt>
      <trkpt lat="45.21668" lon="5.89882">
        <ele>718.45</ele>
        <time>2021-05-13T16:22:27.000Z</time>
      </trkpt>
      <trkpt lat="45.21642" lon="5.89854">
        <ele>723.04</ele>
        <time>2021-05-13T16:22:32.000Z</time>
      </trkpt>
      <trkpt lat="45.21617" lon="5.89834">
        <ele>724.92</ele>
        <time>2021-05-13T16:22:37.000Z</time>
      </trkpt>
      <trkpt lat="45.21589" lon="5.89818">
        <ele>729.76</ele>
        <time>2021-05-13T16:22:42.000Z</time>
      </trkpt>
      <trkpt lat="45.21564" lon="5.89797">
        <ele>728.05</ele>
        <time>2021-05-13T16:22:47.000Z</time>
      </trkpt>
      <trkpt lat="45.21537" lon="5.89778">
        <ele>732.62</ele>
        <time>2021-05-13T16:22:52.000Z</time>
      </trkpt>
      <trkpt lat="45.21514" lon="5.89763">
        <ele>736.55</ele>
        <time>2021-05-13T16:22:57.000Z</time>
      </trkpt>
      <trkpt lat="45.21489" lon="5.89747">
        <ele>738.1</ele>
        <time>2021-05-13T16:23:02.000Z</time>
      </trkpt>
      <trkpt lat="45.21464" lon="5.89731">
        <ele>740.88</ele>
        <time>2021-05-13T16:23:07.000Z</time>
      </trkpt>
      <trkpt lat="45.21437" lon="5.89723">
        <ele>741.7</ele>
        <time>2021-05-13T16:23:12.000Z</time>
      </trkpt>
      <trkpt lat="45.21409" lon="5.89725">
        <ele>740.78</ele>
        <time>2021-05-13T16:23:17.000Z</time>
      </trkpt>
      <trkpt lat="45.21386" lon="5.89732">
        <ele>741.35</ele>
        <time>2021-05-13T16:23:22.000Z</time>
      </trkpt>
      <trkpt lat="45.21365" lon="5.89745">
        <ele>741.1</ele>
        <time>2021-05-13T16:23:27.000Z</time>
      </trkpt>
      <trkpt lat="45.21338" lon="5.89759">
        <ele>738.98</ele>
        <time>2021-05-13T16:23:32.000Z</time>
      </trkpt>
      <trkpt lat="45.21314" lon="5.89774">
        <ele>737.29</ele>
        <time>2021-05-13T16:23:37.000Z</time>
      </trkpt>
      <trkpt lat="45.21289" lon="5.89783">
        <ele>737.31</ele>
        <time>2021-05-13T16:23:42.000Z</time>
      </trkpt>
      <trkpt lat="45.21265" lon="5.89785">
        <ele>740.63</ele>
        <time>2021-05-13T16:23:47.000Z</time>
      </trkpt>
      <trkpt lat="45.21238" lon="5.89788">
        <ele>741.18</ele>
        <time>2021-05-13T16:23:52.000Z</time>
      </trkpt>
      <trkpt lat="45.21211" lon="5.89781">
        <ele>741.77</ele>
        <time>2021-05-13T16:23:57.000Z</time>
      </trkpt>
      <trkpt lat="45.21192" lon="5.89773">
        <ele>744.09</ele>
        <time>2021-05-13T16:24:02.000Z</time>
      </trkpt>
      <trkpt lat="45.21166" lon="5.8976">
        <ele>747.76</ele>
        <time>2021-05-13T16:24:07.000Z</time>
      </trkpt>
      <trkpt lat="45.21142" lon="5.89767">
        <ele>749.24</ele>
        <time>2021-05-13T16:24:12.000Z</time>
      </trkpt>
      <trkpt lat="45.21121" lon="5.89782">
        <ele>752.09</ele>
        <time>2021-05-13T16:24:17.000Z</time>
      </trkpt>
      <trkpt lat="45.21102" lon="5.89785">
        <ele>751.07</ele>
        <time>2021-05-13T16:24:22.000Z</time>
      </trkpt>
      <trkpt lat="45.21078" lon="5.89775">
        <ele>754.11</ele>
        <time>2021-05-13T16:24:27.000Z</time>
      </trkpt>
      <trkpt lat="45.21049" lon="5.89767">
        <ele>752.35</ele>
        <time>2021-05-13T16:24:32.000Z</time>
      </trkpt>
      <trkpt lat="45.21015" lon="5.89778">
        <ele>751.66</ele>
        <time>2021-05-13T16:24:37.000Z</time>
      </trkpt>
      <trkpt lat="45.20982" lon="5.89778">
        <ele>751.63</ele>
        <time>2021-05-13T16:24:42.000Z</time>
      </trkpt>
      <trkpt lat="45.20969" lon="5.89759">
        <ele>753.7</ele>
        <time>2021-05-13T16:24:47.000Z</time>
      </trkpt>
      <trkpt lat="45.20975" lon="5.89718">
        <ele>754.18</ele>
        <time>2021-05-13T16:24:52.000Z</time>
      </trkpt>
      <trkpt lat="45.20986" lon="5.89688">
        <ele>754.7</ele>
        <time>2021-05-13T16:24:57.000Z</time>
      </trkpt>
      <trkpt lat="45.21006" lon="5.89661">
        <ele>754.29</ele>
        <time>2021-05-13T16:25:02.000Z</time>
      </trkpt>
      <trkpt lat="45.21017" lon="5.89627">
        <ele>753.08</ele>
        <time>2021-05-13T16:25:07.000Z</time>
      </trkpt>
      <trkpt lat="45.21022" lon="5.8959">
        <ele>753</ele>
        <time>2021-05-13T16:25:12.000Z</time>
      </trkpt>
      <trkpt lat="45.21021" lon="5.89556">
        <ele>751.31</ele>
        <time>2021-05-13T16:25:17.000Z</time>
      </trkpt>
      <trkpt lat="45.21023" lon="5.89521">
        <ele>750.26</ele>
        <time>2021-05-13T16:25:22.000Z</time>
      </trkpt>
      <trkpt lat="45.21026" lon="5.89486">
        <ele>751.04</ele>
        <time>2021-05-13T16:25:27.000Z</time>
      </trkpt>
      <trkpt lat="45.21037" lon="5.89451">
        <ele>754.09</ele>
        <time>2021-05-13T16:25:32.000Z</time>
      </trkpt>
      <trkpt lat="45.21053" lon="5.89424">
        <ele>756.15</ele>
        <time>2021-05-13T16:25:37.000Z</time>
      </trkpt>
      <trkpt lat="45.21068" lon="5.89392">
        <ele>752.34</ele>
        <time>2021-05-13T16:25:42.000Z</time>
      </trkpt>
      <trkpt lat="45.21086" lon="5.89362">
        <ele>755.86</ele>
        <time>2021-05-13T16:25:47.000Z</time>
      </trkpt>
      <trkpt lat="45.21106" lon="5.89334">
        <ele>754.56</ele>
        <time>2021-05-13T16:25:52.000Z</time>
      </trkpt>
      <trkpt lat="45.21124" lon="5.89312">
        <ele>755.98</ele>
        <time>2021-05-13T16:25:57.000Z</time>
      </trkpt>
      <trkpt lat="45.21147" lon="5.89298">
        <ele>755.68</ele>
        <time>2021-05-13T16:26:02.000Z</time>
      </trkpt>
      <trkpt lat="45.21171" lon="5.89285">
        <ele>757.57</ele>
        <time>2021-05-13T16:26:07.000Z</time>
      </trkpt>
      <trkpt lat="45.21186" lon="5.89261">
        <ele>758.85</ele>
        <time>2021-05-13T16:26:12.000Z</time>
      </trkpt>
      <trkpt lat="45.21197" lon="5.89233">
        <ele>759.82</ele>
        <time>2021-05-13T16:26:17.000Z</time>
      </trkpt>
      <trkpt lat="45.2121" lon="5.89207">
        <ele>762.45</ele>
        <time>2021-05-13T16:26:22.000Z</time>
      </trkpt>
      <trkpt lat="45.21229" lon="5.89186">
        <ele>768</ele>
        <time>2021-05-13T16:26:27.000Z</time>
      </trkpt>
      <trkpt lat="45.21255" lon="5.8917">
        <ele>769</ele>
        <time>2021-05-13T16:26:32.000Z</time>
      </trkpt>
      <trkpt lat="45.21276" lon="5.89155">
        <ele>769.82</ele>
        <time>2021-05-13T16:26:37.000Z</time>
      </trkpt>
      <trkpt lat="45.21297" lon="5.89144">
        <ele>768.45</ele>
        <time>2021-05-13T16:26:42.000Z</time>
      </trkpt>
      <trkpt lat="45.21321" lon="5.89122">
        <ele>769.54</ele>
        <time>2021-05-13T16:26:47.000Z</time>
      </trkpt>
      <trkpt lat="45.21345" lon="5.89113">
        <ele>771.46</ele>
        <time>2021-05-13T16:26:52.000Z</time>
      </trkpt>
      <trkpt lat="45.2137" lon="5.89096">
        <ele>768.59</ele>
        <time>2021-05-13T16:26:57.000Z</time>
      </trkpt>
      <trkpt lat="45.21393" lon="5.89088">
        <ele>769.94</ele>
        <time>2021-05-13T16:27:02.000Z</time>
      </trkpt>
      <trkpt lat="45.21423" lon="5.89069">
        <ele>768.82</ele>
        <time>2021-05-13T16:27:07.000Z</time>
      </trkpt>
      <trkpt lat="45.21445" lon="5.89048">
        <ele>766.47</ele>
        <time>2021-05-13T16:27:12.000Z</time>
      </trkpt>
      <trkpt lat="45.21472" lon="5.89041">
        <ele>772.6</ele>
        <time>2021-05-13T16:27:17.000Z</time>
      </trkpt>
      <trkpt lat="45.215" lon="5.89031">
        <ele>775.88</ele>
        <time>2021-05-13T16:27:22.000Z</time>
      </trkpt>
      <trkpt lat="45.21526" lon="5.89016">
        <ele>779.67</ele>
        <time>2021-05-13T16:27:27.000Z</time>
      </trkpt>
      <trkpt lat="45.21552" lon="5.89007">
        <ele>780.11</ele>
        <time>2021-05-13T16:27:32.000Z</time>
      </trkpt>
      <trkpt lat="45.21577" lon="5.88998">
        <ele>783.04</ele>
        <time>2021-05-13T16:27:37.000Z</time>
      </trkpt>
      <trkpt lat="45.21602" lon="5.88985">
        <ele>790.17</ele>
        <time>2021-05-13T16:27:42.000Z</time>
      </trkpt>
      <trkpt lat="45.21626" lon="5.88969">
        <ele>790.81</ele>
        <time>2021-05-13T16:27:47.000Z</time>
      </trkpt>
      <trkpt lat="45.21645" lon="5.88952">
        <ele>795.18</ele>
        <time>2021-05-13T16:27:52.000Z</time>
      </trkpt>
      <trkpt lat="45.21672" lon="5.88937">
        <ele>793.01</ele>
        <time>2021-05-13T16:27:57.000Z</time>
      </trkpt>
      <trkpt lat="45.21694" lon="5.88917">
        <ele>789.42</ele>
        <time>2021-05-13T16:28:02.000Z</time>
      </trkpt>
      <trkpt lat="45.21704" lon="5.88886">
        <ele>790.49</ele>
        <time>2021-05-13T16:28:07.000Z</time>
      </trkpt>
      <trkpt lat="45.21696" lon="5.88861">
        <ele>793.18</ele>
        <time>2021-05-13T16:28:12.000Z</time>
      </trkpt>
      <trkpt lat="45.21692" lon="5.8885">
        <ele>791.92</ele>
        <time>2021-05-13T16:28:19.000Z</time>
      </trkpt>
      <trkpt lat="45.21681" lon="5.88849">
        <ele>793.31</ele>
        <time>2021-05-13T16:30:30.000Z</time>
      </trkpt>
      <trkpt lat="45.2166" lon="5.88838">
        <ele>793.27</ele>
        <time>2021-05-13T16:30:35.000Z</time>
      </trkpt>
      <trkpt lat="45.2163" lon="5.8882">
        <ele>791.07</ele>
        <time>2021-05-13T16:30:40.000Z</time>
      </trkpt>
      <trkpt lat="45.21594" lon="5.88784">
        <ele>790.76</ele>
        <time>2021-05-13T16:30:45.000Z</time>
      </trkpt>
      <trkpt lat="45.21554" lon="5.88728">
        <ele>791.94</ele>
        <time>2021-05-13T16:30:50.000Z</time>
      </trkpt>
      <trkpt lat="45.21516" lon="5.88666">
        <ele>787.85</ele>
        <time>2021-05-13T16:30:55.000Z</time>
      </trkpt>
      <trkpt lat="45.21483" lon="5.88585">
        <ele>781.83</ele>
        <time>2021-05-13T16:31:00.000Z</time>
      </trkpt>
      <trkpt lat="45.21448" lon="5.88487">
        <ele>777.6</ele>
        <time>2021-05-13T16:31:05.000Z</time>
      </trkpt>
      <trkpt lat="45.21427" lon="5.88385">
        <ele>772.34</ele>
        <time>2021-05-13T16:31:10.000Z</time>
      </trkpt>
      <trkpt lat="45.21409" lon="5.88324">
        <ele>766.65</ele>
        <time>2021-05-13T16:31:15.000Z</time>
      </trkpt>
      <trkpt lat="45.21355" lon="5.8832">
        <ele>760.66</ele>
        <time>2021-05-13T16:31:20.000Z</time>
      </trkpt>
      <trkpt lat="45.2131" lon="5.88347">
        <ele>756.23</ele>
        <time>2021-05-13T16:31:25.000Z</time>
      </trkpt>
      <trkpt lat="45.21261" lon="5.88356">
        <ele>754.96</ele>
        <time>2021-05-13T16:31:30.000Z</time>
      </trkpt>
      <trkpt lat="45.21215" lon="5.8836">
        <ele>753.58</ele>
        <time>2021-05-13T16:31:35.000Z</time>
      </trkpt>
      <trkpt lat="45.21173" lon="5.88351">
        <ele>751.02</ele>
        <time>2021-05-13T16:31:40.000Z</time>
      </trkpt>
      <trkpt lat="45.21135" lon="5.88341">
        <ele>749.25</ele>
        <time>2021-05-13T16:31:45.000Z</time>
      </trkpt>
      <trkpt lat="45.211" lon="5.88329">
        <ele>746.2</ele>
        <time>2021-05-13T16:31:50.000Z</time>
      </trkpt>
      <trkpt lat="45.21067" lon="5.88309">
        <ele>747.2</ele>
        <time>2021-05-13T16:31:55.000Z</time>
      </trkpt>
      <trkpt lat="45.21041" lon="5.88291">
        <ele>749.03</ele>
        <time>2021-05-13T16:32:00.000Z</time>
      </trkpt>
      <trkpt lat="45.2101" lon="5.88284">
        <ele>749.02</ele>
        <time>2021-05-13T16:32:05.000Z</time>
      </trkpt>
      <trkpt lat="45.20979" lon="5.88281">
        <ele>746.5</ele>
        <time>2021-05-13T16:32:10.000Z</time>
      </trkpt>
      <trkpt lat="45.20949" lon="5.8828">
        <ele>744.25</ele>
        <time>2021-05-13T16:32:15.000Z</time>
      </trkpt>
      <trkpt lat="45.20921" lon="5.88269">
        <ele>744.83</ele>
        <time>2021-05-13T16:32:20.000Z</time>
      </trkpt>
      <trkpt lat="45.20892" lon="5.8826">
        <ele>747.52</ele>
        <time>2021-05-13T16:32:25.000Z</time>
      </trkpt>
      <trkpt lat="45.2087" lon="5.88263">
        <ele>746.23</ele>
        <time>2021-05-13T16:32:30.000Z</time>
      </trkpt>
      <trkpt lat="45.2086" lon="5.88269">
        <ele>743.62</ele>
        <time>2021-05-13T16:32:35.000Z</time>
      </trkpt>
      <trkpt lat="45.20853" lon="5.88284">
        <ele>747.71</ele>
        <time>2021-05-13T16:32:41.000Z</time>
      </trkpt>
      <trkpt lat="45.20831" lon="5.88309">
        <ele>744.52</ele>
        <time>2021-05-13T16:32:46.000Z</time>
      </trkpt>
      <trkpt lat="45.20789" lon="5.88323">
        <ele>743.47</ele>
        <time>2021-05-13T16:32:51.000Z</time>
      </trkpt>
      <trkpt lat="45.20739" lon="5.88337">
        <ele>738.64</ele>
        <time>2021-05-13T16:32:56.000Z</time>
      </trkpt>
      <trkpt lat="45.20677" lon="5.88339">
        <ele>738.3</ele>
        <time>2021-05-13T16:33:01.000Z</time>
      </trkpt>
      <trkpt lat="45.20651" lon="5.88267">
        <ele>727.9</ele>
        <time>2021-05-13T16:33:06.000Z</time>
      </trkpt>
      <trkpt lat="45.20608" lon="5.88222">
        <ele>723.77</ele>
        <time>2021-05-13T16:33:11.000Z</time>
      </trkpt>
      <trkpt lat="45.2059" lon="5.88162">
        <ele>722.95</ele>
        <time>2021-05-13T16:33:16.000Z</time>
      </trkpt>
      <trkpt lat="45.20561" lon="5.88129">
        <ele>723.11</ele>
        <time>2021-05-13T16:33:21.000Z</time>
      </trkpt>
      <trkpt lat="45.20532" lon="5.88127">
        <ele>719.95</ele>
        <time>2021-05-13T16:33:26.000Z</time>
      </trkpt>
      <trkpt lat="45.20508" lon="5.8814">
        <ele>721.64</ele>
        <time>2021-05-13T16:33:31.000Z</time>
      </trkpt>
      <trkpt lat="45.20483" lon="5.88145">
        <ele>721.46</ele>
        <time>2021-05-13T16:33:36.000Z</time>
      </trkpt>
      <trkpt lat="45.20457" lon="5.8814">
        <ele>719.37</ele>
        <time>2021-05-13T16:33:41.000Z</time>
      </trkpt>
      <trkpt lat="45.20428" lon="5.88137">
        <ele>720.46</ele>
        <time>2021-05-13T16:33:46.000Z</time>
      </trkpt>
      <trkpt lat="45.204" lon="5.88133">
        <ele>720.7</ele>
        <time>2021-05-13T16:33:51.000Z</time>
      </trkpt>
      <trkpt lat="45.20372" lon="5.88138">
        <ele>716.54</ele>
        <time>2021-05-13T16:33:56.000Z</time>
      </trkpt>
      <trkpt lat="45.20348" lon="5.88152">
        <ele>718.19</ele>
        <time>2021-05-13T16:34:01.000Z</time>
      </trkpt>
      <trkpt lat="45.20325" lon="5.88171">
        <ele>717.96</ele>
        <time>2021-05-13T16:34:06.000Z</time>
      </trkpt>
      <trkpt lat="45.20305" lon="5.88196">
        <ele>716.02</ele>
        <time>2021-05-13T16:34:11.000Z</time>
      </trkpt>
      <trkpt lat="45.20282" lon="5.88213">
        <ele>714.13</ele>
        <time>2021-05-13T16:34:16.000Z</time>
      </trkpt>
      <trkpt lat="45.20256" lon="5.88222">
        <ele>716.43</ele>
        <time>2021-05-13T16:34:21.000Z</time>
      </trkpt>
      <trkpt lat="45.20234" lon="5.88218">
        <ele>722.9</ele>
        <time>2021-05-13T16:34:26.000Z</time>
      </trkpt>
      <trkpt lat="45.20219" lon="5.88209">
        <ele>723.57</ele>
        <time>2021-05-13T16:34:31.000Z</time>
      </trkpt>
      <trkpt lat="45.202" lon="5.88195">
        <ele>725.5</ele>
        <time>2021-05-13T16:34:36.000Z</time>
      </trkpt>
      <trkpt lat="45.20183" lon="5.88178">
        <ele>727.3</ele>
        <time>2021-05-13T16:34:41.000Z</time>
      </trkpt>
      <trkpt lat="45.20171" lon="5.88159">
        <ele>731.48</ele>
        <time>2021-05-13T16:34:46.000Z</time>
      </trkpt>
      <trkpt lat="45.20161" lon="5.88137">
        <ele>738.89</ele>
        <time>2021-05-13T16:34:51.000Z</time>
      </trkpt>
      <trkpt lat="45.20154" lon="5.88117">
        <ele>739.42</ele>
        <time>2021-05-13T16:34:56.000Z</time>
      </trkpt>
      <trkpt lat="45.20149" lon="5.88092">
        <ele>740.9</ele>
        <time>2021-05-13T16:35:01.000Z</time>
      </trkpt>
      <trkpt lat="45.20147" lon="5.88066">
        <ele>740.6</ele>
        <time>2021-05-13T16:35:06.000Z</time>
      </trkpt>
      <trkpt lat="45.20151" lon="5.88034">
        <ele>740.73</ele>
        <time>2021-05-13T16:35:11.000Z</time>
      </trkpt>
      <trkpt lat="45.2015" lon="5.88004">
        <ele>746.52</ele>
        <time>2021-05-13T16:35:16.000Z</time>
      </trkpt>
      <trkpt lat="45.20148" lon="5.87979">
        <ele>748.8</ele>
        <time>2021-05-13T16:35:21.000Z</time>
      </trkpt>
      <trkpt lat="45.20145" lon="5.8795">
        <ele>752.41</ele>
        <time>2021-05-13T16:35:26.000Z</time>
      </trkpt>
      <trkpt lat="45.20138" lon="5.87921">
        <ele>751.32</ele>
        <time>2021-05-13T16:35:31.000Z</time>
      </trkpt>
      <trkpt lat="45.20134" lon="5.87893">
        <ele>757.68</ele>
        <time>2021-05-13T16:35:36.000Z</time>
      </trkpt>
      <trkpt lat="45.20128" lon="5.87865">
        <ele>757.31</ele>
        <time>2021-05-13T16:35:41.000Z</time>
      </trkpt>
      <trkpt lat="45.20122" lon="5.87842">
        <ele>757.96</ele>
        <time>2021-05-13T16:35:46.000Z</time>
      </trkpt>
      <trkpt lat="45.20121" lon="5.87816">
        <ele>757.21</ele>
        <time>2021-05-13T16:35:51.000Z</time>
      </trkpt>
      <trkpt lat="45.20124" lon="5.87787">
        <ele>759.98</ele>
        <time>2021-05-13T16:35:56.000Z</time>
      </trkpt>
      <trkpt lat="45.20127" lon="5.87757">
        <ele>762.72</ele>
        <time>2021-05-13T16:36:01.000Z</time>
      </trkpt>
      <trkpt lat="45.20131" lon="5.87731">
        <ele>765.07</ele>
        <time>2021-05-13T16:36:06.000Z</time>
      </trkpt>
      <trkpt lat="45.20135" lon="5.87707">
        <ele>767.02</ele>
        <time>2021-05-13T16:36:11.000Z</time>
      </trkpt>
      <trkpt lat="45.20137" lon="5.87685">
        <ele>768.19</ele>
        <time>2021-05-13T16:36:16.000Z</time>
      </trkpt>
      <trkpt lat="45.20136" lon="5.87661">
        <ele>764.12</ele>
        <time>2021-05-13T16:36:21.000Z</time>
      </trkpt>
      <trkpt lat="45.20132" lon="5.87632">
        <ele>769.2</ele>
        <time>2021-05-13T16:36:26.000Z</time>
      </trkpt>
      <trkpt lat="45.20126" lon="5.87607">
        <ele>768.13</ele>
        <time>2021-05-13T16:36:31.000Z</time>
      </trkpt>
      <trkpt lat="45.20115" lon="5.87583">
        <ele>767.42</ele>
        <time>2021-05-13T16:36:36.000Z</time>
      </trkpt>
      <trkpt lat="45.20106" lon="5.8755">
        <ele>768.78</ele>
        <time>2021-05-13T16:36:41.000Z</time>
      </trkpt>
      <trkpt lat="45.20107" lon="5.87522">
        <ele>771.87</ele>
        <time>2021-05-13T16:36:46.000Z</time>
      </trkpt>
      <trkpt lat="45.20112" lon="5.87491">
        <ele>776.19</ele>
        <time>2021-05-13T16:36:51.000Z</time>
      </trkpt>
      <trkpt lat="45.20118" lon="5.87461">
        <ele>775.85</ele>
        <time>2021-05-13T16:36:56.000Z</time>
      </trkpt>
      <trkpt lat="45.20132" lon="5.87435">
        <ele>775.19</ele>
        <time>2021-05-13T16:37:01.000Z</time>
      </trkpt>
      <trkpt lat="45.20146" lon="5.87411">
        <ele>776.49</ele>
        <time>2021-05-13T16:37:06.000Z</time>
      </trkpt>
      <trkpt lat="45.2015" lon="5.87384">
        <ele>777.95</ele>
        <time>2021-05-13T16:37:11.000Z</time>
      </trkpt>
      <trkpt lat="45.20148" lon="5.87356">
        <ele>780.07</ele>
        <time>2021-05-13T16:37:16.000Z</time>
      </trkpt>
      <trkpt lat="45.20142" lon="5.87327">
        <ele>780.85</ele>
        <time>2021-05-13T16:37:21.000Z</time>
      </trkpt>
      <trkpt lat="45.20134" lon="5.873">
        <ele>781.39</ele>
        <time>2021-05-13T16:37:26.000Z</time>
      </trkpt>
      <trkpt lat="45.20126" lon="5.87275">
        <ele>782.57</ele>
        <time>2021-05-13T16:37:31.000Z</time>
      </trkpt>
      <trkpt lat="45.20118" lon="5.87251">
        <ele>786.24</ele>
        <time>2021-05-13T16:37:36.000Z</time>
      </trkpt>
      <trkpt lat="45.20111" lon="5.87231">
        <ele>785.15</ele>
        <time>2021-05-13T16:37:41.000Z</time>
      </trkpt>
      <trkpt lat="45.20104" lon="5.8721">
        <ele>785.42</ele>
        <time>2021-05-13T16:37:46.000Z</time>
      </trkpt>
      <trkpt lat="45.20091" lon="5.87187">
        <ele>789.22</ele>
        <time>2021-05-13T16:37:51.000Z</time>
      </trkpt>
      <trkpt lat="45.2008" lon="5.87156">
        <ele>789.41</ele>
        <time>2021-05-13T16:37:56.000Z</time>
      </trkpt>
      <trkpt lat="45.20079" lon="5.87138">
        <ele>789.11</ele>
        <time>2021-05-13T16:38:01.000Z</time>
      </trkpt>
      <trkpt lat="45.20075" lon="5.87112">
        <ele>790.28</ele>
        <time>2021-05-13T16:38:06.000Z</time>
      </trkpt>
      <trkpt lat="45.20075" lon="5.87086">
        <ele>795.19</ele>
        <time>2021-05-13T16:38:11.000Z</time>
      </trkpt>
      <trkpt lat="45.20079" lon="5.8706">
        <ele>796.92</ele>
        <time>2021-05-13T16:38:16.000Z</time>
      </trkpt>
      <trkpt lat="45.20083" lon="5.87032">
        <ele>796.5</ele>
        <time>2021-05-13T16:38:21.000Z</time>
      </trkpt>
      <trkpt lat="45.20084" lon="5.87007">
        <ele>797.36</ele>
        <time>2021-05-13T16:38:26.000Z</time>
      </trkpt>
      <trkpt lat="45.20084" lon="5.86978">
        <ele>797.88</ele>
        <time>2021-05-13T16:38:31.000Z</time>
      </trkpt>
      <trkpt lat="45.20087" lon="5.86947">
        <ele>792.14</ele>
        <time>2021-05-13T16:38:36.000Z</time>
      </trkpt>
      <trkpt lat="45.20082" lon="5.8691">
        <ele>791.22</ele>
        <time>2021-05-13T16:38:41.000Z</time>
      </trkpt>
      <trkpt lat="45.20069" lon="5.86878">
        <ele>789.26</ele>
        <time>2021-05-13T16:38:46.000Z</time>
      </trkpt>
      <trkpt lat="45.20054" lon="5.8685">
        <ele>789.57</ele>
        <time>2021-05-13T16:38:51.000Z</time>
      </trkpt>
      <trkpt lat="45.20019" lon="5.86767">
        <ele>793.97</ele>
        <time>2021-05-13T16:39:06.000Z</time>
      </trkpt>
      <trkpt lat="45.19997" lon="5.86751">
        <ele>798.5</ele>
        <time>2021-05-13T16:39:11.000Z</time>
      </trkpt>
      <trkpt lat="45.19987" lon="5.86746">
        <ele>798.07</ele>
        <time>2021-05-13T16:39:16.000Z</time>
      </trkpt>
      <trkpt lat="45.19974" lon="5.86744">
        <ele>802.74</ele>
        <time>2021-05-13T16:39:21.000Z</time>
      </trkpt>
      <trkpt lat="45.19958" lon="5.86742">
        <ele>805.47</ele>
        <time>2021-05-13T16:39:26.000Z</time>
      </trkpt>
      <trkpt lat="45.19941" lon="5.86748">
        <ele>806.82</ele>
        <time>2021-05-13T16:39:31.000Z</time>
      </trkpt>
      <trkpt lat="45.19923" lon="5.86744">
        <ele>812.32</ele>
        <time>2021-05-13T16:39:36.000Z</time>
      </trkpt>
      <trkpt lat="45.19889" lon="5.86729">
        <ele>816.04</ele>
        <time>2021-05-13T16:39:41.000Z</time>
      </trkpt>
      <trkpt lat="45.19869" lon="5.86725">
        <ele>817.4</ele>
        <time>2021-05-13T16:39:46.000Z</time>
      </trkpt>
      <trkpt lat="45.1985" lon="5.8672">
        <ele>823.64</ele>
        <time>2021-05-13T16:39:51.000Z</time>
      </trkpt>
      <trkpt lat="45.19828" lon="5.86715">
        <ele>826.22</ele>
        <time>2021-05-13T16:39:56.000Z</time>
      </trkpt>
      <trkpt lat="45.19807" lon="5.86712">
        <ele>835.04</ele>
        <time>2021-05-13T16:40:01.000Z</time>
      </trkpt>
      <trkpt lat="45.19787" lon="5.86714">
        <ele>837.04</ele>
        <time>2021-05-13T16:40:06.000Z</time>
      </trkpt>
      <trkpt lat="45.19768" lon="5.86714">
        <ele>837.37</ele>
        <time>2021-05-13T16:40:11.000Z</time>
      </trkpt>
      <trkpt lat="45.1975" lon="5.86719">
        <ele>841.5</ele>
        <time>2021-05-13T16:40:16.000Z</time>
      </trkpt>
      <trkpt lat="45.19733" lon="5.86734">
        <ele>842.22</ele>
        <time>2021-05-13T16:40:21.000Z</time>
      </trkpt>
      <trkpt lat="45.19724" lon="5.86761">
        <ele>849.53</ele>
        <time>2021-05-13T16:40:26.000Z</time>
      </trkpt>
      <trkpt lat="45.19722" lon="5.8679">
        <ele>851.98</ele>
        <time>2021-05-13T16:40:31.000Z</time>
      </trkpt>
      <trkpt lat="45.1972" lon="5.86817">
        <ele>853.92</ele>
        <time>2021-05-13T16:40:36.000Z</time>
      </trkpt>
      <trkpt lat="45.19706" lon="5.86841">
        <ele>858.53</ele>
        <time>2021-05-13T16:40:41.000Z</time>
      </trkpt>
      <trkpt lat="45.19686" lon="5.86851">
        <ele>858.52</ele>
        <time>2021-05-13T16:40:46.000Z</time>
      </trkpt>
      <trkpt lat="45.19664" lon="5.86847">
        <ele>861.86</ele>
        <time>2021-05-13T16:40:51.000Z</time>
      </trkpt>
      <trkpt lat="45.19648" lon="5.86848">
        <ele>861.59</ele>
        <time>2021-05-13T16:40:56.000Z</time>
      </trkpt>
      <trkpt lat="45.19628" lon="5.86846">
        <ele>860.97</ele>
        <time>2021-05-13T16:41:01.000Z</time>
      </trkpt>
      <trkpt lat="45.19606" lon="5.86848">
        <ele>863.6</ele>
        <time>2021-05-13T16:41:06.000Z</time>
      </trkpt>
      <trkpt lat="45.19585" lon="5.86852">
        <ele>868.69</ele>
        <time>2021-05-13T16:41:11.000Z</time>
      </trkpt>
      <trkpt lat="45.19563" lon="5.86859">
        <ele>870.05</ele>
        <time>2021-05-13T16:41:16.000Z</time>
      </trkpt>
      <trkpt lat="45.19546" lon="5.86873">
        <ele>869.25</ele>
        <time>2021-05-13T16:41:21.000Z</time>
      </trkpt>
      <trkpt lat="45.19537" lon="5.86901">
        <ele>870.98</ele>
        <time>2021-05-13T16:41:26.000Z</time>
      </trkpt>
      <trkpt lat="45.19536" lon="5.8693">
        <ele>870.87</ele>
        <time>2021-05-13T16:41:31.000Z</time>
      </trkpt>
      <trkpt lat="45.19539" lon="5.86962">
        <ele>872.68</ele>
        <time>2021-05-13T16:41:36.000Z</time>
      </trkpt>
      <trkpt lat="45.19545" lon="5.86992">
        <ele>875.11</ele>
        <time>2021-05-13T16:41:41.000Z</time>
      </trkpt>
      <trkpt lat="45.19551" lon="5.87027">
        <ele>875.19</ele>
        <time>2021-05-13T16:41:46.000Z</time>
      </trkpt>
      <trkpt lat="45.19564" lon="5.87059">
        <ele>875.4</ele>
        <time>2021-05-13T16:41:51.000Z</time>
      </trkpt>
      <trkpt lat="45.19578" lon="5.87086">
        <ele>877.96</ele>
        <time>2021-05-13T16:41:56.000Z</time>
      </trkpt>
      <trkpt lat="45.19594" lon="5.87107">
        <ele>880.93</ele>
        <time>2021-05-13T16:42:01.000Z</time>
      </trkpt>
      <trkpt lat="45.19612" lon="5.8713">
        <ele>880.31</ele>
        <time>2021-05-13T16:42:06.000Z</time>
      </trkpt>
      <trkpt lat="45.1963" lon="5.87156">
        <ele>882.6</ele>
        <time>2021-05-13T16:42:11.000Z</time>
      </trkpt>
      <trkpt lat="45.19652" lon="5.8719">
        <ele>883.05</ele>
        <time>2021-05-13T16:42:16.000Z</time>
      </trkpt>
      <trkpt lat="45.19672" lon="5.87229">
        <ele>881.95</ele>
        <time>2021-05-13T16:42:21.000Z</time>
      </trkpt>
      <trkpt lat="45.19677" lon="5.87273">
        <ele>879.85</ele>
        <time>2021-05-13T16:42:26.000Z</time>
      </trkpt>
      <trkpt lat="45.19684" lon="5.87315">
        <ele>879.72</ele>
        <time>2021-05-13T16:42:31.000Z</time>
      </trkpt>
      <trkpt lat="45.19685" lon="5.87363">
        <ele>878.75</ele>
        <time>2021-05-13T16:42:36.000Z</time>
      </trkpt>
      <trkpt lat="45.19688" lon="5.87404">
        <ele>877.4</ele>
        <time>2021-05-13T16:42:41.000Z</time>
      </trkpt>
      <trkpt lat="45.19688" lon="5.87445">
        <ele>876.84</ele>
        <time>2021-05-13T16:42:46.000Z</time>
      </trkpt>
      <trkpt lat="45.1968" lon="5.87481">
        <ele>877.72</ele>
        <time>2021-05-13T16:42:51.000Z</time>
      </trkpt>
      <trkpt lat="45.19666" lon="5.87512">
        <ele>876.64</ele>
        <time>2021-05-13T16:42:56.000Z</time>
      </trkpt>
      <trkpt lat="45.19646" lon="5.87537">
        <ele>880.29</ele>
        <time>2021-05-13T16:43:01.000Z</time>
      </trkpt>
      <trkpt lat="45.19625" lon="5.87568">
        <ele>887.24</ele>
        <time>2021-05-13T16:43:06.000Z</time>
      </trkpt>
      <trkpt lat="45.19608" lon="5.87586">
        <ele>885.23</ele>
        <time>2021-05-13T16:43:11.000Z</time>
      </trkpt>
      <trkpt lat="45.19588" lon="5.87608">
        <ele>885.66</ele>
        <time>2021-05-13T16:43:16.000Z</time>
      </trkpt>
      <trkpt lat="45.19571" lon="5.87631">
        <ele>886.48</ele>
        <time>2021-05-13T16:43:21.000Z</time>
      </trkpt>
      <trkpt lat="45.19549" lon="5.87647">
        <ele>888</ele>
        <time>2021-05-13T16:43:26.000Z</time>
      </trkpt>
      <trkpt lat="45.19524" lon="5.87654">
        <ele>890.48</ele>
        <time>2021-05-13T16:43:31.000Z</time>
      </trkpt>
      <trkpt lat="45.19497" lon="5.87657">
        <ele>892.82</ele>
        <time>2021-05-13T16:43:36.000Z</time>
      </trkpt>
      <trkpt lat="45.1947" lon="5.87655">
        <ele>890.67</ele>
        <time>2021-05-13T16:43:41.000Z</time>
      </trkpt>
      <trkpt lat="45.19442" lon="5.87657">
        <ele>889.53</ele>
        <time>2021-05-13T16:43:46.000Z</time>
      </trkpt>
      <trkpt lat="45.19416" lon="5.87658">
        <ele>889.57</ele>
        <time>2021-05-13T16:43:51.000Z</time>
      </trkpt>
      <trkpt lat="45.19393" lon="5.87664">
        <ele>891.97</ele>
        <time>2021-05-13T16:43:56.000Z</time>
      </trkpt>
      <trkpt lat="45.19374" lon="5.8768">
        <ele>888.55</ele>
        <time>2021-05-13T16:44:01.000Z</time>
      </trkpt>
      <trkpt lat="45.19363" lon="5.87699">
        <ele>892.13</ele>
        <time>2021-05-13T16:44:06.000Z</time>
      </trkpt>
      <trkpt lat="45.19353" lon="5.87731">
        <ele>891.41</ele>
        <time>2021-05-13T16:44:11.000Z</time>
      </trkpt>
      <trkpt lat="45.19353" lon="5.87765">
        <ele>888.63</ele>
        <time>2021-05-13T16:44:16.000Z</time>
      </trkpt>
      <trkpt lat="45.19348" lon="5.87808">
        <ele>885.73</ele>
        <time>2021-05-13T16:44:21.000Z</time>
      </trkpt>
      <trkpt lat="45.19347" lon="5.87848">
        <ele>885.53</ele>
        <time>2021-05-13T16:44:26.000Z</time>
      </trkpt>
      <trkpt lat="45.1935" lon="5.87894">
        <ele>885.4</ele>
        <time>2021-05-13T16:44:31.000Z</time>
      </trkpt>
      <trkpt lat="45.1936" lon="5.87928">
        <ele>886.54</ele>
        <time>2021-05-13T16:44:36.000Z</time>
      </trkpt>
      <trkpt lat="45.19368" lon="5.8794">
        <ele>881.62</ele>
        <time>2021-05-13T16:46:04.000Z</time>
      </trkpt>
      <trkpt lat="45.1938" lon="5.87956">
        <ele>885.64</ele>
        <time>2021-05-13T16:46:09.000Z</time>
      </trkpt>
      <trkpt lat="45.19397" lon="5.87981">
        <ele>888.26</ele>
        <time>2021-05-13T16:46:14.000Z</time>
      </trkpt>
      <trkpt lat="45.19418" lon="5.88015">
        <ele>885.54</ele>
        <time>2021-05-13T16:46:19.000Z</time>
      </trkpt>
      <trkpt lat="45.19434" lon="5.88063">
        <ele>882.15</ele>
        <time>2021-05-13T16:46:24.000Z</time>
      </trkpt>
      <trkpt lat="45.19434" lon="5.88122">
        <ele>877.49</ele>
        <time>2021-05-13T16:46:29.000Z</time>
      </trkpt>
      <trkpt lat="45.19421" lon="5.88184">
        <ele>876.49</ele>
        <time>2021-05-13T16:46:34.000Z</time>
      </trkpt>
      <trkpt lat="45.19397" lon="5.88237">
        <ele>873.28</ele>
        <time>2021-05-13T16:46:39.000Z</time>
      </trkpt>
      <trkpt lat="45.1939" lon="5.88303">
        <ele>870.05</ele>
        <time>2021-05-13T16:46:44.000Z</time>
      </trkpt>
      <trkpt lat="45.19378" lon="5.88383">
        <ele>869.21</ele>
        <time>2021-05-13T16:46:49.000Z</time>
      </trkpt>
      <trkpt lat="45.19325" lon="5.88433">
        <ele>864.47</ele>
        <time>2021-05-13T16:46:54.000Z</time>
      </trkpt>
      <trkpt lat="45.19257" lon="5.88457">
        <ele>860.57</ele>
        <time>2021-05-13T16:46:59.000Z</time>
      </trkpt>
      <trkpt lat="45.1918" lon="5.88463">
        <ele>859.61</ele>
        <time>2021-05-13T16:47:04.000Z</time>
      </trkpt>
      <trkpt lat="45.19097" lon="5.8845">
        <ele>860.17</ele>
        <time>2021-05-13T16:47:09.000Z</time>
      </trkpt>
      <trkpt lat="45.19014" lon="5.88453">
        <ele>859.31</ele>
        <time>2021-05-13T16:47:14.000Z</time>
      </trkpt>
      <trkpt lat="45.18935" lon="5.88459">
        <ele>851.3</ele>
        <time>2021-05-13T16:47:19.000Z</time>
      </trkpt>
      <trkpt lat="45.18864" lon="5.88466">
        <ele>850.52</ele>
        <time>2021-05-13T16:47:24.000Z</time>
      </trkpt>
      <trkpt lat="45.18804" lon="5.8843">
        <ele>848.43</ele>
        <time>2021-05-13T16:47:29.000Z</time>
      </trkpt>
      <trkpt lat="45.18765" lon="5.88369">
        <ele>846.57</ele>
        <time>2021-05-13T16:47:34.000Z</time>
      </trkpt>
      <trkpt lat="45.1873" lon="5.88307">
        <ele>848.85</ele>
        <time>2021-05-13T16:47:39.000Z</time>
      </trkpt>
      <trkpt lat="45.18711" lon="5.8825">
        <ele>844.44</ele>
        <time>2021-05-13T16:47:44.000Z</time>
      </trkpt>
      <trkpt lat="45.1871" lon="5.88185">
        <ele>836.74</ele>
        <time>2021-05-13T16:47:49.000Z</time>
      </trkpt>
      <trkpt lat="45.18723" lon="5.88108">
        <ele>835.96</ele>
        <time>2021-05-13T16:47:54.000Z</time>
      </trkpt>
      <trkpt lat="45.18711" lon="5.8802">
        <ele>832.88</ele>
        <time>2021-05-13T16:47:59.000Z</time>
      </trkpt>
      <trkpt lat="45.18688" lon="5.87934">
        <ele>832.73</ele>
        <time>2021-05-13T16:48:04.000Z</time>
      </trkpt>
      <trkpt lat="45.1862" lon="5.87862">
        <ele>828.87</ele>
        <time>2021-05-13T16:48:09.000Z</time>
      </trkpt>
      <trkpt lat="45.18528" lon="5.8781">
        <ele>824.33</ele>
        <time>2021-05-13T16:48:14.000Z</time>
      </trkpt>
      <trkpt lat="45.1845" lon="5.87788">
        <ele>818.91</ele>
        <time>2021-05-13T16:48:19.000Z</time>
      </trkpt>
      <trkpt lat="45.18379" lon="5.87845">
        <ele>802.57</ele>
        <time>2021-05-13T16:48:24.000Z</time>
      </trkpt>
      <trkpt lat="45.18308" lon="5.87924">
        <ele>791.22</ele>
        <time>2021-05-13T16:48:29.000Z</time>
      </trkpt>
      <trkpt lat="45.18259" lon="5.88002">
        <ele>774.55</ele>
        <time>2021-05-13T16:48:34.000Z</time>
      </trkpt>
      <trkpt lat="45.18246" lon="5.88002">
        <ele>770.04</ele>
        <time>2021-05-13T16:48:39.000Z</time>
      </trkpt>
      <trkpt lat="45.1826" lon="5.87942">
        <ele>762.25</ele>
        <time>2021-05-13T16:48:44.000Z</time>
      </trkpt>
      <trkpt lat="45.18262" lon="5.87866">
        <ele>758.99</ele>
        <time>2021-05-13T16:48:49.000Z</time>
      </trkpt>
      <trkpt lat="45.18283" lon="5.87778">
        <ele>746.43</ele>
        <time>2021-05-13T16:48:54.000Z</time>
      </trkpt>
      <trkpt lat="45.18303" lon="5.87702">
        <ele>735.8</ele>
        <time>2021-05-13T16:48:59.000Z</time>
      </trkpt>
      <trkpt lat="45.18301" lon="5.87687">
        <ele>729.58</ele>
        <time>2021-05-13T16:49:04.000Z</time>
      </trkpt>
      <trkpt lat="45.18299" lon="5.87672">
        <ele>727.68</ele>
        <time>2021-05-13T16:49:09.000Z</time>
      </trkpt>
      <trkpt lat="45.18307" lon="5.8764">
        <ele>724.97</ele>
        <time>2021-05-13T16:49:14.000Z</time>
      </trkpt>
      <trkpt lat="45.18314" lon="5.87609">
        <ele>716.91</ele>
        <time>2021-05-13T16:49:19.000Z</time>
      </trkpt>
      <trkpt lat="45.18326" lon="5.87576">
        <ele>710.51</ele>
        <time>2021-05-13T16:49:24.000Z</time>
      </trkpt>
      <trkpt lat="45.18334" lon="5.87543">
        <ele>708.74</ele>
        <time>2021-05-13T16:49:29.000Z</time>
      </trkpt>
      <trkpt lat="45.18341" lon="5.87512">
        <ele>704.97</ele>
        <time>2021-05-13T16:49:34.000Z</time>
      </trkpt>
      <trkpt lat="45.1835" lon="5.87482">
        <ele>699.55</ele>
        <time>2021-05-13T16:49:39.000Z</time>
      </trkpt>
      <trkpt lat="45.18364" lon="5.87447">
        <ele>695.63</ele>
        <time>2021-05-13T16:49:44.000Z</time>
      </trkpt>
      <trkpt lat="45.18374" lon="5.87409">
        <ele>688.88</ele>
        <time>2021-05-13T16:49:49.000Z</time>
      </trkpt>
      <trkpt lat="45.1838" lon="5.87385">
        <ele>686.04</ele>
        <time>2021-05-13T16:49:54.000Z</time>
      </trkpt>
      <trkpt lat="45.1838" lon="5.87383">
        <ele>690.26</ele>
        <time>2021-05-13T16:50:51.000Z</time>
      </trkpt>
    </trkseg>
  </trk>
</gpx>